<?xml version="1.0" encoding="UTF-8" standalone="no" ?>
 
<gpx xmlns="http://www.topografix.com/GPX/1/1" creator="bikehike.co.uk" version="1.1" 
    xmlns:xsi="http://www.w3.org/2001/XMLSchema-instance" 
    xsi:schemaLocation="http://www.topografix.com/GPX/1/1 http://www.topografix.com/GPX/1/1/gpx.xsd">


  <trk>
    <name>menton-f-ligure</name>
    <trkseg>
      <trkpt lat="43.780160" lon="7.498350">
       <ele>112.13</ele>
       <time>2014-11-03T20:38:27Z</time>
      </trkpt>
      <trkpt lat="43.780250" lon="7.498480">
       <ele>110.21</ele>
       <time>2014-11-03T20:38:29Z</time>
      </trkpt>
      <trkpt lat="43.780350" lon="7.498530">
       <ele>109.9</ele>
       <time>2014-11-03T20:38:31Z</time>
      </trkpt>
      <trkpt lat="43.780390" lon="7.498530">
       <ele>110.16</ele>
       <time>2014-11-03T20:38:32Z</time>
      </trkpt>
      <trkpt lat="43.780500" lon="7.498500">
       <ele>111.27</ele>
       <time>2014-11-03T20:38:35Z</time>
      </trkpt>
      <trkpt lat="43.780770" lon="7.498380">
       <ele>114.22</ele>
       <time>2014-11-03T20:38:40Z</time>
      </trkpt>
      <trkpt lat="43.781140" lon="7.498170">
       <ele>119.13</ele>
       <time>2014-11-03T20:38:49Z</time>
      </trkpt>
      <trkpt lat="43.781210" lon="7.498150">
       <ele>119.91</ele>
       <time>2014-11-03T20:38:50Z</time>
      </trkpt>
      <trkpt lat="43.781260" lon="7.498150">
       <ele>120.47</ele>
       <time>2014-11-03T20:38:51Z</time>
      </trkpt>
      <trkpt lat="43.781290" lon="7.498170">
       <ele>120.85</ele>
       <time>2014-11-03T20:38:52Z</time>
      </trkpt>
      <trkpt lat="43.781340" lon="7.498270">
       <ele>121.99</ele>
       <time>2014-11-03T20:38:54Z</time>
      </trkpt>
      <trkpt lat="43.781120" lon="7.499380">
       <ele>117.43</ele>
       <time>2014-11-03T20:39:11Z</time>
      </trkpt>
      <trkpt lat="43.781110" lon="7.499370">
       <ele>116.96</ele>
       <time>2014-11-03T20:39:11Z</time>
      </trkpt>
      <trkpt lat="43.781060" lon="7.499390">
       <ele>115.59</ele>
       <time>2014-11-03T20:39:12Z</time>
      </trkpt>
      <trkpt lat="43.780830" lon="7.499750">
       <ele>112.23</ele>
       <time>2014-11-03T20:39:20Z</time>
      </trkpt>
      <trkpt lat="43.780700" lon="7.499870">
       <ele>110.21</ele>
       <time>2014-11-03T20:39:23Z</time>
      </trkpt>
      <trkpt lat="43.780350" lon="7.500060">
       <ele>102.54</ele>
       <time>2014-11-03T20:39:31Z</time>
      </trkpt>
      <trkpt lat="43.779840" lon="7.500250">
       <ele>92.5</ele>
       <time>2014-11-03T20:39:42Z</time>
      </trkpt>
      <trkpt lat="43.779530" lon="7.500470">
       <ele>88.07</ele>
       <time>2014-11-03T20:39:49Z</time>
      </trkpt>
      <trkpt lat="43.779270" lon="7.500890">
       <ele>85.54</ele>
       <time>2014-11-03T20:39:57Z</time>
      </trkpt>
      <trkpt lat="43.779110" lon="7.501080">
       <ele>83.12</ele>
       <time>2014-11-03T20:40:01Z</time>
      </trkpt>
      <trkpt lat="43.778790" lon="7.501370">
       <ele>77.68</ele>
       <time>2014-11-03T20:40:09Z</time>
      </trkpt>
      <trkpt lat="43.778440" lon="7.501610">
       <ele>71.1</ele>
       <time>2014-11-03T20:40:17Z</time>
      </trkpt>
      <trkpt lat="43.778310" lon="7.501730">
       <ele>68</ele>
       <time>2014-11-03T20:40:21Z</time>
      </trkpt>
      <trkpt lat="43.778260" lon="7.501740">
       <ele>66.39</ele>
       <time>2014-11-03T20:40:22Z</time>
      </trkpt>
      <trkpt lat="43.778230" lon="7.501720">
       <ele>65.51</ele>
       <time>2014-11-03T20:40:22Z</time>
      </trkpt>
      <trkpt lat="43.778210" lon="7.501680">
       <ele>65.08</ele>
       <time>2014-11-03T20:40:23Z</time>
      </trkpt>
      <trkpt lat="43.778220" lon="7.501590">
       <ele>64.68</ele>
       <time>2014-11-03T20:40:24Z</time>
      </trkpt>
      <trkpt lat="43.778720" lon="7.500740">
       <ele>69.93</ele>
       <time>2014-11-03T20:40:41Z</time>
      </trkpt>
      <trkpt lat="43.778740" lon="7.500650">
       <ele>70.6</ele>
       <time>2014-11-03T20:40:42Z</time>
      </trkpt>
      <trkpt lat="43.778730" lon="7.500620">
       <ele>70.4</ele>
       <time>2014-11-03T20:40:43Z</time>
      </trkpt>
      <trkpt lat="43.778700" lon="7.500600">
       <ele>69.86</ele>
       <time>2014-11-03T20:40:43Z</time>
      </trkpt>
      <trkpt lat="43.778640" lon="7.500630">
       <ele>68.39</ele>
       <time>2014-11-03T20:40:45Z</time>
      </trkpt>
      <trkpt lat="43.778590" lon="7.500690">
       <ele>66.93</ele>
       <time>2014-11-03T20:40:46Z</time>
      </trkpt>
      <trkpt lat="43.778220" lon="7.501190">
       <ele>60.4</ele>
       <time>2014-11-03T20:40:57Z</time>
      </trkpt>
      <trkpt lat="43.778040" lon="7.501260">
       <ele>56.39</ele>
       <time>2014-11-03T20:41:01Z</time>
      </trkpt>
      <trkpt lat="43.777720" lon="7.501470">
       <ele>48.93</ele>
       <time>2014-11-03T20:41:08Z</time>
      </trkpt>
      <trkpt lat="43.777590" lon="7.501600">
       <ele>45.63</ele>
       <time>2014-11-03T20:41:11Z</time>
      </trkpt>
      <trkpt lat="43.777540" lon="7.501690">
       <ele>43.98</ele>
       <time>2014-11-03T20:41:13Z</time>
      </trkpt>
      <trkpt lat="43.777530" lon="7.501740">
       <ele>43.27</ele>
       <time>2014-11-03T20:41:14Z</time>
      </trkpt>
      <trkpt lat="43.777520" lon="7.502210">
       <ele>38.46</ele>
       <time>2014-11-03T20:41:21Z</time>
      </trkpt>
      <trkpt lat="43.777420" lon="7.502420">
       <ele>34.56</ele>
       <time>2014-11-03T20:41:25Z</time>
      </trkpt>
      <trkpt lat="43.777420" lon="7.502460">
       <ele>34.2</ele>
       <time>2014-11-03T20:41:25Z</time>
      </trkpt>
      <trkpt lat="43.777440" lon="7.502520">
       <ele>33.87</ele>
       <time>2014-11-03T20:41:26Z</time>
      </trkpt>
      <trkpt lat="43.777620" lon="7.502770">
       <ele>35.2</ele>
       <time>2014-11-03T20:41:32Z</time>
      </trkpt>
      <trkpt lat="43.777640" lon="7.502820">
       <ele>35.12</ele>
       <time>2014-11-03T20:41:32Z</time>
      </trkpt>
      <trkpt lat="43.777610" lon="7.502890">
       <ele>33.1</ele>
       <time>2014-11-03T20:41:34Z</time>
      </trkpt>
      <trkpt lat="43.777560" lon="7.502890">
       <ele>31.65</ele>
       <time>2014-11-03T20:41:35Z</time>
      </trkpt>
      <trkpt lat="43.777400" lon="7.502670">
       <ele>31.45</ele>
       <time>2014-11-03T20:41:39Z</time>
      </trkpt>
      <trkpt lat="43.777330" lon="7.502520">
       <ele>32.29</ele>
       <time>2014-11-03T20:41:42Z</time>
      </trkpt>
      <trkpt lat="43.777210" lon="7.502670">
       <ele>28.94</ele>
       <time>2014-11-03T20:41:45Z</time>
      </trkpt>
      <trkpt lat="43.777180" lon="7.502740">
       <ele>27.77</ele>
       <time>2014-11-03T20:41:47Z</time>
      </trkpt>
      <trkpt lat="43.777200" lon="7.502910">
       <ele>26.14</ele>
       <time>2014-11-03T20:41:49Z</time>
      </trkpt>
      <trkpt lat="43.777260" lon="7.503050">
       <ele>25.23</ele>
       <time>2014-11-03T20:41:52Z</time>
      </trkpt>
      <trkpt lat="43.777260" lon="7.503130">
       <ele>24.32</ele>
       <time>2014-11-03T20:41:53Z</time>
      </trkpt>
      <trkpt lat="43.777220" lon="7.503150">
       <ele>23.72</ele>
       <time>2014-11-03T20:41:54Z</time>
      </trkpt>
      <trkpt lat="43.777180" lon="7.503100">
       <ele>23.85</ele>
       <time>2014-11-03T20:41:55Z</time>
      </trkpt>
      <trkpt lat="43.777130" lon="7.502950">
       <ele>24.93</ele>
       <time>2014-11-03T20:41:57Z</time>
      </trkpt>
      <trkpt lat="43.777030" lon="7.502780">
       <ele>25.5</ele>
       <time>2014-11-03T20:42:01Z</time>
      </trkpt>
      <trkpt lat="43.776820" lon="7.502170">
       <ele>26.46</ele>
       <time>2014-11-03T20:42:11Z</time>
      </trkpt>
      <trkpt lat="43.776720" lon="7.501820">
       <ele>25.68</ele>
       <time>2014-11-03T20:42:16Z</time>
      </trkpt>
      <trkpt lat="43.776500" lon="7.500870">
       <ele>23.82</ele>
       <time>2014-11-03T20:42:31Z</time>
      </trkpt>
      <trkpt lat="43.776430" lon="7.500180">
       <ele>26.64</ele>
       <time>2014-11-03T20:42:42Z</time>
      </trkpt>
      <trkpt lat="43.775880" lon="7.500350">
       <ele>19.52</ele>
       <time>2014-11-03T20:42:53Z</time>
      </trkpt>
      <trkpt lat="43.775170" lon="7.500510">
       <ele>15.02</ele>
       <time>2014-11-03T20:43:08Z</time>
      </trkpt>
      <trkpt lat="43.775100" lon="7.500180">
       <ele>14.6</ele>
       <time>2014-11-03T20:43:13Z</time>
      </trkpt>
      <trkpt lat="43.775060" lon="7.500070">
       <ele>14.35</ele>
       <time>2014-11-03T20:43:15Z</time>
      </trkpt>
      <trkpt lat="43.775010" lon="7.499990">
       <ele>14.03</ele>
       <time>2014-11-03T20:43:17Z</time>
      </trkpt>
      <trkpt lat="43.774970" lon="7.499970">
       <ele>13.86</ele>
       <time>2014-11-03T20:43:18Z</time>
      </trkpt>
      <trkpt lat="43.774910" lon="7.499980">
       <ele>13.74</ele>
       <time>2014-11-03T20:43:19Z</time>
      </trkpt>
      <trkpt lat="43.774880" lon="7.500020">
       <ele>13.71</ele>
       <time>2014-11-03T20:43:20Z</time>
      </trkpt>
      <trkpt lat="43.774880" lon="7.500290">
       <ele>13.66</ele>
       <time>2014-11-03T20:43:24Z</time>
      </trkpt>
      <trkpt lat="43.774860" lon="7.500530">
       <ele>13.56</ele>
       <time>2014-11-03T20:43:28Z</time>
      </trkpt>
      <trkpt lat="43.774630" lon="7.501080">
       <ele>12.94</ele>
       <time>2014-11-03T20:43:37Z</time>
      </trkpt>
      <trkpt lat="43.774580" lon="7.501140">
       <ele>12.85</ele>
       <time>2014-11-03T20:43:38Z</time>
      </trkpt>
      <trkpt lat="43.774460" lon="7.501170">
       <ele>12.58</ele>
       <time>2014-11-03T20:43:41Z</time>
      </trkpt>
      <trkpt lat="43.774430" lon="7.501130">
       <ele>12.43</ele>
       <time>2014-11-03T20:43:42Z</time>
      </trkpt>
      <trkpt lat="43.774400" lon="7.501120">
       <ele>12.33</ele>
       <time>2014-11-03T20:43:42Z</time>
      </trkpt>
      <trkpt lat="43.774360" lon="7.501130">
       <ele>12.24</ele>
       <time>2014-11-03T20:43:43Z</time>
      </trkpt>
      <trkpt lat="43.774320" lon="7.501180">
       <ele>12.23</ele>
       <time>2014-11-03T20:43:44Z</time>
      </trkpt>
      <trkpt lat="43.774330" lon="7.501280">
       <ele>12.45</ele>
       <time>2014-11-03T20:43:46Z</time>
      </trkpt>
      <trkpt lat="43.773790" lon="7.501650">
       <ele>9.37</ele>
       <time>2014-11-03T20:43:58Z</time>
      </trkpt>
      <trkpt lat="43.774810" lon="7.505160">
       <ele>8.01</ele>
       <time>2014-11-03T20:44:55Z</time>
      </trkpt>
      <trkpt lat="43.774700" lon="7.505230">
       <ele>7.05</ele>
       <time>2014-11-03T20:44:58Z</time>
      </trkpt>
      <trkpt lat="43.774580" lon="7.505480">
       <ele>5.89</ele>
       <time>2014-11-03T20:45:02Z</time>
      </trkpt>
      <trkpt lat="43.774430" lon="7.506020">
       <ele>5.02</ele>
       <time>2014-11-03T20:45:11Z</time>
      </trkpt>
      <trkpt lat="43.774380" lon="7.506270">
       <ele>4.9</ele>
       <time>2014-11-03T20:45:15Z</time>
      </trkpt>
      <trkpt lat="43.774370" lon="7.506460">
       <ele>4.91</ele>
       <time>2014-11-03T20:45:17Z</time>
      </trkpt>
      <trkpt lat="43.774380" lon="7.506750">
       <ele>4.95</ele>
       <time>2014-11-03T20:45:22Z</time>
      </trkpt>
      <trkpt lat="43.774430" lon="7.507020">
       <ele>4.97</ele>
       <time>2014-11-03T20:45:26Z</time>
      </trkpt>
      <trkpt lat="43.774810" lon="7.507970">
       <ele>5.74</ele>
       <time>2014-11-03T20:45:42Z</time>
      </trkpt>
      <trkpt lat="43.774890" lon="7.508130">
       <ele>5.83</ele>
       <time>2014-11-03T20:45:45Z</time>
      </trkpt>
      <trkpt lat="43.774980" lon="7.508230">
       <ele>6.12</ele>
       <time>2014-11-03T20:45:48Z</time>
      </trkpt>
      <trkpt lat="43.774970" lon="7.508320">
       <ele>5.86</ele>
       <time>2014-11-03T20:45:49Z</time>
      </trkpt>
      <trkpt lat="43.775010" lon="7.508400">
       <ele>5.8</ele>
       <time>2014-11-03T20:45:50Z</time>
      </trkpt>
      <trkpt lat="43.775060" lon="7.508420">
       <ele>5.94</ele>
       <time>2014-11-03T20:45:51Z</time>
      </trkpt>
      <trkpt lat="43.775100" lon="7.508410">
       <ele>6.16</ele>
       <time>2014-11-03T20:45:52Z</time>
      </trkpt>
      <trkpt lat="43.775140" lon="7.508350">
       <ele>6.59</ele>
       <time>2014-11-03T20:45:54Z</time>
      </trkpt>
      <trkpt lat="43.775230" lon="7.508450">
       <ele>6.53</ele>
       <time>2014-11-03T20:45:56Z</time>
      </trkpt>
      <trkpt lat="43.775320" lon="7.508490">
       <ele>6.68</ele>
       <time>2014-11-03T20:45:58Z</time>
      </trkpt>
      <trkpt lat="43.775620" lon="7.508540">
       <ele>7.49</ele>
       <time>2014-11-03T20:46:04Z</time>
      </trkpt>
      <trkpt lat="43.775940" lon="7.508540">
       <ele>7.91</ele>
       <time>2014-11-03T20:46:11Z</time>
      </trkpt>
      <trkpt lat="43.776140" lon="7.508460">
       <ele>7.89</ele>
       <time>2014-11-03T20:46:15Z</time>
      </trkpt>
      <trkpt lat="43.776730" lon="7.508140">
       <ele>10.62</ele>
       <time>2014-11-03T20:46:28Z</time>
      </trkpt>
      <trkpt lat="43.776930" lon="7.508010">
       <ele>12.38</ele>
       <time>2014-11-03T20:46:33Z</time>
      </trkpt>
      <trkpt lat="43.777390" lon="7.507770">
       <ele>15.91</ele>
       <time>2014-11-03T20:46:43Z</time>
      </trkpt>
      <trkpt lat="43.777910" lon="7.507550">
       <ele>15.74</ele>
       <time>2014-11-03T20:46:54Z</time>
      </trkpt>
      <trkpt lat="43.778390" lon="7.507410">
       <ele>14.04</ele>
       <time>2014-11-03T20:47:04Z</time>
      </trkpt>
      <trkpt lat="43.778440" lon="7.507390">
       <ele>14.7</ele>
       <time>2014-11-03T20:47:06Z</time>
      </trkpt>
      <trkpt lat="43.778590" lon="7.507400">
       <ele>14.41</ele>
       <time>2014-11-03T20:47:09Z</time>
      </trkpt>
      <trkpt lat="43.778700" lon="7.507380">
       <ele>15.03</ele>
       <time>2014-11-03T20:47:11Z</time>
      </trkpt>
      <trkpt lat="43.778760" lon="7.507390">
       <ele>14.73</ele>
       <time>2014-11-03T20:47:12Z</time>
      </trkpt>
      <trkpt lat="43.779060" lon="7.507560">
       <ele>11.16</ele>
       <time>2014-11-03T20:47:19Z</time>
      </trkpt>
      <trkpt lat="43.779170" lon="7.507650">
       <ele>10.29</ele>
       <time>2014-11-03T20:47:22Z</time>
      </trkpt>
      <trkpt lat="43.779970" lon="7.508350">
       <ele>16.24</ele>
       <time>2014-11-03T20:47:41Z</time>
      </trkpt>
      <trkpt lat="43.780230" lon="7.508690">
       <ele>14.19</ele>
       <time>2014-11-03T20:47:49Z</time>
      </trkpt>
      <trkpt lat="43.780400" lon="7.508880">
       <ele>12.53</ele>
       <time>2014-11-03T20:47:53Z</time>
      </trkpt>
      <trkpt lat="43.780990" lon="7.509410">
       <ele>10.23</ele>
       <time>2014-11-03T20:48:08Z</time>
      </trkpt>
      <trkpt lat="43.781330" lon="7.509830">
       <ele>9.26</ele>
       <time>2014-11-03T20:48:17Z</time>
      </trkpt>
      <trkpt lat="43.781600" lon="7.510240">
       <ele>7.87</ele>
       <time>2014-11-03T20:48:25Z</time>
      </trkpt>
      <trkpt lat="43.782660" lon="7.512470">
       <ele>6.3</ele>
       <time>2014-11-03T20:49:05Z</time>
      </trkpt>
      <trkpt lat="43.783130" lon="7.513760">
       <ele>2.62</ele>
       <time>2014-11-03T20:49:27Z</time>
      </trkpt>
      <trkpt lat="43.783400" lon="7.514630">
       <ele>2.33</ele>
       <time>2014-11-03T20:49:41Z</time>
      </trkpt>
      <trkpt lat="43.783980" lon="7.517100">
       <ele>7.15</ele>
       <time>2014-11-03T20:50:20Z</time>
      </trkpt>
      <trkpt lat="43.784170" lon="7.517980">
       <ele>6.71</ele>
       <time>2014-11-03T20:50:34Z</time>
      </trkpt>
      <trkpt lat="43.784510" lon="7.519380">
       <ele>4.21</ele>
       <time>2014-11-03T20:50:56Z</time>
      </trkpt>
      <trkpt lat="43.784610" lon="7.520140">
       <ele>4.91</ele>
       <time>2014-11-03T20:51:08Z</time>
      </trkpt>
      <trkpt lat="43.784650" lon="7.520640">
       <ele>5.94</ele>
       <time>2014-11-03T20:51:15Z</time>
      </trkpt>
      <trkpt lat="43.784650" lon="7.520980">
       <ele>6.13</ele>
       <time>2014-11-03T20:51:20Z</time>
      </trkpt>
      <trkpt lat="43.784680" lon="7.521340">
       <ele>6.12</ele>
       <time>2014-11-03T20:51:26Z</time>
      </trkpt>
      <trkpt lat="43.784860" lon="7.522320">
       <ele>8.96</ele>
       <time>2014-11-03T20:51:41Z</time>
      </trkpt>
      <trkpt lat="43.785110" lon="7.524740">
       <ele>5.25</ele>
       <time>2014-11-03T20:52:17Z</time>
      </trkpt>
      <trkpt lat="43.785120" lon="7.525180">
       <ele>4.92</ele>
       <time>2014-11-03T20:52:24Z</time>
      </trkpt>
      <trkpt lat="43.785110" lon="7.525730">
       <ele>4.62</ele>
       <time>2014-11-03T20:52:32Z</time>
      </trkpt>
      <trkpt lat="43.785080" lon="7.525840">
       <ele>4.15</ele>
       <time>2014-11-03T20:52:34Z</time>
      </trkpt>
      <trkpt lat="43.785000" lon="7.526400">
       <ele>2.32</ele>
       <time>2014-11-03T20:52:42Z</time>
      </trkpt>
      <trkpt lat="43.784990" lon="7.527310">
       <ele>4.26</ele>
       <time>2014-11-03T20:52:56Z</time>
      </trkpt>
      <trkpt lat="43.784950" lon="7.527640">
       <ele>5.97</ele>
       <time>2014-11-03T20:53:01Z</time>
      </trkpt>
      <trkpt lat="43.784770" lon="7.528250">
       <ele>9.1</ele>
       <time>2014-11-03T20:53:11Z</time>
      </trkpt>
      <trkpt lat="43.784640" lon="7.528600">
       <ele>8.47</ele>
       <time>2014-11-03T20:53:17Z</time>
      </trkpt>
      <trkpt lat="43.784560" lon="7.528760">
       <ele>7.7</ele>
       <time>2014-11-03T20:53:20Z</time>
      </trkpt>
      <trkpt lat="43.784400" lon="7.529000">
       <ele>5.97</ele>
       <time>2014-11-03T20:53:25Z</time>
      </trkpt>
      <trkpt lat="43.784320" lon="7.529170">
       <ele>5.21</ele>
       <time>2014-11-03T20:53:28Z</time>
      </trkpt>
      <trkpt lat="43.784360" lon="7.530710">
       <ele>5.16</ele>
       <time>2014-11-03T20:53:51Z</time>
      </trkpt>
      <trkpt lat="43.784370" lon="7.530860">
       <ele>5.44</ele>
       <time>2014-11-03T20:53:53Z</time>
      </trkpt>
      <trkpt lat="43.784460" lon="7.531370">
       <ele>6.79</ele>
       <time>2014-11-03T20:54:01Z</time>
      </trkpt>
      <trkpt lat="43.784570" lon="7.531700">
       <ele>9.66</ele>
       <time>2014-11-03T20:54:06Z</time>
      </trkpt>
      <trkpt lat="43.784630" lon="7.531820">
       <ele>12.7</ele>
       <time>2014-11-03T20:54:08Z</time>
      </trkpt>
      <trkpt lat="43.784840" lon="7.532130">
       <ele>23.34</ele>
       <time>2014-11-03T20:54:15Z</time>
      </trkpt>
      <trkpt lat="43.784890" lon="7.532300">
       <ele>28.11</ele>
       <time>2014-11-03T20:54:18Z</time>
      </trkpt>
      <trkpt lat="43.784900" lon="7.532410">
       <ele>30.65</ele>
       <time>2014-11-03T20:54:19Z</time>
      </trkpt>
      <trkpt lat="43.784930" lon="7.532840">
       <ele>47.29</ele>
       <time>2014-11-03T20:54:26Z</time>
      </trkpt>
      <trkpt lat="43.784920" lon="7.533060">
       <ele>55.56</ele>
       <time>2014-11-03T20:54:29Z</time>
      </trkpt>
      <trkpt lat="43.784580" lon="7.536100">
       <ele>73.89</ele>
       <time>2014-11-03T20:55:15Z</time>
      </trkpt>
      <trkpt lat="43.784340" lon="7.538050">
       <ele>45.9</ele>
       <time>2014-11-03T20:55:45Z</time>
      </trkpt>
      <trkpt lat="43.784330" lon="7.538860">
       <ele>36.03</ele>
       <time>2014-11-03T20:55:57Z</time>
      </trkpt>
      <trkpt lat="43.784360" lon="7.539130">
       <ele>32.75</ele>
       <time>2014-11-03T20:56:01Z</time>
      </trkpt>
      <trkpt lat="43.784500" lon="7.539640">
       <ele>30.7</ele>
       <time>2014-11-03T20:56:09Z</time>
      </trkpt>
      <trkpt lat="43.784580" lon="7.539900">
       <ele>30.26</ele>
       <time>2014-11-03T20:56:13Z</time>
      </trkpt>
      <trkpt lat="43.784870" lon="7.540680">
       <ele>31.29</ele>
       <time>2014-11-03T20:56:26Z</time>
      </trkpt>
      <trkpt lat="43.784990" lon="7.541150">
       <ele>30.19</ele>
       <time>2014-11-03T20:56:34Z</time>
      </trkpt>
      <trkpt lat="43.785060" lon="7.541680">
       <ele>28.61</ele>
       <time>2014-11-03T20:56:42Z</time>
      </trkpt>
      <trkpt lat="43.785060" lon="7.542170">
       <ele>29.92</ele>
       <time>2014-11-03T20:56:49Z</time>
      </trkpt>
      <trkpt lat="43.785030" lon="7.542490">
       <ele>28.87</ele>
       <time>2014-11-03T20:56:54Z</time>
      </trkpt>
      <trkpt lat="43.784980" lon="7.542820">
       <ele>32.14</ele>
       <time>2014-11-03T20:56:59Z</time>
      </trkpt>
      <trkpt lat="43.784700" lon="7.543860">
       <ele>41.15</ele>
       <time>2014-11-03T20:57:16Z</time>
      </trkpt>
      <trkpt lat="43.784320" lon="7.545040">
       <ele>50.02</ele>
       <time>2014-11-03T20:57:35Z</time>
      </trkpt>
      <trkpt lat="43.782840" lon="7.548160">
       <ele>44.17</ele>
       <time>2014-11-03T20:58:31Z</time>
      </trkpt>
      <trkpt lat="43.782720" lon="7.548430">
       <ele>42.15</ele>
       <time>2014-11-03T20:58:36Z</time>
      </trkpt>
      <trkpt lat="43.782600" lon="7.548820">
       <ele>41.95</ele>
       <time>2014-11-03T20:58:42Z</time>
      </trkpt>
      <trkpt lat="43.782530" lon="7.549200">
       <ele>43.92</ele>
       <time>2014-11-03T20:58:48Z</time>
      </trkpt>
      <trkpt lat="43.782500" lon="7.549520">
       <ele>45.88</ele>
       <time>2014-11-03T20:58:53Z</time>
      </trkpt>
      <trkpt lat="43.782510" lon="7.550710">
       <ele>50.65</ele>
       <time>2014-11-03T20:59:11Z</time>
      </trkpt>
      <trkpt lat="43.782550" lon="7.551140">
       <ele>52.63</ele>
       <time>2014-11-03T20:59:17Z</time>
      </trkpt>
      <trkpt lat="43.782580" lon="7.551300">
       <ele>54.29</ele>
       <time>2014-11-03T20:59:20Z</time>
      </trkpt>
      <trkpt lat="43.782660" lon="7.551610">
       <ele>58.91</ele>
       <time>2014-11-03T20:59:25Z</time>
      </trkpt>
      <trkpt lat="43.783610" lon="7.554230">
       <ele>68.62</ele>
       <time>2014-11-03T21:00:08Z</time>
      </trkpt>
      <trkpt lat="43.783930" lon="7.555000">
       <ele>78.39</ele>
       <time>2014-11-03T21:00:22Z</time>
      </trkpt>
      <trkpt lat="43.784310" lon="7.555770">
       <ele>69.48</ele>
       <time>2014-11-03T21:00:36Z</time>
      </trkpt>
      <trkpt lat="43.784680" lon="7.556390">
       <ele>48.71</ele>
       <time>2014-11-03T21:00:48Z</time>
      </trkpt>
      <trkpt lat="43.784830" lon="7.556560">
       <ele>43.06</ele>
       <time>2014-11-03T21:00:52Z</time>
      </trkpt>
      <trkpt lat="43.785030" lon="7.556750">
       <ele>38.94</ele>
       <time>2014-11-03T21:00:57Z</time>
      </trkpt>
      <trkpt lat="43.785220" lon="7.556890">
       <ele>40.11</ele>
       <time>2014-11-03T21:01:01Z</time>
      </trkpt>
      <trkpt lat="43.786830" lon="7.557930">
       <ele>46.26</ele>
       <time>2014-11-03T21:01:38Z</time>
      </trkpt>
      <trkpt lat="43.786950" lon="7.557980">
       <ele>46.06</ele>
       <time>2014-11-03T21:01:41Z</time>
      </trkpt>
      <trkpt lat="43.787230" lon="7.558060">
       <ele>45.77</ele>
       <time>2014-11-03T21:01:47Z</time>
      </trkpt>
      <trkpt lat="43.787760" lon="7.558180">
       <ele>47.23</ele>
       <time>2014-11-03T21:01:58Z</time>
      </trkpt>
      <trkpt lat="43.787900" lon="7.558230">
       <ele>47.6</ele>
       <time>2014-11-03T21:02:01Z</time>
      </trkpt>
      <trkpt lat="43.788210" lon="7.558450">
       <ele>45.35</ele>
       <time>2014-11-03T21:02:08Z</time>
      </trkpt>
      <trkpt lat="43.788490" lon="7.558770">
       <ele>42.99</ele>
       <time>2014-11-03T21:02:15Z</time>
      </trkpt>
      <trkpt lat="43.789190" lon="7.559890">
       <ele>31.95</ele>
       <time>2014-11-03T21:02:38Z</time>
      </trkpt>
      <trkpt lat="43.789820" lon="7.560820">
       <ele>23.68</ele>
       <time>2014-11-03T21:02:57Z</time>
      </trkpt>
      <trkpt lat="43.790090" lon="7.561190">
       <ele>22.88</ele>
       <time>2014-11-03T21:03:05Z</time>
      </trkpt>
      <trkpt lat="43.790430" lon="7.561610">
       <ele>20.47</ele>
       <time>2014-11-03T21:03:14Z</time>
      </trkpt>
      <trkpt lat="43.790770" lon="7.561910">
       <ele>21.04</ele>
       <time>2014-11-03T21:03:22Z</time>
      </trkpt>
      <trkpt lat="43.791260" lon="7.562240">
       <ele>21.37</ele>
       <time>2014-11-03T21:03:34Z</time>
      </trkpt>
      <trkpt lat="43.791930" lon="7.562590">
       <ele>22.4</ele>
       <time>2014-11-03T21:03:49Z</time>
      </trkpt>
      <trkpt lat="43.792790" lon="7.563000">
       <ele>25.97</ele>
       <time>2014-11-03T21:04:07Z</time>
      </trkpt>
      <trkpt lat="43.793260" lon="7.563180">
       <ele>26.68</ele>
       <time>2014-11-03T21:04:18Z</time>
      </trkpt>
      <trkpt lat="43.793490" lon="7.563210">
       <ele>25.92</ele>
       <time>2014-11-03T21:04:22Z</time>
      </trkpt>
      <trkpt lat="43.793950" lon="7.563150">
       <ele>25.36</ele>
       <time>2014-11-03T21:04:32Z</time>
      </trkpt>
      <trkpt lat="43.794180" lon="7.563140">
       <ele>24.73</ele>
       <time>2014-11-03T21:04:37Z</time>
      </trkpt>
      <trkpt lat="43.794360" lon="7.563150">
       <ele>24.73</ele>
       <time>2014-11-03T21:04:40Z</time>
      </trkpt>
      <trkpt lat="43.794440" lon="7.563170">
       <ele>24.47</ele>
       <time>2014-11-03T21:04:42Z</time>
      </trkpt>
      <trkpt lat="43.794560" lon="7.563240">
       <ele>23.47</ele>
       <time>2014-11-03T21:04:45Z</time>
      </trkpt>
      <trkpt lat="43.794620" lon="7.563320">
       <ele>22.3</ele>
       <time>2014-11-03T21:04:46Z</time>
      </trkpt>
      <trkpt lat="43.794600" lon="7.563350">
       <ele>21.99</ele>
       <time>2014-11-03T21:04:47Z</time>
      </trkpt>
      <trkpt lat="43.794600" lon="7.563450">
       <ele>21.7</ele>
       <time>2014-11-03T21:04:49Z</time>
      </trkpt>
      <trkpt lat="43.794650" lon="7.563500">
       <ele>21.68</ele>
       <time>2014-11-03T21:04:50Z</time>
      </trkpt>
      <trkpt lat="43.794700" lon="7.563490">
       <ele>21.84</ele>
       <time>2014-11-03T21:04:51Z</time>
      </trkpt>
      <trkpt lat="43.794720" lon="7.563570">
       <ele>21.66</ele>
       <time>2014-11-03T21:04:52Z</time>
      </trkpt>
      <trkpt lat="43.794680" lon="7.563780">
       <ele>20.96</ele>
       <time>2014-11-03T21:04:55Z</time>
      </trkpt>
      <trkpt lat="43.794330" lon="7.564340">
       <ele>21.04</ele>
       <time>2014-11-03T21:05:07Z</time>
      </trkpt>
      <trkpt lat="43.793620" lon="7.565540">
       <ele>27.15</ele>
       <time>2014-11-03T21:05:30Z</time>
      </trkpt>
      <trkpt lat="43.793580" lon="7.565650">
       <ele>27.51</ele>
       <time>2014-11-03T21:05:32Z</time>
      </trkpt>
      <trkpt lat="43.793540" lon="7.565840">
       <ele>28.76</ele>
       <time>2014-11-03T21:05:35Z</time>
      </trkpt>
      <trkpt lat="43.793530" lon="7.566210">
       <ele>30.14</ele>
       <time>2014-11-03T21:05:40Z</time>
      </trkpt>
      <trkpt lat="43.793590" lon="7.567060">
       <ele>33.66</ele>
       <time>2014-11-03T21:05:53Z</time>
      </trkpt>
      <trkpt lat="43.793820" lon="7.569200">
       <ele>35.59</ele>
       <time>2014-11-03T21:06:25Z</time>
      </trkpt>
      <trkpt lat="43.793910" lon="7.569920">
       <ele>32.06</ele>
       <time>2014-11-03T21:06:36Z</time>
      </trkpt>
      <trkpt lat="43.794000" lon="7.570380">
       <ele>29.97</ele>
       <time>2014-11-03T21:06:43Z</time>
      </trkpt>
      <trkpt lat="43.794120" lon="7.570570">
       <ele>29.97</ele>
       <time>2014-11-03T21:06:47Z</time>
      </trkpt>
      <trkpt lat="43.794230" lon="7.570670">
       <ele>31.27</ele>
       <time>2014-11-03T21:06:50Z</time>
      </trkpt>
      <trkpt lat="43.794430" lon="7.570760">
       <ele>34.95</ele>
       <time>2014-11-03T21:06:54Z</time>
      </trkpt>
      <trkpt lat="43.794860" lon="7.570990">
       <ele>40.71</ele>
       <time>2014-11-03T21:07:04Z</time>
      </trkpt>
      <trkpt lat="43.794990" lon="7.571070">
       <ele>42.12</ele>
       <time>2014-11-03T21:07:07Z</time>
      </trkpt>
      <trkpt lat="43.795090" lon="7.571160">
       <ele>42.02</ele>
       <time>2014-11-03T21:07:09Z</time>
      </trkpt>
      <trkpt lat="43.795150" lon="7.571260">
       <ele>41.45</ele>
       <time>2014-11-03T21:07:11Z</time>
      </trkpt>
      <trkpt lat="43.795180" lon="7.571350">
       <ele>40.73</ele>
       <time>2014-11-03T21:07:13Z</time>
      </trkpt>
      <trkpt lat="43.795210" lon="7.571500">
       <ele>39.36</ele>
       <time>2014-11-03T21:07:15Z</time>
      </trkpt>
      <trkpt lat="43.795210" lon="7.571670">
       <ele>37.36</ele>
       <time>2014-11-03T21:07:17Z</time>
      </trkpt>
      <trkpt lat="43.795190" lon="7.571740">
       <ele>37.65</ele>
       <time>2014-11-03T21:07:19Z</time>
      </trkpt>
      <trkpt lat="43.795030" lon="7.571970">
       <ele>36.25</ele>
       <time>2014-11-03T21:07:23Z</time>
      </trkpt>
      <trkpt lat="43.794850" lon="7.572120">
       <ele>34.26</ele>
       <time>2014-11-03T21:07:28Z</time>
      </trkpt>
      <trkpt lat="43.794550" lon="7.572300">
       <ele>30.51</ele>
       <time>2014-11-03T21:07:35Z</time>
      </trkpt>
      <trkpt lat="43.794440" lon="7.572390">
       <ele>29.2</ele>
       <time>2014-11-03T21:07:37Z</time>
      </trkpt>
      <trkpt lat="43.794360" lon="7.572490">
       <ele>28.44</ele>
       <time>2014-11-03T21:07:39Z</time>
      </trkpt>
      <trkpt lat="43.794270" lon="7.572670">
       <ele>27.36</ele>
       <time>2014-11-03T21:07:43Z</time>
      </trkpt>
      <trkpt lat="43.794260" lon="7.572920">
       <ele>27.87</ele>
       <time>2014-11-03T21:07:46Z</time>
      </trkpt>
      <trkpt lat="43.794280" lon="7.573020">
       <ele>28.65</ele>
       <time>2014-11-03T21:07:48Z</time>
      </trkpt>
      <trkpt lat="43.794400" lon="7.573320">
       <ele>32.25</ele>
       <time>2014-11-03T21:07:53Z</time>
      </trkpt>
      <trkpt lat="43.794440" lon="7.573520">
       <ele>35.34</ele>
       <time>2014-11-03T21:07:56Z</time>
      </trkpt>
      <trkpt lat="43.794440" lon="7.573810">
       <ele>38.58</ele>
       <time>2014-11-03T21:08:01Z</time>
      </trkpt>
      <trkpt lat="43.794420" lon="7.574010">
       <ele>40.06</ele>
       <time>2014-11-03T21:08:04Z</time>
      </trkpt>
      <trkpt lat="43.794380" lon="7.574190">
       <ele>40.87</ele>
       <time>2014-11-03T21:08:06Z</time>
      </trkpt>
      <trkpt lat="43.794140" lon="7.574840">
       <ele>41.88</ele>
       <time>2014-11-03T21:08:17Z</time>
      </trkpt>
      <trkpt lat="43.793990" lon="7.575430">
       <ele>44.63</ele>
       <time>2014-11-03T21:08:27Z</time>
      </trkpt>
      <trkpt lat="43.793770" lon="7.576170">
       <ele>43.43</ele>
       <time>2014-11-03T21:08:39Z</time>
      </trkpt>
      <trkpt lat="43.793570" lon="7.576990">
       <ele>41.38</ele>
       <time>2014-11-03T21:08:52Z</time>
      </trkpt>
      <trkpt lat="43.793340" lon="7.578470">
       <ele>48.21</ele>
       <time>2014-11-03T21:09:14Z</time>
      </trkpt>
      <trkpt lat="43.793170" lon="7.578880">
       <ele>43.91</ele>
       <time>2014-11-03T21:09:21Z</time>
      </trkpt>
      <trkpt lat="43.793150" lon="7.578970">
       <ele>43.81</ele>
       <time>2014-11-03T21:09:23Z</time>
      </trkpt>
      <trkpt lat="43.793150" lon="7.579090">
       <ele>44.77</ele>
       <time>2014-11-03T21:09:25Z</time>
      </trkpt>
      <trkpt lat="43.793190" lon="7.579240">
       <ele>47.07</ele>
       <time>2014-11-03T21:09:27Z</time>
      </trkpt>
      <trkpt lat="43.793500" lon="7.579630">
       <ele>59.94</ele>
       <time>2014-11-03T21:09:36Z</time>
      </trkpt>
      <trkpt lat="43.793560" lon="7.579770">
       <ele>62.55</ele>
       <time>2014-11-03T21:09:38Z</time>
      </trkpt>
      <trkpt lat="43.793570" lon="7.579840">
       <ele>63.13</ele>
       <time>2014-11-03T21:09:39Z</time>
      </trkpt>
      <trkpt lat="43.793570" lon="7.580010">
       <ele>63.59</ele>
       <time>2014-11-03T21:09:42Z</time>
      </trkpt>
      <trkpt lat="43.793520" lon="7.580260">
       <ele>65.56</ele>
       <time>2014-11-03T21:09:46Z</time>
      </trkpt>
      <trkpt lat="43.793270" lon="7.581140">
       <ele>65.47</ele>
       <time>2014-11-03T21:10:00Z</time>
      </trkpt>
      <trkpt lat="43.793240" lon="7.581310">
       <ele>65.21</ele>
       <time>2014-11-03T21:10:02Z</time>
      </trkpt>
      <trkpt lat="43.793240" lon="7.581560">
       <ele>67.05</ele>
       <time>2014-11-03T21:10:06Z</time>
      </trkpt>
      <trkpt lat="43.793270" lon="7.581780">
       <ele>69.46</ele>
       <time>2014-11-03T21:10:09Z</time>
      </trkpt>
      <trkpt lat="43.793260" lon="7.582140">
       <ele>68.62</ele>
       <time>2014-11-03T21:10:15Z</time>
      </trkpt>
      <trkpt lat="43.793270" lon="7.582430">
       <ele>69.16</ele>
       <time>2014-11-03T21:10:19Z</time>
      </trkpt>
      <trkpt lat="43.793340" lon="7.582970">
       <ele>73.33</ele>
       <time>2014-11-03T21:10:27Z</time>
      </trkpt>
      <trkpt lat="43.794460" lon="7.588720">
       <ele>179.62</ele>
       <time>2014-11-03T21:11:57Z</time>
      </trkpt>
      <trkpt lat="43.795260" lon="7.592670">
       <ele>109.25</ele>
       <time>2014-11-03T21:12:58Z</time>
      </trkpt>
      <trkpt lat="43.795430" lon="7.593600">
       <ele>69.08</ele>
       <time>2014-11-03T21:13:12Z</time>
      </trkpt>
      <trkpt lat="43.795440" lon="7.593830">
       <ele>62.63</ele>
       <time>2014-11-03T21:13:16Z</time>
      </trkpt>
      <trkpt lat="43.795420" lon="7.594020">
       <ele>58.92</ele>
       <time>2014-11-03T21:13:19Z</time>
      </trkpt>
      <trkpt lat="43.795370" lon="7.594250">
       <ele>56.35</ele>
       <time>2014-11-03T21:13:22Z</time>
      </trkpt>
      <trkpt lat="43.794940" lon="7.595350">
       <ele>47.39</ele>
       <time>2014-11-03T21:13:41Z</time>
      </trkpt>
      <trkpt lat="43.794520" lon="7.596590">
       <ele>41.47</ele>
       <time>2014-11-03T21:14:01Z</time>
      </trkpt>
      <trkpt lat="43.794310" lon="7.597050">
       <ele>41.79</ele>
       <time>2014-11-03T21:14:10Z</time>
      </trkpt>
      <trkpt lat="43.793830" lon="7.598000">
       <ele>39.63</ele>
       <time>2014-11-03T21:14:27Z</time>
      </trkpt>
      <trkpt lat="43.793610" lon="7.598680">
       <ele>35.73</ele>
       <time>2014-11-03T21:14:38Z</time>
      </trkpt>
      <trkpt lat="43.793490" lon="7.599480">
       <ele>30.25</ele>
       <time>2014-11-03T21:14:50Z</time>
      </trkpt>
      <trkpt lat="43.793440" lon="7.600150">
       <ele>25</ele>
       <time>2014-11-03T21:15:00Z</time>
      </trkpt>
      <trkpt lat="43.793340" lon="7.600810">
       <ele>15.37</ele>
       <time>2014-11-03T21:15:10Z</time>
      </trkpt>
      <trkpt lat="43.793230" lon="7.601140">
       <ele>15.87</ele>
       <time>2014-11-03T21:15:16Z</time>
      </trkpt>
      <trkpt lat="43.793100" lon="7.601420">
       <ele>16.11</ele>
       <time>2014-11-03T21:15:21Z</time>
      </trkpt>
      <trkpt lat="43.793070" lon="7.601530">
       <ele>15.36</ele>
       <time>2014-11-03T21:15:23Z</time>
      </trkpt>
      <trkpt lat="43.793070" lon="7.601760">
       <ele>13.3</ele>
       <time>2014-11-03T21:15:26Z</time>
      </trkpt>
      <trkpt lat="43.793230" lon="7.602320">
       <ele>9.74</ele>
       <time>2014-11-03T21:15:35Z</time>
      </trkpt>
      <trkpt lat="43.793230" lon="7.602440">
       <ele>9.42</ele>
       <time>2014-11-03T21:15:37Z</time>
      </trkpt>
      <trkpt lat="43.793200" lon="7.602550">
       <ele>9.15</ele>
       <time>2014-11-03T21:15:39Z</time>
      </trkpt>
      <trkpt lat="43.793150" lon="7.602670">
       <ele>8.87</ele>
       <time>2014-11-03T21:15:41Z</time>
      </trkpt>
      <trkpt lat="43.792760" lon="7.603070">
       <ele>8.8</ele>
       <time>2014-11-03T21:15:51Z</time>
      </trkpt>
      <trkpt lat="43.792620" lon="7.603180">
       <ele>8.96</ele>
       <time>2014-11-03T21:15:54Z</time>
      </trkpt>
      <trkpt lat="43.792250" lon="7.603550">
       <ele>10.74</ele>
       <time>2014-11-03T21:16:04Z</time>
      </trkpt>
      <trkpt lat="43.792140" lon="7.603770">
       <ele>10.38</ele>
       <time>2014-11-03T21:16:08Z</time>
      </trkpt>
      <trkpt lat="43.792720" lon="7.604970">
       <ele>8.23</ele>
       <time>2014-11-03T21:16:29Z</time>
      </trkpt>
      <trkpt lat="43.792770" lon="7.605100">
       <ele>9.07</ele>
       <time>2014-11-03T21:16:31Z</time>
      </trkpt>
      <trkpt lat="43.792780" lon="7.605270">
       <ele>9.87</ele>
       <time>2014-11-03T21:16:34Z</time>
      </trkpt>
      <trkpt lat="43.792820" lon="7.605340">
       <ele>10.33</ele>
       <time>2014-11-03T21:16:35Z</time>
      </trkpt>
      <trkpt lat="43.792820" lon="7.605600">
       <ele>11.41</ele>
       <time>2014-11-03T21:16:39Z</time>
      </trkpt>
      <trkpt lat="43.792460" lon="7.606320">
       <ele>12.47</ele>
       <time>2014-11-03T21:16:52Z</time>
      </trkpt>
      <trkpt lat="43.791950" lon="7.607280">
       <ele>13.74</ele>
       <time>2014-11-03T21:17:10Z</time>
      </trkpt>
      <trkpt lat="43.791960" lon="7.607760">
       <ele>13.78</ele>
       <time>2014-11-03T21:17:17Z</time>
      </trkpt>
      <trkpt lat="43.791940" lon="7.608110">
       <ele>13.52</ele>
       <time>2014-11-03T21:17:23Z</time>
      </trkpt>
      <trkpt lat="43.791950" lon="7.608170">
       <ele>13.45</ele>
       <time>2014-11-03T21:17:24Z</time>
      </trkpt>
      <trkpt lat="43.792000" lon="7.608250">
       <ele>13.28</ele>
       <time>2014-11-03T21:17:25Z</time>
      </trkpt>
      <trkpt lat="43.791730" lon="7.608860">
       <ele>13.9</ele>
       <time>2014-11-03T21:17:36Z</time>
      </trkpt>
      <trkpt lat="43.791230" lon="7.609990">
       <ele>13.52</ele>
       <time>2014-11-03T21:17:56Z</time>
      </trkpt>
      <trkpt lat="43.791000" lon="7.610810">
       <ele>13.41</ele>
       <time>2014-11-03T21:18:09Z</time>
      </trkpt>
      <trkpt lat="43.790610" lon="7.612530">
       <ele>13.24</ele>
       <time>2014-11-03T21:18:36Z</time>
      </trkpt>
      <trkpt lat="43.789700" lon="7.616160">
       <ele>16.9</ele>
       <time>2014-11-03T21:19:33Z</time>
      </trkpt>
      <trkpt lat="43.789670" lon="7.616330">
       <ele>17.45</ele>
       <time>2014-11-03T21:19:36Z</time>
      </trkpt>
      <trkpt lat="43.789120" lon="7.618400">
       <ele>8.25</ele>
       <time>2014-11-03T21:20:09Z</time>
      </trkpt>
      <trkpt lat="43.788710" lon="7.620690">
       <ele>8.64</ele>
       <time>2014-11-03T21:20:44Z</time>
      </trkpt>
      <trkpt lat="43.788680" lon="7.620690">
       <ele>8.68</ele>
       <time>2014-11-03T21:20:45Z</time>
      </trkpt>
      <trkpt lat="43.788640" lon="7.620740">
       <ele>8.7</ele>
       <time>2014-11-03T21:20:46Z</time>
      </trkpt>
      <trkpt lat="43.788650" lon="7.620820">
       <ele>8.63</ele>
       <time>2014-11-03T21:20:47Z</time>
      </trkpt>
      <trkpt lat="43.788680" lon="7.620850">
       <ele>8.57</ele>
       <time>2014-11-03T21:20:48Z</time>
      </trkpt>
      <trkpt lat="43.788710" lon="7.620850">
       <ele>8.54</ele>
       <time>2014-11-03T21:20:49Z</time>
      </trkpt>
      <trkpt lat="43.788720" lon="7.620990">
       <ele>8.44</ele>
       <time>2014-11-03T21:20:51Z</time>
      </trkpt>
      <trkpt lat="43.788710" lon="7.621430">
       <ele>8.16</ele>
       <time>2014-11-03T21:20:57Z</time>
      </trkpt>
      <trkpt lat="43.788730" lon="7.621700">
       <ele>7.98</ele>
       <time>2014-11-03T21:21:01Z</time>
      </trkpt>
      <trkpt lat="43.789110" lon="7.625450">
       <ele>7.93</ele>
       <time>2014-11-03T21:21:58Z</time>
      </trkpt>
      <trkpt lat="43.789280" lon="7.626740">
       <ele>9.1</ele>
       <time>2014-11-03T21:22:18Z</time>
      </trkpt>
      <trkpt lat="43.789390" lon="7.626910">
       <ele>10.23</ele>
       <time>2014-11-03T21:22:21Z</time>
      </trkpt>
      <trkpt lat="43.789720" lon="7.627270">
       <ele>13.78</ele>
       <time>2014-11-03T21:22:30Z</time>
      </trkpt>
      <trkpt lat="43.789780" lon="7.627380">
       <ele>14.51</ele>
       <time>2014-11-03T21:22:32Z</time>
      </trkpt>
      <trkpt lat="43.789830" lon="7.627580">
       <ele>15.18</ele>
       <time>2014-11-03T21:22:35Z</time>
      </trkpt>
      <trkpt lat="43.789820" lon="7.627870">
       <ele>15.17</ele>
       <time>2014-11-03T21:22:39Z</time>
      </trkpt>
      <trkpt lat="43.789770" lon="7.628050">
       <ele>14.68</ele>
       <time>2014-11-03T21:22:42Z</time>
      </trkpt>
      <trkpt lat="43.789550" lon="7.628500">
       <ele>12.23</ele>
       <time>2014-11-03T21:22:50Z</time>
      </trkpt>
      <trkpt lat="43.789510" lon="7.628660">
       <ele>11.48</ele>
       <time>2014-11-03T21:22:53Z</time>
      </trkpt>
      <trkpt lat="43.789500" lon="7.628870">
       <ele>10.92</ele>
       <time>2014-11-03T21:22:56Z</time>
      </trkpt>
      <trkpt lat="43.789470" lon="7.628890">
       <ele>10.7</ele>
       <time>2014-11-03T21:22:57Z</time>
      </trkpt>
      <trkpt lat="43.789460" lon="7.628920">
       <ele>10.57</ele>
       <time>2014-11-03T21:22:57Z</time>
      </trkpt>
      <trkpt lat="43.789460" lon="7.629000">
       <ele>10.4</ele>
       <time>2014-11-03T21:22:58Z</time>
      </trkpt>
      <trkpt lat="43.789500" lon="7.629050">
       <ele>10.49</ele>
       <time>2014-11-03T21:23:00Z</time>
      </trkpt>
      <trkpt lat="43.789700" lon="7.630900">
       <ele>4.54</ele>
       <time>2014-11-03T21:23:28Z</time>
      </trkpt>
      <trkpt lat="43.789680" lon="7.631360">
       <ele>5.79</ele>
       <time>2014-11-03T21:23:35Z</time>
      </trkpt>
      <trkpt lat="43.789650" lon="7.631530">
       <ele>6.23</ele>
       <time>2014-11-03T21:23:37Z</time>
      </trkpt>
      <trkpt lat="43.788840" lon="7.633410">
       <ele>7.96</ele>
       <time>2014-11-03T21:24:10Z</time>
      </trkpt>
      <trkpt lat="43.786940" lon="7.637630">
       <ele>12.28</ele>
       <time>2014-11-03T21:25:24Z</time>
      </trkpt>
      <trkpt lat="43.785920" lon="7.640020">
       <ele>11.02</ele>
       <time>2014-11-03T21:26:06Z</time>
      </trkpt>
      <trkpt lat="43.783710" lon="7.645010">
       <ele>10.01</ele>
       <time>2014-11-03T21:27:34Z</time>
      </trkpt>
      <trkpt lat="43.783440" lon="7.645710">
       <ele>12.12</ele>
       <time>2014-11-03T21:27:45Z</time>
      </trkpt>
      <trkpt lat="43.783290" lon="7.646230">
       <ele>11.44</ele>
       <time>2014-11-03T21:27:54Z</time>
      </trkpt>
      <trkpt lat="43.782800" lon="7.648320">
       <ele>6.32</ele>
       <time>2014-11-03T21:28:27Z</time>
      </trkpt>
      <trkpt lat="43.782690" lon="7.648700">
       <ele>7.19</ele>
       <time>2014-11-03T21:28:33Z</time>
      </trkpt>
      <trkpt lat="43.782630" lon="7.649020">
       <ele>7.77</ele>
       <time>2014-11-03T21:28:38Z</time>
      </trkpt>
      <trkpt lat="43.781930" lon="7.652010">
       <ele>9.87</ele>
       <time>2014-11-03T21:29:25Z</time>
      </trkpt>
      <trkpt lat="43.781760" lon="7.652800">
       <ele>10.53</ele>
       <time>2014-11-03T21:29:37Z</time>
      </trkpt>
      <trkpt lat="43.781300" lon="7.654680">
       <ele>8.23</ele>
       <time>2014-11-03T21:30:07Z</time>
      </trkpt>
      <trkpt lat="43.781060" lon="7.655740">
       <ele>8.35</ele>
       <time>2014-11-03T21:30:24Z</time>
      </trkpt>
      <trkpt lat="43.780750" lon="7.656980">
       <ele>9.31</ele>
       <time>2014-11-03T21:30:43Z</time>
      </trkpt>
      <trkpt lat="43.780530" lon="7.657980">
       <ele>10.16</ele>
       <time>2014-11-03T21:30:59Z</time>
      </trkpt>
      <trkpt lat="43.778910" lon="7.664760">
       <ele>11.22</ele>
       <time>2014-11-03T21:32:46Z</time>
      </trkpt>
      <trkpt lat="43.778700" lon="7.665710">
       <ele>11.38</ele>
       <time>2014-11-03T21:33:01Z</time>
      </trkpt>
      <trkpt lat="43.778470" lon="7.666560">
       <ele>12.04</ele>
       <time>2014-11-03T21:33:14Z</time>
      </trkpt>
      <trkpt lat="43.777700" lon="7.669940">
       <ele>9.4</ele>
       <time>2014-11-03T21:34:07Z</time>
      </trkpt>
      <trkpt lat="43.778010" lon="7.670090">
       <ele>10.31</ele>
       <time>2014-11-03T21:34:14Z</time>
      </trkpt>
      <trkpt lat="43.778230" lon="7.670300">
       <ele>10.84</ele>
       <time>2014-11-03T21:34:20Z</time>
      </trkpt>
      <trkpt lat="43.778480" lon="7.670560">
       <ele>11</ele>
       <time>2014-11-03T21:34:26Z</time>
      </trkpt>
      <trkpt lat="43.778480" lon="7.670740">
       <ele>11.12</ele>
       <time>2014-11-03T21:34:29Z</time>
      </trkpt>
      <trkpt lat="43.778450" lon="7.671120">
       <ele>12.37</ele>
       <time>2014-11-03T21:34:34Z</time>
      </trkpt>
      <trkpt lat="43.778360" lon="7.671520">
       <ele>13.6</ele>
       <time>2014-11-03T21:34:41Z</time>
      </trkpt>
      <trkpt lat="43.778270" lon="7.671730">
       <ele>14.42</ele>
       <time>2014-11-03T21:34:44Z</time>
      </trkpt>
      <trkpt lat="43.777700" lon="7.672880">
       <ele>17.71</ele>
       <time>2014-11-03T21:35:05Z</time>
      </trkpt>
      <trkpt lat="43.777590" lon="7.673160">
       <ele>17.1</ele>
       <time>2014-11-03T21:35:10Z</time>
      </trkpt>
      <trkpt lat="43.777580" lon="7.673450">
       <ele>16.26</ele>
       <time>2014-11-03T21:35:14Z</time>
      </trkpt>
      <trkpt lat="43.777690" lon="7.673740">
       <ele>14.97</ele>
       <time>2014-11-03T21:35:19Z</time>
      </trkpt>
      <trkpt lat="43.777750" lon="7.673830">
       <ele>14.81</ele>
       <time>2014-11-03T21:35:21Z</time>
      </trkpt>
      <trkpt lat="43.777930" lon="7.674000">
       <ele>15.29</ele>
       <time>2014-11-03T21:35:26Z</time>
      </trkpt>
      <trkpt lat="43.778320" lon="7.674310">
       <ele>16.13</ele>
       <time>2014-11-03T21:35:35Z</time>
      </trkpt>
      <trkpt lat="43.778510" lon="7.674440">
       <ele>16.01</ele>
       <time>2014-11-03T21:35:39Z</time>
      </trkpt>
      <trkpt lat="43.779260" lon="7.674540">
       <ele>20.29</ele>
       <time>2014-11-03T21:35:55Z</time>
      </trkpt>
      <trkpt lat="43.779450" lon="7.674590">
       <ele>22.27</ele>
       <time>2014-11-03T21:35:59Z</time>
      </trkpt>
      <trkpt lat="43.779560" lon="7.674640">
       <ele>22.92</ele>
       <time>2014-11-03T21:36:01Z</time>
      </trkpt>
      <trkpt lat="43.780310" lon="7.675180">
       <ele>22.27</ele>
       <time>2014-11-03T21:36:19Z</time>
      </trkpt>
      <trkpt lat="43.780680" lon="7.675410">
       <ele>23.2</ele>
       <time>2014-11-03T21:36:27Z</time>
      </trkpt>
      <trkpt lat="43.780940" lon="7.675670">
       <ele>22.23</ele>
       <time>2014-11-03T21:36:34Z</time>
      </trkpt>
      <trkpt lat="43.781800" lon="7.676680">
       <ele>16.03</ele>
       <time>2014-11-03T21:36:57Z</time>
      </trkpt>
      <trkpt lat="43.781920" lon="7.676770">
       <ele>16.57</ele>
       <time>2014-11-03T21:37:00Z</time>
      </trkpt>
      <trkpt lat="43.782730" lon="7.677000">
       <ele>22.65</ele>
       <time>2014-11-03T21:37:17Z</time>
      </trkpt>
      <trkpt lat="43.783140" lon="7.677140">
       <ele>23.21</ele>
       <time>2014-11-03T21:37:26Z</time>
      </trkpt>
      <trkpt lat="43.783300" lon="7.677280">
       <ele>20.55</ele>
       <time>2014-11-03T21:37:30Z</time>
      </trkpt>
      <trkpt lat="43.783360" lon="7.677360">
       <ele>18.87</ele>
       <time>2014-11-03T21:37:32Z</time>
      </trkpt>
      <trkpt lat="43.784130" lon="7.678850">
       <ele>8.21</ele>
       <time>2014-11-03T21:37:59Z</time>
      </trkpt>
      <trkpt lat="43.784740" lon="7.679990">
       <ele>6.77</ele>
       <time>2014-11-03T21:38:20Z</time>
      </trkpt>
      <trkpt lat="43.784920" lon="7.680420">
       <ele>7.57</ele>
       <time>2014-11-03T21:38:28Z</time>
      </trkpt>
      <trkpt lat="43.785090" lon="7.680910">
       <ele>9.02</ele>
       <time>2014-11-03T21:38:36Z</time>
      </trkpt>
      <trkpt lat="43.785260" lon="7.681520">
       <ele>10.8</ele>
       <time>2014-11-03T21:38:46Z</time>
      </trkpt>
      <trkpt lat="43.785460" lon="7.682400">
       <ele>11.79</ele>
       <time>2014-11-03T21:39:00Z</time>
      </trkpt>
      <trkpt lat="43.785620" lon="7.683240">
       <ele>13.01</ele>
       <time>2014-11-03T21:39:13Z</time>
      </trkpt>
      <trkpt lat="43.785730" lon="7.683630">
       <ele>14.13</ele>
       <time>2014-11-03T21:39:19Z</time>
      </trkpt>
      <trkpt lat="43.785740" lon="7.683720">
       <ele>14.19</ele>
       <time>2014-11-03T21:39:20Z</time>
      </trkpt>
      <trkpt lat="43.786140" lon="7.684800">
       <ele>23</ele>
       <time>2014-11-03T21:39:38Z</time>
      </trkpt>
      <trkpt lat="43.787260" lon="7.687010">
       <ele>33.32</ele>
       <time>2014-11-03T21:40:19Z</time>
      </trkpt>
      <trkpt lat="43.787480" lon="7.687320">
       <ele>28.82</ele>
       <time>2014-11-03T21:40:25Z</time>
      </trkpt>
      <trkpt lat="43.787620" lon="7.687480">
       <ele>27.61</ele>
       <time>2014-11-03T21:40:29Z</time>
      </trkpt>
      <trkpt lat="43.787960" lon="7.687810">
       <ele>29.31</ele>
       <time>2014-11-03T21:40:38Z</time>
      </trkpt>
      <trkpt lat="43.788000" lon="7.687880">
       <ele>28.89</ele>
       <time>2014-11-03T21:40:39Z</time>
      </trkpt>
      <trkpt lat="43.788090" lon="7.687980">
       <ele>29.31</ele>
       <time>2014-11-03T21:40:41Z</time>
      </trkpt>
      <trkpt lat="43.788190" lon="7.688210">
       <ele>27.43</ele>
       <time>2014-11-03T21:40:45Z</time>
      </trkpt>
      <trkpt lat="43.788270" lon="7.688480">
       <ele>26.4</ele>
       <time>2014-11-03T21:40:50Z</time>
      </trkpt>
      <trkpt lat="43.788360" lon="7.689060">
       <ele>25.93</ele>
       <time>2014-11-03T21:40:59Z</time>
      </trkpt>
      <trkpt lat="43.788420" lon="7.689270">
       <ele>26.4</ele>
       <time>2014-11-03T21:41:02Z</time>
      </trkpt>
      <trkpt lat="43.788620" lon="7.689650">
       <ele>28.08</ele>
       <time>2014-11-03T21:41:09Z</time>
      </trkpt>
      <trkpt lat="43.788800" lon="7.689930">
       <ele>29.29</ele>
       <time>2014-11-03T21:41:15Z</time>
      </trkpt>
      <trkpt lat="43.788880" lon="7.690040">
       <ele>29.34</ele>
       <time>2014-11-03T21:41:17Z</time>
      </trkpt>
      <trkpt lat="43.788970" lon="7.690120">
       <ele>29.61</ele>
       <time>2014-11-03T21:41:19Z</time>
      </trkpt>
      <trkpt lat="43.789140" lon="7.690250">
       <ele>29.45</ele>
       <time>2014-11-03T21:41:23Z</time>
      </trkpt>
      <trkpt lat="43.789270" lon="7.690320">
       <ele>31.16</ele>
       <time>2014-11-03T21:41:26Z</time>
      </trkpt>
      <trkpt lat="43.790050" lon="7.690630">
       <ele>42.65</ele>
       <time>2014-11-03T21:41:43Z</time>
      </trkpt>
      <trkpt lat="43.790230" lon="7.690720">
       <ele>42.29</ele>
       <time>2014-11-03T21:41:47Z</time>
      </trkpt>
      <trkpt lat="43.790630" lon="7.690860">
       <ele>45.75</ele>
       <time>2014-11-03T21:41:56Z</time>
      </trkpt>
      <trkpt lat="43.790700" lon="7.690920">
       <ele>46.16</ele>
       <time>2014-11-03T21:41:57Z</time>
      </trkpt>
      <trkpt lat="43.790790" lon="7.691050">
       <ele>45.4</ele>
       <time>2014-11-03T21:42:00Z</time>
      </trkpt>
      <trkpt lat="43.790830" lon="7.691150">
       <ele>43.89</ele>
       <time>2014-11-03T21:42:02Z</time>
      </trkpt>
      <trkpt lat="43.790870" lon="7.691380">
       <ele>39.03</ele>
       <time>2014-11-03T21:42:05Z</time>
      </trkpt>
      <trkpt lat="43.790910" lon="7.691850">
       <ele>31.61</ele>
       <time>2014-11-03T21:42:12Z</time>
      </trkpt>
      <trkpt lat="43.791000" lon="7.692250">
       <ele>30.81</ele>
       <time>2014-11-03T21:42:19Z</time>
      </trkpt>
      <trkpt lat="43.791100" lon="7.692470">
       <ele>31.03</ele>
       <time>2014-11-03T21:42:22Z</time>
      </trkpt>
      <trkpt lat="43.791160" lon="7.692560">
       <ele>31.23</ele>
       <time>2014-11-03T21:42:24Z</time>
      </trkpt>
      <trkpt lat="43.791230" lon="7.692640">
       <ele>31.55</ele>
       <time>2014-11-03T21:42:26Z</time>
      </trkpt>
      <trkpt lat="43.791430" lon="7.692780">
       <ele>33.35</ele>
       <time>2014-11-03T21:42:31Z</time>
      </trkpt>
      <trkpt lat="43.791760" lon="7.692930">
       <ele>34.97</ele>
       <time>2014-11-03T21:42:38Z</time>
      </trkpt>
      <trkpt lat="43.791840" lon="7.692940">
       <ele>34.52</ele>
       <time>2014-11-03T21:42:40Z</time>
      </trkpt>
      <trkpt lat="43.792100" lon="7.692910">
       <ele>34.06</ele>
       <time>2014-11-03T21:42:45Z</time>
      </trkpt>
      <trkpt lat="43.792330" lon="7.692730">
       <ele>37</ele>
       <time>2014-11-03T21:42:51Z</time>
      </trkpt>
      <trkpt lat="43.792520" lon="7.692660">
       <ele>38.64</ele>
       <time>2014-11-03T21:42:55Z</time>
      </trkpt>
      <trkpt lat="43.792670" lon="7.692660">
       <ele>40.97</ele>
       <time>2014-11-03T21:42:58Z</time>
      </trkpt>
      <trkpt lat="43.793160" lon="7.692730">
       <ele>45.71</ele>
       <time>2014-11-03T21:43:08Z</time>
      </trkpt>
      <trkpt lat="43.793380" lon="7.692790">
       <ele>47.8</ele>
       <time>2014-11-03T21:43:13Z</time>
      </trkpt>
      <trkpt lat="43.793490" lon="7.692860">
       <ele>50.05</ele>
       <time>2014-11-03T21:43:15Z</time>
      </trkpt>
      <trkpt lat="43.794050" lon="7.693340">
       <ele>51.78</ele>
       <time>2014-11-03T21:43:29Z</time>
      </trkpt>
      <trkpt lat="43.794570" lon="7.693750">
       <ele>50.68</ele>
       <time>2014-11-03T21:43:41Z</time>
      </trkpt>
      <trkpt lat="43.794680" lon="7.693860">
       <ele>49.43</ele>
       <time>2014-11-03T21:43:44Z</time>
      </trkpt>
      <trkpt lat="43.794840" lon="7.694070">
       <ele>46.02</ele>
       <time>2014-11-03T21:43:49Z</time>
      </trkpt>
      <trkpt lat="43.795020" lon="7.694200">
       <ele>46.03</ele>
       <time>2014-11-03T21:43:53Z</time>
      </trkpt>
      <trkpt lat="43.795150" lon="7.694240">
       <ele>46.54</ele>
       <time>2014-11-03T21:43:56Z</time>
      </trkpt>
      <trkpt lat="43.795580" lon="7.694190">
       <ele>54.72</ele>
       <time>2014-11-03T21:44:04Z</time>
      </trkpt>
      <trkpt lat="43.795740" lon="7.694220">
       <ele>56.26</ele>
       <time>2014-11-03T21:44:08Z</time>
      </trkpt>
      <trkpt lat="43.795850" lon="7.694270">
       <ele>57.02</ele>
       <time>2014-11-03T21:44:10Z</time>
      </trkpt>
      <trkpt lat="43.796320" lon="7.694630">
       <ele>61.36</ele>
       <time>2014-11-03T21:44:21Z</time>
      </trkpt>
      <trkpt lat="43.796800" lon="7.694900">
       <ele>67.79</ele>
       <time>2014-11-03T21:44:32Z</time>
      </trkpt>
      <trkpt lat="43.796960" lon="7.695020">
       <ele>70.73</ele>
       <time>2014-11-03T21:44:36Z</time>
      </trkpt>
      <trkpt lat="43.797620" lon="7.695970">
       <ele>58.51</ele>
       <time>2014-11-03T21:44:56Z</time>
      </trkpt>
      <trkpt lat="43.798020" lon="7.696760">
       <ele>47.29</ele>
       <time>2014-11-03T21:45:10Z</time>
      </trkpt>
      <trkpt lat="43.798080" lon="7.696830">
       <ele>48.53</ele>
       <time>2014-11-03T21:45:12Z</time>
      </trkpt>
      <trkpt lat="43.798300" lon="7.696950">
       <ele>55.48</ele>
       <time>2014-11-03T21:45:17Z</time>
      </trkpt>
      <trkpt lat="43.798440" lon="7.697090">
       <ele>56.68</ele>
       <time>2014-11-03T21:45:20Z</time>
      </trkpt>
      <trkpt lat="43.798540" lon="7.697350">
       <ele>52.9</ele>
       <time>2014-11-03T21:45:25Z</time>
      </trkpt>
      <trkpt lat="43.798580" lon="7.697900">
       <ele>41.61</ele>
       <time>2014-11-03T21:45:33Z</time>
      </trkpt>
      <trkpt lat="43.798650" lon="7.698110">
       <ele>39.19</ele>
       <time>2014-11-03T21:45:36Z</time>
      </trkpt>
      <trkpt lat="43.798690" lon="7.698180">
       <ele>38.95</ele>
       <time>2014-11-03T21:45:38Z</time>
      </trkpt>
      <trkpt lat="43.798830" lon="7.698290">
       <ele>40.75</ele>
       <time>2014-11-03T21:45:41Z</time>
      </trkpt>
      <trkpt lat="43.798980" lon="7.698350">
       <ele>44.02</ele>
       <time>2014-11-03T21:45:44Z</time>
      </trkpt>
      <trkpt lat="43.799330" lon="7.698300">
       <ele>55.1</ele>
       <time>2014-11-03T21:45:52Z</time>
      </trkpt>
      <trkpt lat="43.799450" lon="7.698310">
       <ele>58.03</ele>
       <time>2014-11-03T21:45:54Z</time>
      </trkpt>
      <trkpt lat="43.799570" lon="7.698400">
       <ele>59.34</ele>
       <time>2014-11-03T21:45:57Z</time>
      </trkpt>
      <trkpt lat="43.799640" lon="7.698510">
       <ele>59.38</ele>
       <time>2014-11-03T21:45:59Z</time>
      </trkpt>
      <trkpt lat="43.799680" lon="7.698740">
       <ele>56.57</ele>
       <time>2014-11-03T21:46:03Z</time>
      </trkpt>
      <trkpt lat="43.799780" lon="7.699920">
       <ele>44.79</ele>
       <time>2014-11-03T21:46:20Z</time>
      </trkpt>
      <trkpt lat="43.799850" lon="7.700240">
       <ele>43.71</ele>
       <time>2014-11-03T21:46:25Z</time>
      </trkpt>
      <trkpt lat="43.800130" lon="7.701220">
       <ele>41.29</ele>
       <time>2014-11-03T21:46:41Z</time>
      </trkpt>
      <trkpt lat="43.800170" lon="7.701330">
       <ele>40.93</ele>
       <time>2014-11-03T21:46:43Z</time>
      </trkpt>
      <trkpt lat="43.800230" lon="7.701430">
       <ele>40.98</ele>
       <time>2014-11-03T21:46:45Z</time>
      </trkpt>
      <trkpt lat="43.800670" lon="7.702020">
       <ele>42.71</ele>
       <time>2014-11-03T21:46:58Z</time>
      </trkpt>
      <trkpt lat="43.800790" lon="7.702220">
       <ele>42.72</ele>
       <time>2014-11-03T21:47:02Z</time>
      </trkpt>
      <trkpt lat="43.800830" lon="7.702350">
       <ele>41.92</ele>
       <time>2014-11-03T21:47:04Z</time>
      </trkpt>
      <trkpt lat="43.800830" lon="7.702570">
       <ele>40.11</ele>
       <time>2014-11-03T21:47:07Z</time>
      </trkpt>
      <trkpt lat="43.800600" lon="7.703310">
       <ele>36.04</ele>
       <time>2014-11-03T21:47:19Z</time>
      </trkpt>
      <trkpt lat="43.800520" lon="7.704470">
       <ele>30.63</ele>
       <time>2014-11-03T21:47:36Z</time>
      </trkpt>
      <trkpt lat="43.800520" lon="7.704640">
       <ele>29.63</ele>
       <time>2014-11-03T21:47:39Z</time>
      </trkpt>
      <trkpt lat="43.800540" lon="7.704800">
       <ele>29.17</ele>
       <time>2014-11-03T21:47:41Z</time>
      </trkpt>
      <trkpt lat="43.800580" lon="7.704930">
       <ele>29.33</ele>
       <time>2014-11-03T21:47:44Z</time>
      </trkpt>
      <trkpt lat="43.800630" lon="7.705010">
       <ele>30.01</ele>
       <time>2014-11-03T21:47:45Z</time>
      </trkpt>
      <trkpt lat="43.800960" lon="7.705260">
       <ele>35.55</ele>
       <time>2014-11-03T21:47:53Z</time>
      </trkpt>
      <trkpt lat="43.801070" lon="7.705390">
       <ele>37.08</ele>
       <time>2014-11-03T21:47:56Z</time>
      </trkpt>
      <trkpt lat="43.801190" lon="7.705580">
       <ele>38.44</ele>
       <time>2014-11-03T21:48:00Z</time>
      </trkpt>
      <trkpt lat="43.801240" lon="7.705700">
       <ele>38.76</ele>
       <time>2014-11-03T21:48:02Z</time>
      </trkpt>
      <trkpt lat="43.801240" lon="7.706350">
       <ele>36.14</ele>
       <time>2014-11-03T21:48:11Z</time>
      </trkpt>
      <trkpt lat="43.801320" lon="7.706790">
       <ele>36.93</ele>
       <time>2014-11-03T21:48:18Z</time>
      </trkpt>
      <trkpt lat="43.801320" lon="7.706970">
       <ele>35.99</ele>
       <time>2014-11-03T21:48:21Z</time>
      </trkpt>
      <trkpt lat="43.801220" lon="7.707860">
       <ele>27.24</ele>
       <time>2014-11-03T21:48:34Z</time>
      </trkpt>
      <trkpt lat="43.801370" lon="7.709460">
       <ele>23.32</ele>
       <time>2014-11-03T21:48:59Z</time>
      </trkpt>
      <trkpt lat="43.801450" lon="7.709960">
       <ele>20.23</ele>
       <time>2014-11-03T21:49:06Z</time>
      </trkpt>
      <trkpt lat="43.801620" lon="7.710750">
       <ele>19.51</ele>
       <time>2014-11-03T21:49:19Z</time>
      </trkpt>
      <trkpt lat="43.802120" lon="7.712750">
       <ele>24.88</ele>
       <time>2014-11-03T21:49:50Z</time>
      </trkpt>
      <trkpt lat="43.802230" lon="7.713500">
       <ele>25.42</ele>
       <time>2014-11-03T21:50:02Z</time>
      </trkpt>
      <trkpt lat="43.802310" lon="7.714290">
       <ele>25.37</ele>
       <time>2014-11-03T21:50:14Z</time>
      </trkpt>
      <trkpt lat="43.802320" lon="7.714700">
       <ele>26.3</ele>
       <time>2014-11-03T21:50:20Z</time>
      </trkpt>
      <trkpt lat="43.802250" lon="7.715870">
       <ele>32.59</ele>
       <time>2014-11-03T21:50:37Z</time>
      </trkpt>
      <trkpt lat="43.802170" lon="7.716760">
       <ele>34.43</ele>
       <time>2014-11-03T21:50:51Z</time>
      </trkpt>
      <trkpt lat="43.802160" lon="7.717440">
       <ele>32.46</ele>
       <time>2014-11-03T21:51:01Z</time>
      </trkpt>
      <trkpt lat="43.802130" lon="7.717740">
       <ele>31.83</ele>
       <time>2014-11-03T21:51:05Z</time>
      </trkpt>
      <trkpt lat="43.802110" lon="7.717890">
       <ele>31.5</ele>
       <time>2014-11-03T21:51:08Z</time>
      </trkpt>
      <trkpt lat="43.802040" lon="7.718180">
       <ele>30.75</ele>
       <time>2014-11-03T21:51:12Z</time>
      </trkpt>
      <trkpt lat="43.801760" lon="7.719150">
       <ele>31.2</ele>
       <time>2014-11-03T21:51:28Z</time>
      </trkpt>
      <trkpt lat="43.801370" lon="7.720730">
       <ele>37.11</ele>
       <time>2014-11-03T21:51:53Z</time>
      </trkpt>
      <trkpt lat="43.801240" lon="7.721190">
       <ele>36.63</ele>
       <time>2014-11-03T21:52:00Z</time>
      </trkpt>
      <trkpt lat="43.800990" lon="7.721950">
       <ele>34.32</ele>
       <time>2014-11-03T21:52:13Z</time>
      </trkpt>
      <trkpt lat="43.800840" lon="7.722350">
       <ele>33.71</ele>
       <time>2014-11-03T21:52:20Z</time>
      </trkpt>
      <trkpt lat="43.800490" lon="7.723170">
       <ele>35.59</ele>
       <time>2014-11-03T21:52:34Z</time>
      </trkpt>
      <trkpt lat="43.800340" lon="7.723480">
       <ele>36.23</ele>
       <time>2014-11-03T21:52:39Z</time>
      </trkpt>
      <trkpt lat="43.799610" lon="7.724780">
       <ele>33.27</ele>
       <time>2014-11-03T21:53:04Z</time>
      </trkpt>
      <trkpt lat="43.799310" lon="7.725450">
       <ele>31.95</ele>
       <time>2014-11-03T21:53:16Z</time>
      </trkpt>
      <trkpt lat="43.799170" lon="7.725800">
       <ele>32.71</ele>
       <time>2014-11-03T21:53:22Z</time>
      </trkpt>
      <trkpt lat="43.798640" lon="7.727390">
       <ele>34.85</ele>
       <time>2014-11-03T21:53:48Z</time>
      </trkpt>
      <trkpt lat="43.798300" lon="7.727840">
       <ele>25.96</ele>
       <time>2014-11-03T21:53:58Z</time>
      </trkpt>
      <trkpt lat="43.798200" lon="7.728050">
       <ele>26.54</ele>
       <time>2014-11-03T21:54:02Z</time>
      </trkpt>
      <trkpt lat="43.797550" lon="7.730330">
       <ele>33.61</ele>
       <time>2014-11-03T21:54:38Z</time>
      </trkpt>
      <trkpt lat="43.797320" lon="7.731320">
       <ele>37.39</ele>
       <time>2014-11-03T21:54:54Z</time>
      </trkpt>
      <trkpt lat="43.797000" lon="7.732320">
       <ele>36.66</ele>
       <time>2014-11-03T21:55:10Z</time>
      </trkpt>
      <trkpt lat="43.796820" lon="7.733170">
       <ele>40.87</ele>
       <time>2014-11-03T21:55:23Z</time>
      </trkpt>
      <trkpt lat="43.796520" lon="7.733950">
       <ele>38.83</ele>
       <time>2014-11-03T21:55:37Z</time>
      </trkpt>
      <trkpt lat="43.796380" lon="7.734400">
       <ele>40.58</ele>
       <time>2014-11-03T21:55:44Z</time>
      </trkpt>
      <trkpt lat="43.795990" lon="7.735720">
       <ele>38.59</ele>
       <time>2014-11-03T21:56:05Z</time>
      </trkpt>
      <trkpt lat="43.795950" lon="7.735980">
       <ele>37.71</ele>
       <time>2014-11-03T21:56:09Z</time>
      </trkpt>
      <trkpt lat="43.796000" lon="7.736560">
       <ele>41.56</ele>
       <time>2014-11-03T21:56:18Z</time>
      </trkpt>
      <trkpt lat="43.796030" lon="7.736650">
       <ele>43.37</ele>
       <time>2014-11-03T21:56:20Z</time>
      </trkpt>
      <trkpt lat="43.796070" lon="7.736910">
       <ele>43.19</ele>
       <time>2014-11-03T21:56:24Z</time>
      </trkpt>
      <trkpt lat="43.796150" lon="7.737250">
       <ele>43.59</ele>
       <time>2014-11-03T21:56:29Z</time>
      </trkpt>
      <trkpt lat="43.796310" lon="7.737710">
       <ele>44.65</ele>
       <time>2014-11-03T21:56:37Z</time>
      </trkpt>
      <trkpt lat="43.796600" lon="7.738440">
       <ele>42.17</ele>
       <time>2014-11-03T21:56:49Z</time>
      </trkpt>
      <trkpt lat="43.796800" lon="7.738840">
       <ele>41.52</ele>
       <time>2014-11-03T21:56:56Z</time>
      </trkpt>
      <trkpt lat="43.796900" lon="7.738990">
       <ele>42.1</ele>
       <time>2014-11-03T21:56:59Z</time>
      </trkpt>
      <trkpt lat="43.797350" lon="7.739620">
       <ele>39.96</ele>
       <time>2014-11-03T21:57:13Z</time>
      </trkpt>
      <trkpt lat="43.797600" lon="7.739910">
       <ele>35.5</ele>
       <time>2014-11-03T21:57:19Z</time>
      </trkpt>
      <trkpt lat="43.797980" lon="7.740270">
       <ele>32.32</ele>
       <time>2014-11-03T21:57:29Z</time>
      </trkpt>
      <trkpt lat="43.798540" lon="7.740750">
       <ele>34.78</ele>
       <time>2014-11-03T21:57:43Z</time>
      </trkpt>
      <trkpt lat="43.800310" lon="7.742090">
       <ele>32.63</ele>
       <time>2014-11-03T21:58:24Z</time>
      </trkpt>
      <trkpt lat="43.800440" lon="7.742310">
       <ele>30.69</ele>
       <time>2014-11-03T21:58:29Z</time>
      </trkpt>
      <trkpt lat="43.800700" lon="7.742990">
       <ele>25</ele>
       <time>2014-11-03T21:58:40Z</time>
      </trkpt>
      <trkpt lat="43.800890" lon="7.743320">
       <ele>23.18</ele>
       <time>2014-11-03T21:58:47Z</time>
      </trkpt>
      <trkpt lat="43.801010" lon="7.743470">
       <ele>23.19</ele>
       <time>2014-11-03T21:58:50Z</time>
      </trkpt>
      <trkpt lat="43.801280" lon="7.743720">
       <ele>23.88</ele>
       <time>2014-11-03T21:58:57Z</time>
      </trkpt>
      <trkpt lat="43.802230" lon="7.744400">
       <ele>26.22</ele>
       <time>2014-11-03T21:59:19Z</time>
      </trkpt>
      <trkpt lat="43.802400" lon="7.744630">
       <ele>26.08</ele>
       <time>2014-11-03T21:59:24Z</time>
      </trkpt>
      <trkpt lat="43.802800" lon="7.745450">
       <ele>23.44</ele>
       <time>2014-11-03T21:59:39Z</time>
      </trkpt>
      <trkpt lat="43.803080" lon="7.745850">
       <ele>22.82</ele>
       <time>2014-11-03T21:59:47Z</time>
      </trkpt>
      <trkpt lat="43.803620" lon="7.746230">
       <ele>21.93</ele>
       <time>2014-11-03T21:59:59Z</time>
      </trkpt>
      <trkpt lat="43.804020" lon="7.746630">
       <ele>18.09</ele>
       <time>2014-11-03T22:00:10Z</time>
      </trkpt>
      <trkpt lat="43.804240" lon="7.746740">
       <ele>18.06</ele>
       <time>2014-11-03T22:00:14Z</time>
      </trkpt>
      <trkpt lat="43.804540" lon="7.746850">
       <ele>18.96</ele>
       <time>2014-11-03T22:00:21Z</time>
      </trkpt>
      <trkpt lat="43.804740" lon="7.746980">
       <ele>18.9</ele>
       <time>2014-11-03T22:00:25Z</time>
      </trkpt>
      <trkpt lat="43.804860" lon="7.747100">
       <ele>18.35</ele>
       <time>2014-11-03T22:00:29Z</time>
      </trkpt>
      <trkpt lat="43.805050" lon="7.747480">
       <ele>16.26</ele>
       <time>2014-11-03T22:00:35Z</time>
      </trkpt>
      <trkpt lat="43.805340" lon="7.748310">
       <ele>17.66</ele>
       <time>2014-11-03T22:00:49Z</time>
      </trkpt>
      <trkpt lat="43.805510" lon="7.748640">
       <ele>18.36</ele>
       <time>2014-11-03T22:00:55Z</time>
      </trkpt>
      <trkpt lat="43.806350" lon="7.750120">
       <ele>16.24</ele>
       <time>2014-11-03T22:01:24Z</time>
      </trkpt>
      <trkpt lat="43.806570" lon="7.750540">
       <ele>16.2</ele>
       <time>2014-11-03T22:01:31Z</time>
      </trkpt>
      <trkpt lat="43.807440" lon="7.752060">
       <ele>17.35</ele>
       <time>2014-11-03T22:02:00Z</time>
      </trkpt>
      <trkpt lat="43.807580" lon="7.752360">
       <ele>17.79</ele>
       <time>2014-11-03T22:02:06Z</time>
      </trkpt>
      <trkpt lat="43.808230" lon="7.754050">
       <ele>12.34</ele>
       <time>2014-11-03T22:02:34Z</time>
      </trkpt>
      <trkpt lat="43.809470" lon="7.757120">
       <ele>14.85</ele>
       <time>2014-11-03T22:03:27Z</time>
      </trkpt>
      <trkpt lat="43.809570" lon="7.757400">
       <ele>15.45</ele>
       <time>2014-11-03T22:03:32Z</time>
      </trkpt>
      <trkpt lat="43.809830" lon="7.758450">
       <ele>17.88</ele>
       <time>2014-11-03T22:03:48Z</time>
      </trkpt>
      <trkpt lat="43.810000" lon="7.758980">
       <ele>21.35</ele>
       <time>2014-11-03T22:03:57Z</time>
      </trkpt>
      <trkpt lat="43.810110" lon="7.759240">
       <ele>23.13</ele>
       <time>2014-11-03T22:04:01Z</time>
      </trkpt>
      <trkpt lat="43.810490" lon="7.759970">
       <ele>23.87</ele>
       <time>2014-11-03T22:04:15Z</time>
      </trkpt>
      <trkpt lat="43.810770" lon="7.760630">
       <ele>21.2</ele>
       <time>2014-11-03T22:04:26Z</time>
      </trkpt>
      <trkpt lat="43.810910" lon="7.761020">
       <ele>21.2</ele>
       <time>2014-11-03T22:04:33Z</time>
      </trkpt>
      <trkpt lat="43.811110" lon="7.761890">
       <ele>25.18</ele>
       <time>2014-11-03T22:04:47Z</time>
      </trkpt>
      <trkpt lat="43.811200" lon="7.762700">
       <ele>26.45</ele>
       <time>2014-11-03T22:04:59Z</time>
      </trkpt>
      <trkpt lat="43.811270" lon="7.763710">
       <ele>24.74</ele>
       <time>2014-11-03T22:05:14Z</time>
      </trkpt>
      <trkpt lat="43.811350" lon="7.764180">
       <ele>23.97</ele>
       <time>2014-11-03T22:05:21Z</time>
      </trkpt>
      <trkpt lat="43.811410" lon="7.764400">
       <ele>23.02</ele>
       <time>2014-11-03T22:05:25Z</time>
      </trkpt>
      <trkpt lat="43.811470" lon="7.764600">
       <ele>22.29</ele>
       <time>2014-11-03T22:05:28Z</time>
      </trkpt>
      <trkpt lat="43.812350" lon="7.766640">
       <ele>17.71</ele>
       <time>2014-11-03T22:06:04Z</time>
      </trkpt>
      <trkpt lat="43.813820" lon="7.769840">
       <ele>13.01</ele>
       <time>2014-11-03T22:07:00Z</time>
      </trkpt>
      <trkpt lat="43.813860" lon="7.769980">
       <ele>12.5</ele>
       <time>2014-11-03T22:07:03Z</time>
      </trkpt>
      <trkpt lat="43.813870" lon="7.770180">
       <ele>11.51</ele>
       <time>2014-11-03T22:07:06Z</time>
      </trkpt>
      <trkpt lat="43.813920" lon="7.770420">
       <ele>10.81</ele>
       <time>2014-11-03T22:07:09Z</time>
      </trkpt>
      <trkpt lat="43.814120" lon="7.771110">
       <ele>9.94</ele>
       <time>2014-11-03T22:07:20Z</time>
      </trkpt>
      <trkpt lat="43.814210" lon="7.771500">
       <ele>10.21</ele>
       <time>2014-11-03T22:07:27Z</time>
      </trkpt>
      <trkpt lat="43.814290" lon="7.772310">
       <ele>12.36</ele>
       <time>2014-11-03T22:07:39Z</time>
      </trkpt>
      <trkpt lat="43.814440" lon="7.773020">
       <ele>13.8</ele>
       <time>2014-11-03T22:07:50Z</time>
      </trkpt>
      <trkpt lat="43.814540" lon="7.773260">
       <ele>14.62</ele>
       <time>2014-11-03T22:07:54Z</time>
      </trkpt>
      <trkpt lat="43.814810" lon="7.773790">
       <ele>16.1</ele>
       <time>2014-11-03T22:08:04Z</time>
      </trkpt>
      <trkpt lat="43.815300" lon="7.774850">
       <ele>17.94</ele>
       <time>2014-11-03T22:08:23Z</time>
      </trkpt>
      <trkpt lat="43.815930" lon="7.776100">
       <ele>16.98</ele>
       <time>2014-11-03T22:08:45Z</time>
      </trkpt>
      <trkpt lat="43.816910" lon="7.778160">
       <ele>17.17</ele>
       <time>2014-11-03T22:09:22Z</time>
      </trkpt>
      <trkpt lat="43.817280" lon="7.778870">
       <ele>14.68</ele>
       <time>2014-11-03T22:09:35Z</time>
      </trkpt>
      <trkpt lat="43.817550" lon="7.779430">
       <ele>13.35</ele>
       <time>2014-11-03T22:09:45Z</time>
      </trkpt>
      <trkpt lat="43.817580" lon="7.779500">
       <ele>13.55</ele>
       <time>2014-11-03T22:09:47Z</time>
      </trkpt>
      <trkpt lat="43.817590" lon="7.779640">
       <ele>13.58</ele>
       <time>2014-11-03T22:09:49Z</time>
      </trkpt>
      <trkpt lat="43.817710" lon="7.779910">
       <ele>14.29</ele>
       <time>2014-11-03T22:09:53Z</time>
      </trkpt>
      <trkpt lat="43.818200" lon="7.780390">
       <ele>16.18</ele>
       <time>2014-11-03T22:10:06Z</time>
      </trkpt>
      <trkpt lat="43.818260" lon="7.780390">
       <ele>16.58</ele>
       <time>2014-11-03T22:10:07Z</time>
      </trkpt>
      <trkpt lat="43.818670" lon="7.780940">
       <ele>17.07</ele>
       <time>2014-11-03T22:10:19Z</time>
      </trkpt>
      <trkpt lat="43.819110" lon="7.781690">
       <ele>16.46</ele>
       <time>2014-11-03T22:10:33Z</time>
      </trkpt>
      <trkpt lat="43.819360" lon="7.782270">
       <ele>15.1</ele>
       <time>2014-11-03T22:10:44Z</time>
      </trkpt>
      <trkpt lat="43.819690" lon="7.783430">
       <ele>14.33</ele>
       <time>2014-11-03T22:11:02Z</time>
      </trkpt>
      <trkpt lat="43.820560" lon="7.783000">
       <ele>20.76</ele>
       <time>2014-11-03T22:11:21Z</time>
      </trkpt>
      <trkpt lat="43.820890" lon="7.782800">
       <ele>22.17</ele>
       <time>2014-11-03T22:11:29Z</time>
      </trkpt>
      <trkpt lat="43.820940" lon="7.782850">
       <ele>22.32</ele>
       <time>2014-11-03T22:11:30Z</time>
      </trkpt>
      <trkpt lat="43.820990" lon="7.782840">
       <ele>22.49</ele>
       <time>2014-11-03T22:11:31Z</time>
      </trkpt>
      <trkpt lat="43.821050" lon="7.783370">
       <ele>22.37</ele>
       <time>2014-11-03T22:11:39Z</time>
      </trkpt>
      <trkpt lat="43.821170" lon="7.784890">
       <ele>19.24</ele>
       <time>2014-11-03T22:12:02Z</time>
      </trkpt>
      <trkpt lat="43.821280" lon="7.785540">
       <ele>20.06</ele>
       <time>2014-11-03T22:12:12Z</time>
      </trkpt>
      <trkpt lat="43.821330" lon="7.785700">
       <ele>20.62</ele>
       <time>2014-11-03T22:12:15Z</time>
      </trkpt>
      <trkpt lat="43.821470" lon="7.786390">
       <ele>22.1</ele>
       <time>2014-11-03T22:12:25Z</time>
      </trkpt>
      <trkpt lat="43.821620" lon="7.787470">
       <ele>21.53</ele>
       <time>2014-11-03T22:12:42Z</time>
      </trkpt>
      <trkpt lat="43.821580" lon="7.788890">
       <ele>20.05</ele>
       <time>2014-11-03T22:13:03Z</time>
      </trkpt>
      <trkpt lat="43.821520" lon="7.789830">
       <ele>18.5</ele>
       <time>2014-11-03T22:13:17Z</time>
      </trkpt>
      <trkpt lat="43.821440" lon="7.790600">
       <ele>17.49</ele>
       <time>2014-11-03T22:13:29Z</time>
      </trkpt>
      <trkpt lat="43.821430" lon="7.791350">
       <ele>19.13</ele>
       <time>2014-11-03T22:13:40Z</time>
      </trkpt>
      <trkpt lat="43.821390" lon="7.791990">
       <ele>20.05</ele>
       <time>2014-11-03T22:13:50Z</time>
      </trkpt>
      <trkpt lat="43.821400" lon="7.792250">
       <ele>20.5</ele>
       <time>2014-11-03T22:13:54Z</time>
      </trkpt>
      <trkpt lat="43.821500" lon="7.792730">
       <ele>21.6</ele>
       <time>2014-11-03T22:14:01Z</time>
      </trkpt>
      <trkpt lat="43.821690" lon="7.793380">
       <ele>22.13</ele>
       <time>2014-11-03T22:14:12Z</time>
      </trkpt>
      <trkpt lat="43.821850" lon="7.794140">
       <ele>20.45</ele>
       <time>2014-11-03T22:14:23Z</time>
      </trkpt>
      <trkpt lat="43.821910" lon="7.795170">
       <ele>16.18</ele>
       <time>2014-11-03T22:14:39Z</time>
      </trkpt>
      <trkpt lat="43.821940" lon="7.795320">
       <ele>16.13</ele>
       <time>2014-11-03T22:14:41Z</time>
      </trkpt>
      <trkpt lat="43.822110" lon="7.797050">
       <ele>18.57</ele>
       <time>2014-11-03T22:15:07Z</time>
      </trkpt>
      <trkpt lat="43.822360" lon="7.798120">
       <ele>16.9</ele>
       <time>2014-11-03T22:15:24Z</time>
      </trkpt>
      <trkpt lat="43.822900" lon="7.799380">
       <ele>19.84</ele>
       <time>2014-11-03T22:15:46Z</time>
      </trkpt>
      <trkpt lat="43.823100" lon="7.799760">
       <ele>19.67</ele>
       <time>2014-11-03T22:15:53Z</time>
      </trkpt>
      <trkpt lat="43.823260" lon="7.800170">
       <ele>18.21</ele>
       <time>2014-11-03T22:16:00Z</time>
      </trkpt>
      <trkpt lat="43.823380" lon="7.800610">
       <ele>16.06</ele>
       <time>2014-11-03T22:16:07Z</time>
      </trkpt>
      <trkpt lat="43.823410" lon="7.800800">
       <ele>14.82</ele>
       <time>2014-11-03T22:16:10Z</time>
      </trkpt>
      <trkpt lat="43.823420" lon="7.801000">
       <ele>14.26</ele>
       <time>2014-11-03T22:16:13Z</time>
      </trkpt>
      <trkpt lat="43.823380" lon="7.802000">
       <ele>13.17</ele>
       <time>2014-11-03T22:16:28Z</time>
      </trkpt>
      <trkpt lat="43.823310" lon="7.802340">
       <ele>13.42</ele>
       <time>2014-11-03T22:16:33Z</time>
      </trkpt>
      <trkpt lat="43.823290" lon="7.802620">
       <ele>13.59</ele>
       <time>2014-11-03T22:16:37Z</time>
      </trkpt>
      <trkpt lat="43.823290" lon="7.802940">
       <ele>13.57</ele>
       <time>2014-11-03T22:16:42Z</time>
      </trkpt>
      <trkpt lat="43.823360" lon="7.803450">
       <ele>14.21</ele>
       <time>2014-11-03T22:16:50Z</time>
      </trkpt>
      <trkpt lat="43.823510" lon="7.804260">
       <ele>16.69</ele>
       <time>2014-11-03T22:17:03Z</time>
      </trkpt>
      <trkpt lat="43.823580" lon="7.805590">
       <ele>17.35</ele>
       <time>2014-11-03T22:17:23Z</time>
      </trkpt>
      <trkpt lat="43.823560" lon="7.805950">
       <ele>15.7</ele>
       <time>2014-11-03T22:17:28Z</time>
      </trkpt>
      <trkpt lat="43.823250" lon="7.808860">
       <ele>16.95</ele>
       <time>2014-11-03T22:18:12Z</time>
      </trkpt>
      <trkpt lat="43.823110" lon="7.810370">
       <ele>18.24</ele>
       <time>2014-11-03T22:18:35Z</time>
      </trkpt>
      <trkpt lat="43.822850" lon="7.812620">
       <ele>17.35</ele>
       <time>2014-11-03T22:19:09Z</time>
      </trkpt>
      <trkpt lat="43.822650" lon="7.814030">
       <ele>17.71</ele>
       <time>2014-11-03T22:19:30Z</time>
      </trkpt>
      <trkpt lat="43.822580" lon="7.814420">
       <ele>19.82</ele>
       <time>2014-11-03T22:19:36Z</time>
      </trkpt>
      <trkpt lat="43.822150" lon="7.816110">
       <ele>20.76</ele>
       <time>2014-11-03T22:20:03Z</time>
      </trkpt>
      <trkpt lat="43.821910" lon="7.816940">
       <ele>19.04</ele>
       <time>2014-11-03T22:20:16Z</time>
      </trkpt>
      <trkpt lat="43.821640" lon="7.817760">
       <ele>22.58</ele>
       <time>2014-11-03T22:20:30Z</time>
      </trkpt>
      <trkpt lat="43.821400" lon="7.818240">
       <ele>25.37</ele>
       <time>2014-11-03T22:20:39Z</time>
      </trkpt>
      <trkpt lat="43.821280" lon="7.818400">
       <ele>24</ele>
       <time>2014-11-03T22:20:42Z</time>
      </trkpt>
      <trkpt lat="43.821110" lon="7.818580">
       <ele>21.02</ele>
       <time>2014-11-03T22:20:47Z</time>
      </trkpt>
      <trkpt lat="43.820940" lon="7.818810">
       <ele>18.69</ele>
       <time>2014-11-03T22:20:51Z</time>
      </trkpt>
      <trkpt lat="43.820820" lon="7.819100">
       <ele>19.51</ele>
       <time>2014-11-03T22:20:56Z</time>
      </trkpt>
      <trkpt lat="43.820690" lon="7.819720">
       <ele>23.46</ele>
       <time>2014-11-03T22:21:06Z</time>
      </trkpt>
      <trkpt lat="43.820670" lon="7.820080">
       <ele>26.26</ele>
       <time>2014-11-03T22:21:12Z</time>
      </trkpt>
      <trkpt lat="43.820610" lon="7.820370">
       <ele>26.07</ele>
       <time>2014-11-03T22:21:16Z</time>
      </trkpt>
      <trkpt lat="43.820440" lon="7.820900">
       <ele>23.25</ele>
       <time>2014-11-03T22:21:25Z</time>
      </trkpt>
      <trkpt lat="43.820170" lon="7.822090">
       <ele>23.89</ele>
       <time>2014-11-03T22:21:43Z</time>
      </trkpt>
      <trkpt lat="43.820020" lon="7.822590">
       <ele>23.89</ele>
       <time>2014-11-03T22:21:52Z</time>
      </trkpt>
      <trkpt lat="43.819810" lon="7.823130">
       <ele>22.93</ele>
       <time>2014-11-03T22:22:01Z</time>
      </trkpt>
      <trkpt lat="43.818870" lon="7.824760">
       <ele>22.92</ele>
       <time>2014-11-03T22:22:32Z</time>
      </trkpt>
      <trkpt lat="43.818590" lon="7.825680">
       <ele>22.62</ele>
       <time>2014-11-03T22:22:47Z</time>
      </trkpt>
      <trkpt lat="43.818090" lon="7.826970">
       <ele>26.27</ele>
       <time>2014-11-03T22:23:09Z</time>
      </trkpt>
      <trkpt lat="43.817750" lon="7.827500">
       <ele>25.87</ele>
       <time>2014-11-03T22:23:19Z</time>
      </trkpt>
      <trkpt lat="43.817460" lon="7.828010">
       <ele>25.3</ele>
       <time>2014-11-03T22:23:29Z</time>
      </trkpt>
      <trkpt lat="43.817090" lon="7.828860">
       <ele>25.52</ele>
       <time>2014-11-03T22:23:44Z</time>
      </trkpt>
      <trkpt lat="43.816870" lon="7.829550">
       <ele>23.75</ele>
       <time>2014-11-03T22:23:55Z</time>
      </trkpt>
      <trkpt lat="43.816720" lon="7.830220">
       <ele>21.48</ele>
       <time>2014-11-03T22:24:06Z</time>
      </trkpt>
      <trkpt lat="43.816660" lon="7.830860">
       <ele>18.81</ele>
       <time>2014-11-03T22:24:15Z</time>
      </trkpt>
      <trkpt lat="43.816660" lon="7.830980">
       <ele>18.38</ele>
       <time>2014-11-03T22:24:17Z</time>
      </trkpt>
      <trkpt lat="43.816690" lon="7.831100">
       <ele>18.7</ele>
       <time>2014-11-03T22:24:19Z</time>
      </trkpt>
      <trkpt lat="43.816750" lon="7.831290">
       <ele>19.91</ele>
       <time>2014-11-03T22:24:22Z</time>
      </trkpt>
      <trkpt lat="43.817050" lon="7.831930">
       <ele>26.29</ele>
       <time>2014-11-03T22:24:34Z</time>
      </trkpt>
      <trkpt lat="43.817150" lon="7.832280">
       <ele>26.27</ele>
       <time>2014-11-03T22:24:39Z</time>
      </trkpt>
      <trkpt lat="43.817360" lon="7.832830">
       <ele>25.78</ele>
       <time>2014-11-03T22:24:49Z</time>
      </trkpt>
      <trkpt lat="43.817640" lon="7.833420">
       <ele>24.66</ele>
       <time>2014-11-03T22:24:59Z</time>
      </trkpt>
      <trkpt lat="43.817750" lon="7.833740">
       <ele>22.97</ele>
       <time>2014-11-03T22:25:04Z</time>
      </trkpt>
      <trkpt lat="43.817870" lon="7.833970">
       <ele>22.22</ele>
       <time>2014-11-03T22:25:09Z</time>
      </trkpt>
      <trkpt lat="43.818170" lon="7.834410">
       <ele>21.09</ele>
       <time>2014-11-03T22:25:18Z</time>
      </trkpt>
      <trkpt lat="43.818510" lon="7.834820">
       <ele>19.32</ele>
       <time>2014-11-03T22:25:27Z</time>
      </trkpt>
      <trkpt lat="43.818720" lon="7.835040">
       <ele>17.64</ele>
       <time>2014-11-03T22:25:32Z</time>
      </trkpt>
      <trkpt lat="43.818940" lon="7.835240">
       <ele>17.17</ele>
       <time>2014-11-03T22:25:38Z</time>
      </trkpt>
      <trkpt lat="43.819270" lon="7.835460">
       <ele>16.68</ele>
       <time>2014-11-03T22:25:46Z</time>
      </trkpt>
      <trkpt lat="43.819460" lon="7.835540">
       <ele>16.06</ele>
       <time>2014-11-03T22:25:50Z</time>
      </trkpt>
      <trkpt lat="43.819470" lon="7.835680">
       <ele>14</ele>
       <time>2014-11-03T22:25:52Z</time>
      </trkpt>
      <trkpt lat="43.819520" lon="7.835750">
       <ele>13.09</ele>
       <time>2014-11-03T22:25:53Z</time>
      </trkpt>
      <trkpt lat="43.819560" lon="7.835770">
       <ele>12.89</ele>
       <time>2014-11-03T22:25:54Z</time>
      </trkpt>
      <trkpt lat="43.819610" lon="7.835770">
       <ele>13.02</ele>
       <time>2014-11-03T22:25:55Z</time>
      </trkpt>
      <trkpt lat="43.819650" lon="7.835750">
       <ele>13.41</ele>
       <time>2014-11-03T22:25:56Z</time>
      </trkpt>
      <trkpt lat="43.819680" lon="7.835710">
       <ele>14.1</ele>
       <time>2014-11-03T22:25:57Z</time>
      </trkpt>
      <trkpt lat="43.820480" lon="7.836890">
       <ele>8.51</ele>
       <time>2014-11-03T22:26:21Z</time>
      </trkpt>
      <trkpt lat="43.820650" lon="7.837220">
       <ele>8.96</ele>
       <time>2014-11-03T22:26:27Z</time>
      </trkpt>
      <trkpt lat="43.820850" lon="7.837530">
       <ele>10</ele>
       <time>2014-11-03T22:26:33Z</time>
      </trkpt>
      <trkpt lat="43.820900" lon="7.837620">
       <ele>10.06</ele>
       <time>2014-11-03T22:26:35Z</time>
      </trkpt>
      <trkpt lat="43.821180" lon="7.838290">
       <ele>12.37</ele>
       <time>2014-11-03T22:26:47Z</time>
      </trkpt>
      <trkpt lat="43.821260" lon="7.838520">
       <ele>13.18</ele>
       <time>2014-11-03T22:26:51Z</time>
      </trkpt>
      <trkpt lat="43.821370" lon="7.838710">
       <ele>14.33</ele>
       <time>2014-11-03T22:26:54Z</time>
      </trkpt>
      <trkpt lat="43.821430" lon="7.838770">
       <ele>15.04</ele>
       <time>2014-11-03T22:26:56Z</time>
      </trkpt>
      <trkpt lat="43.821530" lon="7.838920">
       <ele>15.98</ele>
       <time>2014-11-03T22:26:59Z</time>
      </trkpt>
      <trkpt lat="43.821740" lon="7.839150">
       <ele>18.54</ele>
       <time>2014-11-03T22:27:04Z</time>
      </trkpt>
      <trkpt lat="43.822230" lon="7.839540">
       <ele>23.36</ele>
       <time>2014-11-03T22:27:16Z</time>
      </trkpt>
      <trkpt lat="43.822530" lon="7.839710">
       <ele>23.22</ele>
       <time>2014-11-03T22:27:23Z</time>
      </trkpt>
      <trkpt lat="43.823040" lon="7.839930">
       <ele>23.77</ele>
       <time>2014-11-03T22:27:34Z</time>
      </trkpt>
      <trkpt lat="43.823400" lon="7.840040">
       <ele>24.31</ele>
       <time>2014-11-03T22:27:41Z</time>
      </trkpt>
      <trkpt lat="43.823630" lon="7.840070">
       <ele>23.74</ele>
       <time>2014-11-03T22:27:46Z</time>
      </trkpt>
      <trkpt lat="43.823870" lon="7.840060">
       <ele>23.85</ele>
       <time>2014-11-03T22:27:51Z</time>
      </trkpt>
      <trkpt lat="43.824310" lon="7.840000">
       <ele>24.48</ele>
       <time>2014-11-03T22:28:00Z</time>
      </trkpt>
      <trkpt lat="43.824580" lon="7.840030">
       <ele>23</ele>
       <time>2014-11-03T22:28:06Z</time>
      </trkpt>
      <trkpt lat="43.824780" lon="7.840080">
       <ele>21.59</ele>
       <time>2014-11-03T22:28:10Z</time>
      </trkpt>
      <trkpt lat="43.824960" lon="7.840170">
       <ele>19.85</ele>
       <time>2014-11-03T22:28:14Z</time>
      </trkpt>
      <trkpt lat="43.825760" lon="7.840700">
       <ele>17.65</ele>
       <time>2014-11-03T22:28:33Z</time>
      </trkpt>
      <trkpt lat="43.826460" lon="7.841280">
       <ele>20.32</ele>
       <time>2014-11-03T22:28:49Z</time>
      </trkpt>
      <trkpt lat="43.826930" lon="7.841860">
       <ele>24.05</ele>
       <time>2014-11-03T22:29:03Z</time>
      </trkpt>
      <trkpt lat="43.827120" lon="7.842140">
       <ele>27.08</ele>
       <time>2014-11-03T22:29:08Z</time>
      </trkpt>
      <trkpt lat="43.827620" lon="7.843060">
       <ele>29.73</ele>
       <time>2014-11-03T22:29:26Z</time>
      </trkpt>
      <trkpt lat="43.828020" lon="7.843870">
       <ele>29.03</ele>
       <time>2014-11-03T22:29:40Z</time>
      </trkpt>
      <trkpt lat="43.828690" lon="7.845090">
       <ele>27.94</ele>
       <time>2014-11-03T22:30:03Z</time>
      </trkpt>
      <trkpt lat="43.828870" lon="7.845370">
       <ele>29.04</ele>
       <time>2014-11-03T22:30:09Z</time>
      </trkpt>
      <trkpt lat="43.829100" lon="7.845650">
       <ele>30.03</ele>
       <time>2014-11-03T22:30:15Z</time>
      </trkpt>
      <trkpt lat="43.829320" lon="7.845880">
       <ele>29.56</ele>
       <time>2014-11-03T22:30:21Z</time>
      </trkpt>
      <trkpt lat="43.829480" lon="7.846000">
       <ele>30.7</ele>
       <time>2014-11-03T22:30:25Z</time>
      </trkpt>
      <trkpt lat="43.829980" lon="7.846590">
       <ele>34.97</ele>
       <time>2014-11-03T22:30:38Z</time>
      </trkpt>
      <trkpt lat="43.830560" lon="7.847240">
       <ele>27.04</ele>
       <time>2014-11-03T22:30:54Z</time>
      </trkpt>
      <trkpt lat="43.830980" lon="7.847590">
       <ele>23.34</ele>
       <time>2014-11-03T22:31:04Z</time>
      </trkpt>
      <trkpt lat="43.831810" lon="7.848240">
       <ele>20.74</ele>
       <time>2014-11-03T22:31:24Z</time>
      </trkpt>
      <trkpt lat="43.832010" lon="7.848380">
       <ele>19.64</ele>
       <time>2014-11-03T22:31:28Z</time>
      </trkpt>
      <trkpt lat="43.833400" lon="7.849220">
       <ele>18.4</ele>
       <time>2014-11-03T22:32:00Z</time>
      </trkpt>
      <trkpt lat="43.833890" lon="7.849590">
       <ele>20.14</ele>
       <time>2014-11-03T22:32:11Z</time>
      </trkpt>
      <trkpt lat="43.834560" lon="7.850310">
       <ele>19.03</ele>
       <time>2014-11-03T22:32:29Z</time>
      </trkpt>
      <trkpt lat="43.834920" lon="7.850790">
       <ele>18.05</ele>
       <time>2014-11-03T22:32:39Z</time>
      </trkpt>
      <trkpt lat="43.835210" lon="7.851130">
       <ele>16.06</ele>
       <time>2014-11-03T22:32:47Z</time>
      </trkpt>
      <trkpt lat="43.835360" lon="7.851350">
       <ele>15.19</ele>
       <time>2014-11-03T22:32:52Z</time>
      </trkpt>
      <trkpt lat="43.835460" lon="7.851540">
       <ele>14.7</ele>
       <time>2014-11-03T22:32:55Z</time>
      </trkpt>
      <trkpt lat="43.835540" lon="7.851770">
       <ele>14.43</ele>
       <time>2014-11-03T22:32:59Z</time>
      </trkpt>
      <trkpt lat="43.835550" lon="7.851850">
       <ele>14.34</ele>
       <time>2014-11-03T22:33:00Z</time>
      </trkpt>
      <trkpt lat="43.835580" lon="7.851880">
       <ele>14.44</ele>
       <time>2014-11-03T22:33:01Z</time>
      </trkpt>
      <trkpt lat="43.835580" lon="7.852420">
       <ele>13.6</ele>
       <time>2014-11-03T22:33:09Z</time>
      </trkpt>
      <trkpt lat="43.835550" lon="7.852770">
       <ele>12.76</ele>
       <time>2014-11-03T22:33:14Z</time>
      </trkpt>
      <trkpt lat="43.835400" lon="7.853360">
       <ele>11.53</ele>
       <time>2014-11-03T22:33:24Z</time>
      </trkpt>
      <trkpt lat="43.835100" lon="7.854220">
       <ele>13.78</ele>
       <time>2014-11-03T22:33:38Z</time>
      </trkpt>
      <trkpt lat="43.835060" lon="7.854390">
       <ele>13.89</ele>
       <time>2014-11-03T22:33:41Z</time>
      </trkpt>
      <trkpt lat="43.835050" lon="7.854530">
       <ele>13.93</ele>
       <time>2014-11-03T22:33:43Z</time>
      </trkpt>
      <trkpt lat="43.835000" lon="7.854580">
       <ele>14</ele>
       <time>2014-11-03T22:33:44Z</time>
      </trkpt>
      <trkpt lat="43.834960" lon="7.854650">
       <ele>14.01</ele>
       <time>2014-11-03T22:33:45Z</time>
      </trkpt>
      <trkpt lat="43.834940" lon="7.854720">
       <ele>14</ele>
       <time>2014-11-03T22:33:46Z</time>
      </trkpt>
      <trkpt lat="43.834940" lon="7.854840">
       <ele>13.97</ele>
       <time>2014-11-03T22:33:48Z</time>
      </trkpt>
      <trkpt lat="43.835010" lon="7.855010">
       <ele>13.98</ele>
       <time>2014-11-03T22:33:51Z</time>
      </trkpt>
      <trkpt lat="43.835090" lon="7.855060">
       <ele>13.88</ele>
       <time>2014-11-03T22:33:53Z</time>
      </trkpt>
      <trkpt lat="43.835240" lon="7.855690">
       <ele>13.06</ele>
       <time>2014-11-03T22:34:03Z</time>
      </trkpt>
      <trkpt lat="43.835920" lon="7.860170">
       <ele>5.08</ele>
       <time>2014-11-03T22:35:11Z</time>
      </trkpt>
      <trkpt lat="43.836190" lon="7.861640">
       <ele>5.41</ele>
       <time>2014-11-03T22:35:34Z</time>
      </trkpt>
      <trkpt lat="43.836470" lon="7.863390">
       <ele>5</ele>
       <time>2014-11-03T22:36:01Z</time>
      </trkpt>
      <trkpt lat="43.836650" lon="7.864650">
       <ele>5</ele>
       <time>2014-11-03T22:36:20Z</time>
      </trkpt>
      <trkpt lat="43.836660" lon="7.865110">
       <ele>5.52</ele>
       <time>2014-11-03T22:36:27Z</time>
      </trkpt>
      <trkpt lat="43.836590" lon="7.865540">
       <ele>7.35</ele>
       <time>2014-11-03T22:36:34Z</time>
      </trkpt>
      <trkpt lat="43.836490" lon="7.865840">
       <ele>8.22</ele>
       <time>2014-11-03T22:36:38Z</time>
      </trkpt>
      <trkpt lat="43.836390" lon="7.866050">
       <ele>9.59</ele>
       <time>2014-11-03T22:36:42Z</time>
      </trkpt>
      <trkpt lat="43.836170" lon="7.866360">
       <ele>9.93</ele>
       <time>2014-11-03T22:36:49Z</time>
      </trkpt>
      <trkpt lat="43.836030" lon="7.866500">
       <ele>9.04</ele>
       <time>2014-11-03T22:36:52Z</time>
      </trkpt>
      <trkpt lat="43.835650" lon="7.866810">
       <ele>7.1</ele>
       <time>2014-11-03T22:37:01Z</time>
      </trkpt>
      <trkpt lat="43.835510" lon="7.866950">
       <ele>7.06</ele>
       <time>2014-11-03T22:37:05Z</time>
      </trkpt>
      <trkpt lat="43.835410" lon="7.867110">
       <ele>7.04</ele>
       <time>2014-11-03T22:37:08Z</time>
      </trkpt>
      <trkpt lat="43.835330" lon="7.867360">
       <ele>7.12</ele>
       <time>2014-11-03T22:37:12Z</time>
      </trkpt>
      <trkpt lat="43.835310" lon="7.867520">
       <ele>7.22</ele>
       <time>2014-11-03T22:37:15Z</time>
      </trkpt>
      <trkpt lat="43.835320" lon="7.867790">
       <ele>6.87</ele>
       <time>2014-11-03T22:37:19Z</time>
      </trkpt>
      <trkpt lat="43.835650" lon="7.869350">
       <ele>8.13</ele>
       <time>2014-11-03T22:37:43Z</time>
      </trkpt>
      <trkpt lat="43.836370" lon="7.872570">
       <ele>10.41</ele>
       <time>2014-11-03T22:38:33Z</time>
      </trkpt>
      <trkpt lat="43.836880" lon="7.874730">
       <ele>13.63</ele>
       <time>2014-11-03T22:39:07Z</time>
      </trkpt>
      <trkpt lat="43.837000" lon="7.875100">
       <ele>14.41</ele>
       <time>2014-11-03T22:39:14Z</time>
      </trkpt>
      <trkpt lat="43.837130" lon="7.875440">
       <ele>14.03</ele>
       <time>2014-11-03T22:39:19Z</time>
      </trkpt>
      <trkpt lat="43.837220" lon="7.875630">
       <ele>13.87</ele>
       <time>2014-11-03T22:39:23Z</time>
      </trkpt>
      <trkpt lat="43.837410" lon="7.876000">
       <ele>13.82</ele>
       <time>2014-11-03T22:39:29Z</time>
      </trkpt>
      <trkpt lat="43.837570" lon="7.876270">
       <ele>14.14</ele>
       <time>2014-11-03T22:39:35Z</time>
      </trkpt>
      <trkpt lat="43.838040" lon="7.876890">
       <ele>15.47</ele>
       <time>2014-11-03T22:39:48Z</time>
      </trkpt>
      <trkpt lat="43.838550" lon="7.877390">
       <ele>15.3</ele>
       <time>2014-11-03T22:40:01Z</time>
      </trkpt>
      <trkpt lat="43.838730" lon="7.877620">
       <ele>13.75</ele>
       <time>2014-11-03T22:40:06Z</time>
      </trkpt>
      <trkpt lat="43.839010" lon="7.878050">
       <ele>11.92</ele>
       <time>2014-11-03T22:40:15Z</time>
      </trkpt>
      <trkpt lat="43.839130" lon="7.878300">
       <ele>11.03</ele>
       <time>2014-11-03T22:40:19Z</time>
      </trkpt>
      <trkpt lat="43.839270" lon="7.878680">
       <ele>12.51</ele>
       <time>2014-11-03T22:40:26Z</time>
      </trkpt>
      <trkpt lat="43.839340" lon="7.879010">
       <ele>13.83</ele>
       <time>2014-11-03T22:40:31Z</time>
      </trkpt>
      <trkpt lat="43.839620" lon="7.880780">
       <ele>17.22</ele>
       <time>2014-11-03T22:40:58Z</time>
      </trkpt>
      <trkpt lat="43.840260" lon="7.885130">
       <ele>15.55</ele>
       <time>2014-11-03T22:42:04Z</time>
      </trkpt>
      <trkpt lat="43.840270" lon="7.885300">
       <ele>16.01</ele>
       <time>2014-11-03T22:42:07Z</time>
      </trkpt>
      <trkpt lat="43.840270" lon="7.885550">
       <ele>16.6</ele>
       <time>2014-11-03T22:42:11Z</time>
      </trkpt>
      <trkpt lat="43.840230" lon="7.885870">
       <ele>17.15</ele>
       <time>2014-11-03T22:42:16Z</time>
      </trkpt>
      <trkpt lat="43.840140" lon="7.886190">
       <ele>18.19</ele>
       <time>2014-11-03T22:42:21Z</time>
      </trkpt>
      <trkpt lat="43.839920" lon="7.886790">
       <ele>18.62</ele>
       <time>2014-11-03T22:42:31Z</time>
      </trkpt>
      <trkpt lat="43.839850" lon="7.887150">
       <ele>18.91</ele>
       <time>2014-11-03T22:42:36Z</time>
      </trkpt>
      <trkpt lat="43.839740" lon="7.890610">
       <ele>22.12</ele>
       <time>2014-11-03T22:43:28Z</time>
      </trkpt>
      <trkpt lat="43.839690" lon="7.890980">
       <ele>22.08</ele>
       <time>2014-11-03T22:43:34Z</time>
      </trkpt>
      <trkpt lat="43.839560" lon="7.891330">
       <ele>21.77</ele>
       <time>2014-11-03T22:43:40Z</time>
      </trkpt>
      <trkpt lat="43.839470" lon="7.891480">
       <ele>21.32</ele>
       <time>2014-11-03T22:43:43Z</time>
      </trkpt>
      <trkpt lat="43.839060" lon="7.891980">
       <ele>19.79</ele>
       <time>2014-11-03T22:43:54Z</time>
      </trkpt>
      <trkpt lat="43.838890" lon="7.892320">
       <ele>18.9</ele>
       <time>2014-11-03T22:44:00Z</time>
      </trkpt>
      <trkpt lat="43.838800" lon="7.892610">
       <ele>18.27</ele>
       <time>2014-11-03T22:44:05Z</time>
      </trkpt>
      <trkpt lat="43.838620" lon="7.894020">
       <ele>17.66</ele>
       <time>2014-11-03T22:44:26Z</time>
      </trkpt>
      <trkpt lat="43.838570" lon="7.894310">
       <ele>17.73</ele>
       <time>2014-11-03T22:44:31Z</time>
      </trkpt>
      <trkpt lat="43.838500" lon="7.894910">
       <ele>20.06</ele>
       <time>2014-11-03T22:44:40Z</time>
      </trkpt>
      <trkpt lat="43.838470" lon="7.895290">
       <ele>19.9</ele>
       <time>2014-11-03T22:44:45Z</time>
      </trkpt>
      <trkpt lat="43.838470" lon="7.895490">
       <ele>19.86</ele>
       <time>2014-11-03T22:44:48Z</time>
      </trkpt>
      <trkpt lat="43.838530" lon="7.896240">
       <ele>20.38</ele>
       <time>2014-11-03T22:45:00Z</time>
      </trkpt>
      <trkpt lat="43.838640" lon="7.897080">
       <ele>21.05</ele>
       <time>2014-11-03T22:45:12Z</time>
      </trkpt>
      <trkpt lat="43.838650" lon="7.897580">
       <ele>19.92</ele>
       <time>2014-11-03T22:45:20Z</time>
      </trkpt>
      <trkpt lat="43.838610" lon="7.898050">
       <ele>17.91</ele>
       <time>2014-11-03T22:45:27Z</time>
      </trkpt>
      <trkpt lat="43.838540" lon="7.898350">
       <ele>15.94</ele>
       <time>2014-11-03T22:45:32Z</time>
      </trkpt>
      <trkpt lat="43.838110" lon="7.899650">
       <ele>15.07</ele>
       <time>2014-11-03T22:45:53Z</time>
      </trkpt>
      <trkpt lat="43.837970" lon="7.900120">
       <ele>16.67</ele>
       <time>2014-11-03T22:46:01Z</time>
      </trkpt>
      <trkpt lat="43.837780" lon="7.900580">
       <ele>16.86</ele>
       <time>2014-11-03T22:46:09Z</time>
      </trkpt>
      <trkpt lat="43.837500" lon="7.901100">
       <ele>14.59</ele>
       <time>2014-11-03T22:46:18Z</time>
      </trkpt>
      <trkpt lat="43.837370" lon="7.901400">
       <ele>15.43</ele>
       <time>2014-11-03T22:46:24Z</time>
      </trkpt>
      <trkpt lat="43.837270" lon="7.901720">
       <ele>16</ele>
       <time>2014-11-03T22:46:29Z</time>
      </trkpt>
      <trkpt lat="43.837190" lon="7.902130">
       <ele>15.65</ele>
       <time>2014-11-03T22:46:35Z</time>
      </trkpt>
      <trkpt lat="43.837160" lon="7.902540">
       <ele>16.13</ele>
       <time>2014-11-03T22:46:41Z</time>
      </trkpt>
      <trkpt lat="43.837170" lon="7.903530">
       <ele>18.7</ele>
       <time>2014-11-03T22:46:56Z</time>
      </trkpt>
      <trkpt lat="43.837210" lon="7.904070">
       <ele>20.31</ele>
       <time>2014-11-03T22:47:04Z</time>
      </trkpt>
      <trkpt lat="43.837310" lon="7.904650">
       <ele>19.6</ele>
       <time>2014-11-03T22:47:13Z</time>
      </trkpt>
      <trkpt lat="43.837670" lon="7.906000">
       <ele>18.39</ele>
       <time>2014-11-03T22:47:35Z</time>
      </trkpt>
      <trkpt lat="43.837950" lon="7.906930">
       <ele>19.03</ele>
       <time>2014-11-03T22:47:50Z</time>
      </trkpt>
      <trkpt lat="43.838040" lon="7.907180">
       <ele>18.62</ele>
       <time>2014-11-03T22:47:54Z</time>
      </trkpt>
      <trkpt lat="43.838160" lon="7.907440">
       <ele>18.49</ele>
       <time>2014-11-03T22:47:59Z</time>
      </trkpt>
      <trkpt lat="43.838320" lon="7.907700">
       <ele>17.93</ele>
       <time>2014-11-03T22:48:04Z</time>
      </trkpt>
      <trkpt lat="43.838970" lon="7.908640">
       <ele>20.2</ele>
       <time>2014-11-03T22:48:23Z</time>
      </trkpt>
      <trkpt lat="43.839630" lon="7.909930">
       <ele>21.38</ele>
       <time>2014-11-03T22:48:47Z</time>
      </trkpt>
      <trkpt lat="43.840220" lon="7.911140">
       <ele>20.32</ele>
       <time>2014-11-03T22:49:09Z</time>
      </trkpt>
      <trkpt lat="43.840510" lon="7.911780">
       <ele>19.81</ele>
       <time>2014-11-03T22:49:20Z</time>
      </trkpt>
      <trkpt lat="43.841060" lon="7.913250">
       <ele>13.75</ele>
       <time>2014-11-03T22:49:45Z</time>
      </trkpt>
      <trkpt lat="43.841180" lon="7.913480">
       <ele>12.67</ele>
       <time>2014-11-03T22:49:49Z</time>
      </trkpt>
      <trkpt lat="43.841340" lon="7.913730">
       <ele>11.97</ele>
       <time>2014-11-03T22:49:54Z</time>
      </trkpt>
      <trkpt lat="43.841430" lon="7.913840">
       <ele>11.87</ele>
       <time>2014-11-03T22:49:56Z</time>
      </trkpt>
      <trkpt lat="43.843040" lon="7.915710">
       <ele>15.72</ele>
       <time>2014-11-03T22:50:40Z</time>
      </trkpt>
      <trkpt lat="43.843240" lon="7.915990">
       <ele>14.7</ele>
       <time>2014-11-03T22:50:46Z</time>
      </trkpt>
      <trkpt lat="43.843290" lon="7.916090">
       <ele>14.16</ele>
       <time>2014-11-03T22:50:48Z</time>
      </trkpt>
      <trkpt lat="43.843530" lon="7.916640">
       <ele>12.55</ele>
       <time>2014-11-03T22:50:57Z</time>
      </trkpt>
      <trkpt lat="43.843620" lon="7.916920">
       <ele>12.92</ele>
       <time>2014-11-03T22:51:02Z</time>
      </trkpt>
      <trkpt lat="43.843950" lon="7.918650">
       <ele>10.31</ele>
       <time>2014-11-03T22:51:29Z</time>
      </trkpt>
      <trkpt lat="43.844130" lon="7.919310">
       <ele>7.37</ele>
       <time>2014-11-03T22:51:39Z</time>
      </trkpt>
      <trkpt lat="43.844530" lon="7.920520">
       <ele>13.89</ele>
       <time>2014-11-03T22:51:59Z</time>
      </trkpt>
      <trkpt lat="43.844700" lon="7.921340">
       <ele>13.88</ele>
       <time>2014-11-03T22:52:12Z</time>
      </trkpt>
      <trkpt lat="43.844780" lon="7.922100">
       <ele>14.04</ele>
       <time>2014-11-03T22:52:23Z</time>
      </trkpt>
      <trkpt lat="43.844820" lon="7.922860">
       <ele>14.97</ele>
       <time>2014-11-03T22:52:35Z</time>
      </trkpt>
      <trkpt lat="43.844820" lon="7.923600">
       <ele>15.11</ele>
       <time>2014-11-03T22:52:46Z</time>
      </trkpt>
      <trkpt lat="43.844780" lon="7.924360">
       <ele>14.22</ele>
       <time>2014-11-03T22:52:57Z</time>
      </trkpt>
      <trkpt lat="43.844770" lon="7.925760">
       <ele>16.64</ele>
       <time>2014-11-03T22:53:18Z</time>
      </trkpt>
      <trkpt lat="43.844790" lon="7.926070">
       <ele>17.53</ele>
       <time>2014-11-03T22:53:23Z</time>
      </trkpt>
      <trkpt lat="43.844960" lon="7.927500">
       <ele>22.92</ele>
       <time>2014-11-03T22:53:45Z</time>
      </trkpt>
      <trkpt lat="43.845010" lon="7.928470">
       <ele>22.1</ele>
       <time>2014-11-03T22:53:59Z</time>
      </trkpt>
      <trkpt lat="43.845000" lon="7.929250">
       <ele>20.27</ele>
       <time>2014-11-03T22:54:11Z</time>
      </trkpt>
      <trkpt lat="43.844900" lon="7.930190">
       <ele>19.3</ele>
       <time>2014-11-03T22:54:25Z</time>
      </trkpt>
      <trkpt lat="43.844910" lon="7.930730">
       <ele>17.72</ele>
       <time>2014-11-03T22:54:33Z</time>
      </trkpt>
      <trkpt lat="43.845080" lon="7.932160">
       <ele>22.84</ele>
       <time>2014-11-03T22:54:55Z</time>
      </trkpt>
      <trkpt lat="43.845250" lon="7.933270">
       <ele>25.27</ele>
       <time>2014-11-03T22:55:12Z</time>
      </trkpt>
      <trkpt lat="43.845300" lon="7.933920">
       <ele>23.97</ele>
       <time>2014-11-03T22:55:21Z</time>
      </trkpt>
      <trkpt lat="43.845340" lon="7.934750">
       <ele>22.62</ele>
       <time>2014-11-03T22:55:34Z</time>
      </trkpt>
      <trkpt lat="43.845440" lon="7.935710">
       <ele>24.1</ele>
       <time>2014-11-03T22:55:48Z</time>
      </trkpt>
      <trkpt lat="43.845480" lon="7.936000">
       <ele>23.5</ele>
       <time>2014-11-03T22:55:53Z</time>
      </trkpt>
      <trkpt lat="43.845800" lon="7.937480">
       <ele>19.43</ele>
       <time>2014-11-03T22:56:16Z</time>
      </trkpt>
      <trkpt lat="43.845870" lon="7.937960">
       <ele>21.62</ele>
       <time>2014-11-03T22:56:23Z</time>
      </trkpt>
      <trkpt lat="43.845880" lon="7.938430">
       <ele>22.37</ele>
       <time>2014-11-03T22:56:30Z</time>
      </trkpt>
      <trkpt lat="43.845770" lon="7.939120">
       <ele>22.18</ele>
       <time>2014-11-03T22:56:41Z</time>
      </trkpt>
      <trkpt lat="43.845770" lon="7.939410">
       <ele>21.88</ele>
       <time>2014-11-03T22:56:45Z</time>
      </trkpt>
      <trkpt lat="43.845800" lon="7.939750">
       <ele>21.8</ele>
       <time>2014-11-03T22:56:50Z</time>
      </trkpt>
      <trkpt lat="43.845940" lon="7.940440">
       <ele>22.41</ele>
       <time>2014-11-03T22:57:01Z</time>
      </trkpt>
      <trkpt lat="43.846070" lon="7.940780">
       <ele>23.62</ele>
       <time>2014-11-03T22:57:07Z</time>
      </trkpt>
      <trkpt lat="43.846240" lon="7.941090">
       <ele>24.82</ele>
       <time>2014-11-03T22:57:13Z</time>
      </trkpt>
      <trkpt lat="43.846530" lon="7.941680">
       <ele>27.47</ele>
       <time>2014-11-03T22:57:23Z</time>
      </trkpt>
      <trkpt lat="43.846670" lon="7.942070">
       <ele>27.7</ele>
       <time>2014-11-03T22:57:30Z</time>
      </trkpt>
      <trkpt lat="43.846830" lon="7.942790">
       <ele>27.56</ele>
       <time>2014-11-03T22:57:41Z</time>
      </trkpt>
      <trkpt lat="43.846950" lon="7.943920">
       <ele>26.87</ele>
       <time>2014-11-03T22:57:58Z</time>
      </trkpt>
      <trkpt lat="43.846960" lon="7.945080">
       <ele>23.69</ele>
       <time>2014-11-03T22:58:15Z</time>
      </trkpt>
      <trkpt lat="43.846940" lon="7.945460">
       <ele>22.62</ele>
       <time>2014-11-03T22:58:21Z</time>
      </trkpt>
      <trkpt lat="43.846940" lon="7.945990">
       <ele>21.7</ele>
       <time>2014-11-03T22:58:29Z</time>
      </trkpt>
      <trkpt lat="43.846970" lon="7.946290">
       <ele>21.45</ele>
       <time>2014-11-03T22:58:34Z</time>
      </trkpt>
      <trkpt lat="43.847430" lon="7.947750">
       <ele>22.8</ele>
       <time>2014-11-03T22:58:57Z</time>
      </trkpt>
      <trkpt lat="43.847590" lon="7.948180">
       <ele>23.12</ele>
       <time>2014-11-03T22:59:05Z</time>
      </trkpt>
      <trkpt lat="43.847750" lon="7.948510">
       <ele>24.23</ele>
       <time>2014-11-03T22:59:11Z</time>
      </trkpt>
      <trkpt lat="43.847790" lon="7.948640">
       <ele>24.18</ele>
       <time>2014-11-03T22:59:13Z</time>
      </trkpt>
      <trkpt lat="43.847820" lon="7.949460">
       <ele>19.27</ele>
       <time>2014-11-03T22:59:25Z</time>
      </trkpt>
      <trkpt lat="43.847880" lon="7.949710">
       <ele>18.84</ele>
       <time>2014-11-03T22:59:29Z</time>
      </trkpt>
      <trkpt lat="43.847930" lon="7.949830">
       <ele>19.02</ele>
       <time>2014-11-03T22:59:31Z</time>
      </trkpt>
      <trkpt lat="43.848110" lon="7.950150">
       <ele>20.64</ele>
       <time>2014-11-03T22:59:37Z</time>
      </trkpt>
      <trkpt lat="43.848600" lon="7.950780">
       <ele>26.69</ele>
       <time>2014-11-03T22:59:51Z</time>
      </trkpt>
      <trkpt lat="43.848710" lon="7.950990">
       <ele>27.85</ele>
       <time>2014-11-03T22:59:55Z</time>
      </trkpt>
      <trkpt lat="43.848860" lon="7.951520">
       <ele>27.74</ele>
       <time>2014-11-03T23:00:03Z</time>
      </trkpt>
      <trkpt lat="43.848940" lon="7.951860">
       <ele>27.04</ele>
       <time>2014-11-03T23:00:09Z</time>
      </trkpt>
      <trkpt lat="43.848960" lon="7.952100">
       <ele>25.95</ele>
       <time>2014-11-03T23:00:12Z</time>
      </trkpt>
      <trkpt lat="43.848940" lon="7.952430">
       <ele>23.57</ele>
       <time>2014-11-03T23:00:17Z</time>
      </trkpt>
      <trkpt lat="43.848900" lon="7.952700">
       <ele>21.05</ele>
       <time>2014-11-03T23:00:21Z</time>
      </trkpt>
      <trkpt lat="43.848900" lon="7.952840">
       <ele>20.21</ele>
       <time>2014-11-03T23:00:23Z</time>
      </trkpt>
      <trkpt lat="43.848940" lon="7.953190">
       <ele>19.16</ele>
       <time>2014-11-03T23:00:29Z</time>
      </trkpt>
      <trkpt lat="43.848990" lon="7.953420">
       <ele>18.69</ele>
       <time>2014-11-03T23:00:32Z</time>
      </trkpt>
      <trkpt lat="43.849190" lon="7.953840">
       <ele>18.55</ele>
       <time>2014-11-03T23:00:40Z</time>
      </trkpt>
      <trkpt lat="43.849590" lon="7.954450">
       <ele>22.79</ele>
       <time>2014-11-03T23:00:52Z</time>
      </trkpt>
      <trkpt lat="43.850030" lon="7.955370">
       <ele>21.76</ele>
       <time>2014-11-03T23:01:09Z</time>
      </trkpt>
      <trkpt lat="43.850260" lon="7.955800">
       <ele>23.81</ele>
       <time>2014-11-03T23:01:17Z</time>
      </trkpt>
      <trkpt lat="43.850380" lon="7.956130">
       <ele>26.2</ele>
       <time>2014-11-03T23:01:22Z</time>
      </trkpt>
      <trkpt lat="43.850440" lon="7.956540">
       <ele>26.32</ele>
       <time>2014-11-03T23:01:29Z</time>
      </trkpt>
      <trkpt lat="43.850550" lon="7.957740">
       <ele>24.46</ele>
       <time>2014-11-03T23:01:47Z</time>
      </trkpt>
      <trkpt lat="43.850610" lon="7.958650">
       <ele>19.67</ele>
       <time>2014-11-03T23:02:00Z</time>
      </trkpt>
      <trkpt lat="43.850660" lon="7.959060">
       <ele>17.85</ele>
       <time>2014-11-03T23:02:06Z</time>
      </trkpt>
      <trkpt lat="43.850690" lon="7.959260">
       <ele>17.04</ele>
       <time>2014-11-03T23:02:10Z</time>
      </trkpt>
      <trkpt lat="43.850880" lon="7.959990">
       <ele>15.64</ele>
       <time>2014-11-03T23:02:21Z</time>
      </trkpt>
      <trkpt lat="43.851000" lon="7.960340">
       <ele>16.31</ele>
       <time>2014-11-03T23:02:27Z</time>
      </trkpt>
      <trkpt lat="43.851140" lon="7.960680">
       <ele>16.76</ele>
       <time>2014-11-03T23:02:33Z</time>
      </trkpt>
      <trkpt lat="43.851380" lon="7.961180">
       <ele>17.7</ele>
       <time>2014-11-03T23:02:42Z</time>
      </trkpt>
      <trkpt lat="43.852050" lon="7.962330">
       <ele>14.04</ele>
       <time>2014-11-03T23:03:04Z</time>
      </trkpt>
      <trkpt lat="43.852340" lon="7.962760">
       <ele>13.08</ele>
       <time>2014-11-03T23:03:13Z</time>
      </trkpt>
      <trkpt lat="43.852450" lon="7.962850">
       <ele>13.55</ele>
       <time>2014-11-03T23:03:15Z</time>
      </trkpt>
      <trkpt lat="43.853060" lon="7.963000">
       <ele>11.99</ele>
       <time>2014-11-03T23:03:28Z</time>
      </trkpt>
      <trkpt lat="43.853210" lon="7.963050">
       <ele>11.51</ele>
       <time>2014-11-03T23:03:31Z</time>
      </trkpt>
      <trkpt lat="43.853310" lon="7.963140">
       <ele>10.95</ele>
       <time>2014-11-03T23:03:34Z</time>
      </trkpt>
      <trkpt lat="43.853370" lon="7.963240">
       <ele>10.42</ele>
       <time>2014-11-03T23:03:36Z</time>
      </trkpt>
      <trkpt lat="43.853420" lon="7.963440">
       <ele>10.03</ele>
       <time>2014-11-03T23:03:39Z</time>
      </trkpt>
      <trkpt lat="43.853530" lon="7.964670">
       <ele>10.9</ele>
       <time>2014-11-03T23:03:57Z</time>
      </trkpt>
      <trkpt lat="43.853610" lon="7.965010">
       <ele>11.64</ele>
       <time>2014-11-03T23:04:03Z</time>
      </trkpt>
      <trkpt lat="43.853670" lon="7.965120">
       <ele>11.72</ele>
       <time>2014-11-03T23:04:05Z</time>
      </trkpt>
      <trkpt lat="43.853910" lon="7.965400">
       <ele>12.49</ele>
       <time>2014-11-03T23:04:11Z</time>
      </trkpt>
      <trkpt lat="43.854190" lon="7.965690">
       <ele>13.69</ele>
       <time>2014-11-03T23:04:19Z</time>
      </trkpt>
      <trkpt lat="43.854840" lon="7.966140">
       <ele>16.86</ele>
       <time>2014-11-03T23:04:34Z</time>
      </trkpt>
      <trkpt lat="43.855230" lon="7.966320">
       <ele>17.52</ele>
       <time>2014-11-03T23:04:42Z</time>
      </trkpt>
      <trkpt lat="43.855920" lon="7.966550">
       <ele>17.98</ele>
       <time>2014-11-03T23:04:57Z</time>
      </trkpt>
      <trkpt lat="43.856760" lon="7.966860">
       <ele>16.31</ele>
       <time>2014-11-03T23:05:15Z</time>
      </trkpt>
      <trkpt lat="43.858450" lon="7.967530">
       <ele>19.55</ele>
       <time>2014-11-03T23:05:51Z</time>
      </trkpt>
      <trkpt lat="43.858820" lon="7.967700">
       <ele>21.79</ele>
       <time>2014-11-03T23:05:59Z</time>
      </trkpt>
      <trkpt lat="43.859630" lon="7.968240">
       <ele>19.78</ele>
       <time>2014-11-03T23:06:18Z</time>
      </trkpt>
      <trkpt lat="43.859840" lon="7.968470">
       <ele>18.62</ele>
       <time>2014-11-03T23:06:24Z</time>
      </trkpt>
      <trkpt lat="43.860160" lon="7.968890">
       <ele>15.62</ele>
       <time>2014-11-03T23:06:33Z</time>
      </trkpt>
      <trkpt lat="43.860830" lon="7.969890">
       <ele>9.45</ele>
       <time>2014-11-03T23:06:53Z</time>
      </trkpt>
      <trkpt lat="43.860990" lon="7.970170">
       <ele>9.85</ele>
       <time>2014-11-03T23:06:59Z</time>
      </trkpt>
      <trkpt lat="43.861310" lon="7.970870">
       <ele>15.47</ele>
       <time>2014-11-03T23:07:11Z</time>
      </trkpt>
      <trkpt lat="43.861390" lon="7.971110">
       <ele>16.34</ele>
       <time>2014-11-03T23:07:15Z</time>
      </trkpt>
      <trkpt lat="43.861470" lon="7.971560">
       <ele>16.7</ele>
       <time>2014-11-03T23:07:22Z</time>
      </trkpt>
      <trkpt lat="43.861530" lon="7.972640">
       <ele>17.24</ele>
       <time>2014-11-03T23:07:38Z</time>
      </trkpt>
      <trkpt lat="43.861590" lon="7.972970">
       <ele>18.04</ele>
       <time>2014-11-03T23:07:43Z</time>
      </trkpt>
      <trkpt lat="43.861750" lon="7.973510">
       <ele>19.61</ele>
       <time>2014-11-03T23:07:52Z</time>
      </trkpt>
      <trkpt lat="43.862040" lon="7.974290">
       <ele>21.17</ele>
       <time>2014-11-03T23:08:05Z</time>
      </trkpt>
      <trkpt lat="43.862390" lon="7.974940">
       <ele>24</ele>
       <time>2014-11-03T23:08:17Z</time>
      </trkpt>
      <trkpt lat="43.862830" lon="7.975660">
       <ele>26.97</ele>
       <time>2014-11-03T23:08:31Z</time>
      </trkpt>
      <trkpt lat="43.862940" lon="7.975970">
       <ele>27.87</ele>
       <time>2014-11-03T23:08:36Z</time>
      </trkpt>
      <trkpt lat="43.862980" lon="7.977020">
       <ele>26.55</ele>
       <time>2014-11-03T23:08:52Z</time>
      </trkpt>
      <trkpt lat="43.863060" lon="7.977850">
       <ele>26.46</ele>
       <time>2014-11-03T23:09:05Z</time>
      </trkpt>
      <trkpt lat="43.863120" lon="7.978300">
       <ele>26.28</ele>
       <time>2014-11-03T23:09:11Z</time>
      </trkpt>
      <trkpt lat="43.863150" lon="7.978750">
       <ele>24.83</ele>
       <time>2014-11-03T23:09:18Z</time>
      </trkpt>
      <trkpt lat="43.863200" lon="7.979070">
       <ele>24.57</ele>
       <time>2014-11-03T23:09:23Z</time>
      </trkpt>
      <trkpt lat="43.863260" lon="7.979310">
       <ele>23.98</ele>
       <time>2014-11-03T23:09:27Z</time>
      </trkpt>
      <trkpt lat="43.863640" lon="7.980500">
       <ele>28.76</ele>
       <time>2014-11-03T23:09:46Z</time>
      </trkpt>
      <trkpt lat="43.863780" lon="7.981070">
       <ele>29.55</ele>
       <time>2014-11-03T23:09:55Z</time>
      </trkpt>
      <trkpt lat="43.863880" lon="7.981540">
       <ele>29.03</ele>
       <time>2014-11-03T23:10:03Z</time>
      </trkpt>
      <trkpt lat="43.863940" lon="7.982010">
       <ele>26.85</ele>
       <time>2014-11-03T23:10:10Z</time>
      </trkpt>
      <trkpt lat="43.864060" lon="7.982600">
       <ele>24.35</ele>
       <time>2014-11-03T23:10:19Z</time>
      </trkpt>
      <trkpt lat="43.864170" lon="7.982920">
       <ele>23.06</ele>
       <time>2014-11-03T23:10:24Z</time>
      </trkpt>
      <trkpt lat="43.864480" lon="7.983530">
       <ele>24.37</ele>
       <time>2014-11-03T23:10:35Z</time>
      </trkpt>
      <trkpt lat="43.864500" lon="7.983630">
       <ele>24.64</ele>
       <time>2014-11-03T23:10:37Z</time>
      </trkpt>
      <trkpt lat="43.864520" lon="7.983760">
       <ele>24.97</ele>
       <time>2014-11-03T23:10:39Z</time>
      </trkpt>
      <trkpt lat="43.864590" lon="7.987580">
       <ele>28.3</ele>
       <time>2014-11-03T23:11:36Z</time>
      </trkpt>
      <trkpt lat="43.864710" lon="7.988650">
       <ele>27.38</ele>
       <time>2014-11-03T23:11:52Z</time>
      </trkpt>
      <trkpt lat="43.864820" lon="7.989860">
       <ele>24.46</ele>
       <time>2014-11-03T23:12:11Z</time>
      </trkpt>
      <trkpt lat="43.864940" lon="7.990370">
       <ele>23.79</ele>
       <time>2014-11-03T23:12:19Z</time>
      </trkpt>
      <trkpt lat="43.865130" lon="7.991530">
       <ele>25.01</ele>
       <time>2014-11-03T23:12:36Z</time>
      </trkpt>
      <trkpt lat="43.865290" lon="7.992180">
       <ele>26.47</ele>
       <time>2014-11-03T23:12:47Z</time>
      </trkpt>
      <trkpt lat="43.865470" lon="7.992730">
       <ele>28.54</ele>
       <time>2014-11-03T23:12:56Z</time>
      </trkpt>
      <trkpt lat="43.865660" lon="7.993240">
       <ele>30.47</ele>
       <time>2014-11-03T23:13:04Z</time>
      </trkpt>
      <trkpt lat="43.865720" lon="7.993740">
       <ele>25.92</ele>
       <time>2014-11-03T23:13:12Z</time>
      </trkpt>
      <trkpt lat="43.865750" lon="7.993870">
       <ele>25.08</ele>
       <time>2014-11-03T23:13:14Z</time>
      </trkpt>
      <trkpt lat="43.866000" lon="7.994520">
       <ele>21.73</ele>
       <time>2014-11-03T23:13:25Z</time>
      </trkpt>
      <trkpt lat="43.866240" lon="7.994990">
       <ele>19.47</ele>
       <time>2014-11-03T23:13:33Z</time>
      </trkpt>
      <trkpt lat="43.866330" lon="7.995110">
       <ele>19.53</ele>
       <time>2014-11-03T23:13:36Z</time>
      </trkpt>
      <trkpt lat="43.866410" lon="7.995210">
       <ele>19.44</ele>
       <time>2014-11-03T23:13:38Z</time>
      </trkpt>
      <trkpt lat="43.866680" lon="7.995380">
       <ele>21.26</ele>
       <time>2014-11-03T23:13:44Z</time>
      </trkpt>
      <trkpt lat="43.866750" lon="7.995440">
       <ele>21.23</ele>
       <time>2014-11-03T23:13:46Z</time>
      </trkpt>
      <trkpt lat="43.866860" lon="7.995600">
       <ele>19.89</ele>
       <time>2014-11-03T23:13:49Z</time>
      </trkpt>
      <trkpt lat="43.867670" lon="7.997420">
       <ele>10.45</ele>
       <time>2014-11-03T23:14:21Z</time>
      </trkpt>
      <trkpt lat="43.867890" lon="7.997880">
       <ele>9.07</ele>
       <time>2014-11-03T23:14:30Z</time>
      </trkpt>
      <trkpt lat="43.868130" lon="7.998450">
       <ele>5.78</ele>
       <time>2014-11-03T23:14:39Z</time>
      </trkpt>
      <trkpt lat="43.868950" lon="8.000240">
       <ele>2.71</ele>
       <time>2014-11-03T23:15:11Z</time>
      </trkpt>
      <trkpt lat="43.869820" lon="8.002100">
       <ele>3.73</ele>
       <time>2014-11-03T23:15:44Z</time>
      </trkpt>
      <trkpt lat="43.870000" lon="8.002450">
       <ele>4.06</ele>
       <time>2014-11-03T23:15:51Z</time>
      </trkpt>
      <trkpt lat="43.870280" lon="8.002910">
       <ele>5.85</ele>
       <time>2014-11-03T23:16:00Z</time>
      </trkpt>
      <trkpt lat="43.870560" lon="8.003410">
       <ele>9.81</ele>
       <time>2014-11-03T23:16:09Z</time>
      </trkpt>
      <trkpt lat="43.870850" lon="8.003950">
       <ele>13.33</ele>
       <time>2014-11-03T23:16:19Z</time>
      </trkpt>
      <trkpt lat="43.870890" lon="8.004080">
       <ele>14.26</ele>
       <time>2014-11-03T23:16:21Z</time>
      </trkpt>
      <trkpt lat="43.870950" lon="8.004360">
       <ele>17.45</ele>
       <time>2014-11-03T23:16:26Z</time>
      </trkpt>
      <trkpt lat="43.870940" lon="8.004570">
       <ele>19.22</ele>
       <time>2014-11-03T23:16:29Z</time>
      </trkpt>
      <trkpt lat="43.870900" lon="8.004710">
       <ele>19.38</ele>
       <time>2014-11-03T23:16:31Z</time>
      </trkpt>
      <trkpt lat="43.870470" lon="8.005860">
       <ele>20.38</ele>
       <time>2014-11-03T23:16:51Z</time>
      </trkpt>
      <trkpt lat="43.870400" lon="8.006120">
       <ele>18.67</ele>
       <time>2014-11-03T23:16:55Z</time>
      </trkpt>
      <trkpt lat="43.870390" lon="8.006230">
       <ele>18.32</ele>
       <time>2014-11-03T23:16:56Z</time>
      </trkpt>
      <trkpt lat="43.870400" lon="8.006510">
       <ele>17.96</ele>
       <time>2014-11-03T23:17:01Z</time>
      </trkpt>
      <trkpt lat="43.870490" lon="8.006810">
       <ele>18.06</ele>
       <time>2014-11-03T23:17:05Z</time>
      </trkpt>
      <trkpt lat="43.870920" lon="8.007580">
       <ele>16.43</ele>
       <time>2014-11-03T23:17:20Z</time>
      </trkpt>
      <trkpt lat="43.871130" lon="8.008010">
       <ele>14.49</ele>
       <time>2014-11-03T23:17:28Z</time>
      </trkpt>
      <trkpt lat="43.871630" lon="8.009320">
       <ele>7.17</ele>
       <time>2014-11-03T23:17:50Z</time>
      </trkpt>
      <trkpt lat="43.871820" lon="8.009700">
       <ele>7.44</ele>
       <time>2014-11-03T23:17:57Z</time>
      </trkpt>
      <trkpt lat="43.871950" lon="8.009860">
       <ele>7.76</ele>
       <time>2014-11-03T23:18:00Z</time>
      </trkpt>
      <trkpt lat="43.872300" lon="8.010090">
       <ele>9.45</ele>
       <time>2014-11-03T23:18:08Z</time>
      </trkpt>
      <trkpt lat="43.872840" lon="8.010400">
       <ele>10.13</ele>
       <time>2014-11-03T23:18:21Z</time>
      </trkpt>
      <trkpt lat="43.873040" lon="8.010560">
       <ele>9.46</ele>
       <time>2014-11-03T23:18:25Z</time>
      </trkpt>
      <trkpt lat="43.873060" lon="8.010600">
       <ele>9.32</ele>
       <time>2014-11-03T23:18:26Z</time>
      </trkpt>
      <trkpt lat="43.873120" lon="8.010630">
       <ele>9.12</ele>
       <time>2014-11-03T23:18:27Z</time>
      </trkpt>
      <trkpt lat="43.873220" lon="8.010890">
       <ele>8.64</ele>
       <time>2014-11-03T23:18:32Z</time>
      </trkpt>
      <trkpt lat="43.873490" lon="8.012150">
       <ele>22.07</ele>
       <time>2014-11-03T23:18:51Z</time>
      </trkpt>
      <trkpt lat="43.873450" lon="8.012340">
       <ele>24.84</ele>
       <time>2014-11-03T23:18:54Z</time>
      </trkpt>
      <trkpt lat="43.873430" lon="8.012390">
       <ele>25.54</ele>
       <time>2014-11-03T23:18:55Z</time>
      </trkpt>
      <trkpt lat="43.873360" lon="8.012460">
       <ele>26.44</ele>
       <time>2014-11-03T23:18:57Z</time>
      </trkpt>
      <trkpt lat="43.873290" lon="8.012480">
       <ele>26.09</ele>
       <time>2014-11-03T23:18:59Z</time>
      </trkpt>
      <trkpt lat="43.872990" lon="8.012500">
       <ele>22.05</ele>
       <time>2014-11-03T23:19:05Z</time>
      </trkpt>
      <trkpt lat="43.872880" lon="8.012530">
       <ele>20.83</ele>
       <time>2014-11-03T23:19:07Z</time>
      </trkpt>
      <trkpt lat="43.872740" lon="8.012640">
       <ele>19.93</ele>
       <time>2014-11-03T23:19:10Z</time>
      </trkpt>
      <trkpt lat="43.872650" lon="8.012800">
       <ele>19.91</ele>
       <time>2014-11-03T23:19:13Z</time>
      </trkpt>
      <trkpt lat="43.872580" lon="8.013010">
       <ele>20.38</ele>
       <time>2014-11-03T23:19:17Z</time>
      </trkpt>
      <trkpt lat="43.872500" lon="8.013400">
       <ele>21.2</ele>
       <time>2014-11-03T23:19:23Z</time>
      </trkpt>
      <trkpt lat="43.872400" lon="8.014220">
       <ele>20.32</ele>
       <time>2014-11-03T23:19:35Z</time>
      </trkpt>
      <trkpt lat="43.872400" lon="8.014470">
       <ele>19.76</ele>
       <time>2014-11-03T23:19:39Z</time>
      </trkpt>
      <trkpt lat="43.872540" lon="8.015290">
       <ele>21.07</ele>
       <time>2014-11-03T23:19:52Z</time>
      </trkpt>
      <trkpt lat="43.872680" lon="8.015620">
       <ele>25.14</ele>
       <time>2014-11-03T23:19:57Z</time>
      </trkpt>
      <trkpt lat="43.873160" lon="8.016430">
       <ele>30.22</ele>
       <time>2014-11-03T23:20:13Z</time>
      </trkpt>
      <trkpt lat="43.873410" lon="8.016740">
       <ele>29.7</ele>
       <time>2014-11-03T23:20:20Z</time>
      </trkpt>
      <trkpt lat="43.873570" lon="8.016900">
       <ele>28.86</ele>
       <time>2014-11-03T23:20:24Z</time>
      </trkpt>
      <trkpt lat="43.874470" lon="8.017730">
       <ele>23.76</ele>
       <time>2014-11-03T23:20:47Z</time>
      </trkpt>
      <trkpt lat="43.874600" lon="8.017820">
       <ele>23.32</ele>
       <time>2014-11-03T23:20:50Z</time>
      </trkpt>
      <trkpt lat="43.875030" lon="8.017820">
       <ele>27.22</ele>
       <time>2014-11-03T23:20:58Z</time>
      </trkpt>
      <trkpt lat="43.875210" lon="8.017780">
       <ele>26.52</ele>
       <time>2014-11-03T23:21:02Z</time>
      </trkpt>
      <trkpt lat="43.875330" lon="8.017730">
       <ele>26.39</ele>
       <time>2014-11-03T23:21:05Z</time>
      </trkpt>
      <trkpt lat="43.876650" lon="8.016430">
       <ele>31.04</ele>
       <time>2014-11-03T23:21:38Z</time>
      </trkpt>
      <trkpt lat="43.877010" lon="8.016050">
       <ele>35.31</ele>
       <time>2014-11-03T23:21:48Z</time>
      </trkpt>
      <trkpt lat="43.877130" lon="8.015960">
       <ele>36.18</ele>
       <time>2014-11-03T23:21:51Z</time>
      </trkpt>
      <trkpt lat="43.877210" lon="8.015930">
       <ele>36.41</ele>
       <time>2014-11-03T23:21:52Z</time>
      </trkpt>
      <trkpt lat="43.877840" lon="8.015920">
       <ele>37.32</ele>
       <time>2014-11-03T23:22:05Z</time>
      </trkpt>
      <trkpt lat="43.878040" lon="8.015960">
       <ele>37.49</ele>
       <time>2014-11-03T23:22:10Z</time>
      </trkpt>
      <trkpt lat="43.878160" lon="8.016040">
       <ele>36.85</ele>
       <time>2014-11-03T23:22:12Z</time>
      </trkpt>
      <trkpt lat="43.878290" lon="8.016170">
       <ele>35.49</ele>
       <time>2014-11-03T23:22:16Z</time>
      </trkpt>
      <trkpt lat="43.878550" lon="8.016490">
       <ele>33.37</ele>
       <time>2014-11-03T23:22:23Z</time>
      </trkpt>
      <trkpt lat="43.878580" lon="8.016610">
       <ele>32.08</ele>
       <time>2014-11-03T23:22:25Z</time>
      </trkpt>
      <trkpt lat="43.878790" lon="8.016860">
       <ele>29.54</ele>
       <time>2014-11-03T23:22:31Z</time>
      </trkpt>
      <trkpt lat="43.878920" lon="8.016960">
       <ele>28.62</ele>
       <time>2014-11-03T23:22:34Z</time>
      </trkpt>
      <trkpt lat="43.879340" lon="8.017170">
       <ele>29.15</ele>
       <time>2014-11-03T23:22:43Z</time>
      </trkpt>
      <trkpt lat="43.879460" lon="8.017250">
       <ele>29.6</ele>
       <time>2014-11-03T23:22:46Z</time>
      </trkpt>
      <trkpt lat="43.879570" lon="8.017350">
       <ele>29.63</ele>
       <time>2014-11-03T23:22:48Z</time>
      </trkpt>
      <trkpt lat="43.879680" lon="8.017470">
       <ele>29.42</ele>
       <time>2014-11-03T23:22:51Z</time>
      </trkpt>
      <trkpt lat="43.880310" lon="8.018420">
       <ele>21.06</ele>
       <time>2014-11-03T23:23:11Z</time>
      </trkpt>
      <trkpt lat="43.880530" lon="8.018540">
       <ele>24.04</ele>
       <time>2014-11-03T23:23:15Z</time>
      </trkpt>
      <trkpt lat="43.880630" lon="8.018640">
       <ele>24.39</ele>
       <time>2014-11-03T23:23:18Z</time>
      </trkpt>
      <trkpt lat="43.880850" lon="8.019020">
       <ele>21.14</ele>
       <time>2014-11-03T23:23:25Z</time>
      </trkpt>
      <trkpt lat="43.880940" lon="8.019260">
       <ele>18.98</ele>
       <time>2014-11-03T23:23:29Z</time>
      </trkpt>
      <trkpt lat="43.881080" lon="8.019460">
       <ele>19.43</ele>
       <time>2014-11-03T23:23:34Z</time>
      </trkpt>
      <trkpt lat="43.881230" lon="8.019640">
       <ele>20.05</ele>
       <time>2014-11-03T23:23:38Z</time>
      </trkpt>
      <trkpt lat="43.881530" lon="8.020080">
       <ele>20.43</ele>
       <time>2014-11-03T23:23:47Z</time>
      </trkpt>
      <trkpt lat="43.881600" lon="8.020230">
       <ele>20.61</ele>
       <time>2014-11-03T23:23:49Z</time>
      </trkpt>
      <trkpt lat="43.881710" lon="8.020550">
       <ele>20.26</ele>
       <time>2014-11-03T23:23:55Z</time>
      </trkpt>
      <trkpt lat="43.882010" lon="8.021250">
       <ele>18.35</ele>
       <time>2014-11-03T23:24:07Z</time>
      </trkpt>
      <trkpt lat="43.882080" lon="8.021380">
       <ele>18.19</ele>
       <time>2014-11-03T23:24:09Z</time>
      </trkpt>
      <trkpt lat="43.882200" lon="8.021540">
       <ele>18.58</ele>
       <time>2014-11-03T23:24:13Z</time>
      </trkpt>
      <trkpt lat="43.882300" lon="8.021740">
       <ele>18.92</ele>
       <time>2014-11-03T23:24:16Z</time>
      </trkpt>
      <trkpt lat="43.882660" lon="8.022670">
       <ele>24.06</ele>
       <time>2014-11-03T23:24:32Z</time>
      </trkpt>
      <trkpt lat="43.882860" lon="8.023440">
       <ele>27.22</ele>
       <time>2014-11-03T23:24:44Z</time>
      </trkpt>
      <trkpt lat="43.882890" lon="8.023970">
       <ele>26.31</ele>
       <time>2014-11-03T23:24:52Z</time>
      </trkpt>
      <trkpt lat="43.882940" lon="8.024220">
       <ele>26.55</ele>
       <time>2014-11-03T23:24:56Z</time>
      </trkpt>
      <trkpt lat="43.883120" lon="8.024760">
       <ele>24.96</ele>
       <time>2014-11-03T23:25:05Z</time>
      </trkpt>
      <trkpt lat="43.883270" lon="8.025070">
       <ele>24.22</ele>
       <time>2014-11-03T23:25:11Z</time>
      </trkpt>
      <trkpt lat="43.883350" lon="8.025200">
       <ele>23.83</ele>
       <time>2014-11-03T23:25:13Z</time>
      </trkpt>
      <trkpt lat="43.883990" lon="8.026010">
       <ele>27.68</ele>
       <time>2014-11-03T23:25:31Z</time>
      </trkpt>
      <trkpt lat="43.884500" lon="8.026610">
       <ele>29.04</ele>
       <time>2014-11-03T23:25:45Z</time>
      </trkpt>
      <trkpt lat="43.885120" lon="8.027500">
       <ele>25.01</ele>
       <time>2014-11-03T23:26:04Z</time>
      </trkpt>
      <trkpt lat="43.885480" lon="8.028210">
       <ele>20.49</ele>
       <time>2014-11-03T23:26:16Z</time>
      </trkpt>
      <trkpt lat="43.885680" lon="8.028550">
       <ele>19.23</ele>
       <time>2014-11-03T23:26:23Z</time>
      </trkpt>
      <trkpt lat="43.886380" lon="8.029560">
       <ele>18.26</ele>
       <time>2014-11-03T23:26:44Z</time>
      </trkpt>
      <trkpt lat="43.886810" lon="8.030160">
       <ele>17.51</ele>
       <time>2014-11-03T23:26:57Z</time>
      </trkpt>
      <trkpt lat="43.886940" lon="8.030310">
       <ele>17.56</ele>
       <time>2014-11-03T23:27:00Z</time>
      </trkpt>
      <trkpt lat="43.887160" lon="8.030610">
       <ele>16.25</ele>
       <time>2014-11-03T23:27:07Z</time>
      </trkpt>
      <trkpt lat="43.887850" lon="8.031430">
       <ele>15.25</ele>
       <time>2014-11-03T23:27:25Z</time>
      </trkpt>
      <trkpt lat="43.887900" lon="8.031540">
       <ele>14.61</ele>
       <time>2014-11-03T23:27:27Z</time>
      </trkpt>
      <trkpt lat="43.888000" lon="8.031960">
       <ele>13.09</ele>
       <time>2014-11-03T23:27:34Z</time>
      </trkpt>
      <trkpt lat="43.888120" lon="8.032140">
       <ele>13.16</ele>
       <time>2014-11-03T23:27:38Z</time>
      </trkpt>
      <trkpt lat="43.888200" lon="8.032220">
       <ele>13.31</ele>
       <time>2014-11-03T23:27:40Z</time>
      </trkpt>
      <trkpt lat="43.888870" lon="8.032680">
       <ele>14.44</ele>
       <time>2014-11-03T23:27:55Z</time>
      </trkpt>
      <trkpt lat="43.889040" lon="8.032820">
       <ele>14.51</ele>
       <time>2014-11-03T23:27:59Z</time>
      </trkpt>
      <trkpt lat="43.890400" lon="8.034250">
       <ele>9.19</ele>
       <time>2014-11-03T23:28:35Z</time>
      </trkpt>
      <trkpt lat="43.890500" lon="8.034400">
       <ele>8.65</ele>
       <time>2014-11-03T23:28:38Z</time>
      </trkpt>
      <trkpt lat="43.890570" lon="8.034710">
       <ele>7.25</ele>
       <time>2014-11-03T23:28:43Z</time>
      </trkpt>
      <trkpt lat="43.890460" lon="8.035360">
       <ele>6.82</ele>
       <time>2014-11-03T23:28:52Z</time>
      </trkpt>
      <trkpt lat="43.890290" lon="8.036190">
       <ele>8.79</ele>
       <time>2014-11-03T23:29:05Z</time>
      </trkpt>
      <trkpt lat="43.890050" lon="8.037630">
       <ele>11.58</ele>
       <time>2014-11-03T23:29:27Z</time>
      </trkpt>
      <trkpt lat="43.890020" lon="8.037620">
       <ele>11.75</ele>
       <time>2014-11-03T23:29:28Z</time>
      </trkpt>
      <trkpt lat="43.889980" lon="8.037660">
       <ele>11.82</ele>
       <time>2014-11-03T23:29:29Z</time>
      </trkpt>
      <trkpt lat="43.889980" lon="8.037730">
       <ele>11.73</ele>
       <time>2014-11-03T23:29:30Z</time>
      </trkpt>
      <trkpt lat="43.890010" lon="8.037770">
       <ele>11.62</ele>
       <time>2014-11-03T23:29:31Z</time>
      </trkpt>
      <trkpt lat="43.890030" lon="8.037770">
       <ele>11.53</ele>
       <time>2014-11-03T23:29:31Z</time>
      </trkpt>
      <trkpt lat="43.889890" lon="8.038440">
       <ele>10.73</ele>
       <time>2014-11-03T23:29:42Z</time>
      </trkpt>
      <trkpt lat="43.889730" lon="8.039350">
       <ele>11.01</ele>
       <time>2014-11-03T23:29:56Z</time>
      </trkpt>
      <trkpt lat="43.889640" lon="8.039350">
       <ele>10.8</ele>
       <time>2014-11-03T23:29:58Z</time>
      </trkpt>
      <trkpt lat="43.889590" lon="8.039400">
       <ele>10.86</ele>
       <time>2014-11-03T23:29:59Z</time>
      </trkpt>
      <trkpt lat="43.889560" lon="8.039470">
       <ele>11.04</ele>
       <time>2014-11-03T23:30:00Z</time>
      </trkpt>
      <trkpt lat="43.889560" lon="8.039570">
       <ele>11.4</ele>
       <time>2014-11-03T23:30:02Z</time>
      </trkpt>
      <trkpt lat="43.888070" lon="8.040110">
       <ele>11.14</ele>
       <time>2014-11-03T23:30:34Z</time>
      </trkpt>
      <trkpt lat="43.887880" lon="8.040250">
       <ele>10.47</ele>
       <time>2014-11-03T23:30:38Z</time>
      </trkpt>
      <trkpt lat="43.887820" lon="8.040370">
       <ele>10.16</ele>
       <time>2014-11-03T23:30:40Z</time>
      </trkpt>
      <trkpt lat="43.887880" lon="8.040490">
       <ele>10.05</ele>
       <time>2014-11-03T23:30:42Z</time>
      </trkpt>
      <trkpt lat="43.887950" lon="8.041250">
       <ele>10.81</ele>
       <time>2014-11-03T23:30:54Z</time>
      </trkpt>
      <trkpt lat="43.887990" lon="8.041940">
       <ele>12.04</ele>
       <time>2014-11-03T23:31:04Z</time>
      </trkpt>
      <trkpt lat="43.888020" lon="8.044680">
       <ele>10.74</ele>
       <time>2014-11-03T23:31:45Z</time>
      </trkpt>
      <trkpt lat="43.888020" lon="8.044820">
       <ele>10.47</ele>
       <time>2014-11-03T23:31:47Z</time>
      </trkpt>
      <trkpt lat="43.887970" lon="8.045070">
       <ele>9.79</ele>
       <time>2014-11-03T23:31:51Z</time>
      </trkpt>
      <trkpt lat="43.887940" lon="8.045150">
       <ele>9.56</ele>
       <time>2014-11-03T23:31:53Z</time>
      </trkpt>
      <trkpt lat="43.887880" lon="8.045540">
       <ele>8.86</ele>
       <time>2014-11-03T23:31:58Z</time>
      </trkpt>
      <trkpt lat="43.887840" lon="8.046440">
       <ele>8.7</ele>
       <time>2014-11-03T23:32:12Z</time>
      </trkpt>
      <trkpt lat="43.888370" lon="8.046560">
       <ele>13.13</ele>
       <time>2014-11-03T23:32:23Z</time>
      </trkpt>
      <trkpt lat="43.888230" lon="8.047350">
       <ele>16.43</ele>
       <time>2014-11-03T23:32:35Z</time>
      </trkpt>
      <trkpt lat="43.888160" lon="8.047840">
       <ele>18.81</ele>
       <time>2014-11-03T23:32:43Z</time>
      </trkpt>
      <trkpt lat="43.888100" lon="8.049840">
       <ele>30.17</ele>
       <time>2014-11-03T23:33:13Z</time>
      </trkpt>
      <trkpt lat="43.888000" lon="8.050160">
       <ele>28.07</ele>
       <time>2014-11-03T23:33:18Z</time>
      </trkpt>
      <trkpt lat="43.887960" lon="8.050420">
       <ele>27.32</ele>
       <time>2014-11-03T23:33:22Z</time>
      </trkpt>
      <trkpt lat="43.888000" lon="8.050950">
       <ele>31.07</ele>
       <time>2014-11-03T23:33:30Z</time>
      </trkpt>
      <trkpt lat="43.888060" lon="8.051400">
       <ele>34.73</ele>
       <time>2014-11-03T23:33:37Z</time>
      </trkpt>
      <trkpt lat="43.888060" lon="8.051810">
       <ele>35.19</ele>
       <time>2014-11-03T23:33:43Z</time>
      </trkpt>
      <trkpt lat="43.888030" lon="8.052610">
       <ele>33.27</ele>
       <time>2014-11-03T23:33:55Z</time>
      </trkpt>
      <trkpt lat="43.888060" lon="8.052790">
       <ele>33.61</ele>
       <time>2014-11-03T23:33:57Z</time>
      </trkpt>
      <trkpt lat="43.888330" lon="8.053330">
       <ele>40.84</ele>
       <time>2014-11-03T23:34:07Z</time>
      </trkpt>
      <trkpt lat="43.888360" lon="8.053610">
       <ele>41.97</ele>
       <time>2014-11-03T23:34:12Z</time>
      </trkpt>
      <trkpt lat="43.888350" lon="8.054180">
       <ele>42.29</ele>
       <time>2014-11-03T23:34:20Z</time>
      </trkpt>
      <trkpt lat="43.888390" lon="8.054350">
       <ele>41.61</ele>
       <time>2014-11-03T23:34:23Z</time>
      </trkpt>
      <trkpt lat="43.888620" lon="8.054850">
       <ele>45.95</ele>
       <time>2014-11-03T23:34:32Z</time>
      </trkpt>
      <trkpt lat="43.888650" lon="8.054960">
       <ele>46.78</ele>
       <time>2014-11-03T23:34:33Z</time>
      </trkpt>
      <trkpt lat="43.888710" lon="8.055540">
       <ele>42.44</ele>
       <time>2014-11-03T23:34:42Z</time>
      </trkpt>
      <trkpt lat="43.888770" lon="8.055660">
       <ele>43.61</ele>
       <time>2014-11-03T23:34:44Z</time>
      </trkpt>
      <trkpt lat="43.888850" lon="8.055750">
       <ele>46.03</ele>
       <time>2014-11-03T23:34:46Z</time>
      </trkpt>
      <trkpt lat="43.889600" lon="8.056290">
       <ele>64.74</ele>
       <time>2014-11-03T23:35:04Z</time>
      </trkpt>
      <trkpt lat="43.889660" lon="8.056360">
       <ele>65.34</ele>
       <time>2014-11-03T23:35:06Z</time>
      </trkpt>
      <trkpt lat="43.889710" lon="8.056490">
       <ele>64.39</ele>
       <time>2014-11-03T23:35:08Z</time>
      </trkpt>
      <trkpt lat="43.889720" lon="8.056660">
       <ele>61.43</ele>
       <time>2014-11-03T23:35:10Z</time>
      </trkpt>
      <trkpt lat="43.889700" lon="8.056760">
       <ele>60.37</ele>
       <time>2014-11-03T23:35:12Z</time>
      </trkpt>
      <trkpt lat="43.889590" lon="8.057000">
       <ele>56.24</ele>
       <time>2014-11-03T23:35:16Z</time>
      </trkpt>
      <trkpt lat="43.889550" lon="8.057190">
       <ele>54.44</ele>
       <time>2014-11-03T23:35:19Z</time>
      </trkpt>
      <trkpt lat="43.889560" lon="8.057220">
       <ele>54.69</ele>
       <time>2014-11-03T23:35:20Z</time>
      </trkpt>
      <trkpt lat="43.889900" lon="8.057540">
       <ele>63.36</ele>
       <time>2014-11-03T23:35:28Z</time>
      </trkpt>
      <trkpt lat="43.889950" lon="8.057620">
       <ele>64.94</ele>
       <time>2014-11-03T23:35:30Z</time>
      </trkpt>
      <trkpt lat="43.889990" lon="8.057750">
       <ele>66.38</ele>
       <time>2014-11-03T23:35:32Z</time>
      </trkpt>
      <trkpt lat="43.890000" lon="8.057920">
       <ele>66.99</ele>
       <time>2014-11-03T23:35:34Z</time>
      </trkpt>
      <trkpt lat="43.889980" lon="8.058120">
       <ele>67.01</ele>
       <time>2014-11-03T23:35:37Z</time>
      </trkpt>
      <trkpt lat="43.889920" lon="8.058290">
       <ele>66.03</ele>
       <time>2014-11-03T23:35:40Z</time>
      </trkpt>
      <trkpt lat="43.889860" lon="8.058400">
       <ele>65.89</ele>
       <time>2014-11-03T23:35:42Z</time>
      </trkpt>
      <trkpt lat="43.889800" lon="8.058460">
       <ele>65.53</ele>
       <time>2014-11-03T23:35:44Z</time>
      </trkpt>
      <trkpt lat="43.889600" lon="8.058600">
       <ele>62.73</ele>
       <time>2014-11-03T23:35:48Z</time>
      </trkpt>
      <trkpt lat="43.889570" lon="8.058640">
       <ele>62.53</ele>
       <time>2014-11-03T23:35:49Z</time>
      </trkpt>
      <trkpt lat="43.889420" lon="8.058930">
       <ele>62.52</ele>
       <time>2014-11-03T23:35:55Z</time>
      </trkpt>
      <trkpt lat="43.889360" lon="8.059110">
       <ele>63.05</ele>
       <time>2014-11-03T23:35:58Z</time>
      </trkpt>
      <trkpt lat="43.889350" lon="8.059280">
       <ele>63.28</ele>
       <time>2014-11-03T23:36:00Z</time>
      </trkpt>
      <trkpt lat="43.889450" lon="8.059930">
       <ele>66.93</ele>
       <time>2014-11-03T23:36:10Z</time>
      </trkpt>
      <trkpt lat="43.889440" lon="8.060660">
       <ele>66.62</ele>
       <time>2014-11-03T23:36:21Z</time>
      </trkpt>
      <trkpt lat="43.889480" lon="8.060880">
       <ele>68.69</ele>
       <time>2014-11-03T23:36:24Z</time>
      </trkpt>
      <trkpt lat="43.889700" lon="8.061270">
       <ele>78.62</ele>
       <time>2014-11-03T23:36:32Z</time>
      </trkpt>
      <trkpt lat="43.889790" lon="8.061500">
       <ele>82.24</ele>
       <time>2014-11-03T23:36:36Z</time>
      </trkpt>
      <trkpt lat="43.889820" lon="8.061710">
       <ele>83.09</ele>
       <time>2014-11-03T23:36:39Z</time>
      </trkpt>
      <trkpt lat="43.889820" lon="8.061930">
       <ele>83.18</ele>
       <time>2014-11-03T23:36:42Z</time>
      </trkpt>
      <trkpt lat="43.889760" lon="8.062210">
       <ele>79.79</ele>
       <time>2014-11-03T23:36:47Z</time>
      </trkpt>
      <trkpt lat="43.889770" lon="8.062450">
       <ele>80.5</ele>
       <time>2014-11-03T23:36:50Z</time>
      </trkpt>
      <trkpt lat="43.889890" lon="8.062870">
       <ele>84.44</ele>
       <time>2014-11-03T23:36:57Z</time>
      </trkpt>
      <trkpt lat="43.889980" lon="8.063460">
       <ele>85.18</ele>
       <time>2014-11-03T23:37:06Z</time>
      </trkpt>
      <trkpt lat="43.890250" lon="8.064500">
       <ele>87.75</ele>
       <time>2014-11-03T23:37:22Z</time>
      </trkpt>
      <trkpt lat="43.890330" lon="8.065000">
       <ele>85.89</ele>
       <time>2014-11-03T23:37:30Z</time>
      </trkpt>
      <trkpt lat="43.890540" lon="8.065760">
       <ele>92.12</ele>
       <time>2014-11-03T23:37:42Z</time>
      </trkpt>
      <trkpt lat="43.890820" lon="8.066120">
       <ele>103.25</ele>
       <time>2014-11-03T23:37:50Z</time>
      </trkpt>
      <trkpt lat="43.890880" lon="8.066310">
       <ele>104.41</ele>
       <time>2014-11-03T23:37:53Z</time>
      </trkpt>
      <trkpt lat="43.890870" lon="8.067480">
       <ele>101.84</ele>
       <time>2014-11-03T23:38:11Z</time>
      </trkpt>
      <trkpt lat="43.890920" lon="8.067830">
       <ele>103.3</ele>
       <time>2014-11-03T23:38:16Z</time>
      </trkpt>
      <trkpt lat="43.891060" lon="8.068280">
       <ele>109.39</ele>
       <time>2014-11-03T23:38:23Z</time>
      </trkpt>
      <trkpt lat="43.891610" lon="8.069700">
       <ele>115.29</ele>
       <time>2014-11-03T23:38:47Z</time>
      </trkpt>
      <trkpt lat="43.891720" lon="8.069910">
       <ele>118.74</ele>
       <time>2014-11-03T23:38:51Z</time>
      </trkpt>
      <trkpt lat="43.891960" lon="8.070250">
       <ele>121.4</ele>
       <time>2014-11-03T23:38:58Z</time>
      </trkpt>
      <trkpt lat="43.892020" lon="8.070380">
       <ele>121.17</ele>
       <time>2014-11-03T23:39:01Z</time>
      </trkpt>
      <trkpt lat="43.892290" lon="8.071110">
       <ele>122.53</ele>
       <time>2014-11-03T23:39:13Z</time>
      </trkpt>
      <trkpt lat="43.892870" lon="8.072510">
       <ele>123.28</ele>
       <time>2014-11-03T23:39:37Z</time>
      </trkpt>
      <trkpt lat="43.893000" lon="8.072740">
       <ele>122.32</ele>
       <time>2014-11-03T23:39:42Z</time>
      </trkpt>
      <trkpt lat="43.893470" lon="8.073270">
       <ele>131.55</ele>
       <time>2014-11-03T23:39:54Z</time>
      </trkpt>
      <trkpt lat="43.893700" lon="8.073580">
       <ele>127.04</ele>
       <time>2014-11-03T23:40:01Z</time>
      </trkpt>
      <trkpt lat="43.893770" lon="8.073640">
       <ele>127.03</ele>
       <time>2014-11-03T23:40:02Z</time>
      </trkpt>
      <trkpt lat="43.894200" lon="8.074140">
       <ele>125.14</ele>
       <time>2014-11-03T23:40:14Z</time>
      </trkpt>
      <trkpt lat="43.894280" lon="8.074210">
       <ele>123.6</ele>
       <time>2014-11-03T23:40:16Z</time>
      </trkpt>
      <trkpt lat="43.894920" lon="8.074580">
       <ele>121.73</ele>
       <time>2014-11-03T23:40:30Z</time>
      </trkpt>
      <trkpt lat="43.895050" lon="8.074680">
       <ele>120.56</ele>
       <time>2014-11-03T23:40:33Z</time>
      </trkpt>
      <trkpt lat="43.895120" lon="8.074810">
       <ele>117.74</ele>
       <time>2014-11-03T23:40:36Z</time>
      </trkpt>
      <trkpt lat="43.895180" lon="8.075020">
       <ele>114.17</ele>
       <time>2014-11-03T23:40:39Z</time>
      </trkpt>
      <trkpt lat="43.895190" lon="8.075250">
       <ele>111.25</ele>
       <time>2014-11-03T23:40:43Z</time>
      </trkpt>
      <trkpt lat="43.895160" lon="8.075690">
       <ele>105.22</ele>
       <time>2014-11-03T23:40:49Z</time>
      </trkpt>
      <trkpt lat="43.895210" lon="8.075940">
       <ele>101.5</ele>
       <time>2014-11-03T23:40:53Z</time>
      </trkpt>
      <trkpt lat="43.895270" lon="8.076050">
       <ele>100.03</ele>
       <time>2014-11-03T23:40:55Z</time>
      </trkpt>
      <trkpt lat="43.895350" lon="8.076130">
       <ele>99.82</ele>
       <time>2014-11-03T23:40:57Z</time>
      </trkpt>
      <trkpt lat="43.895450" lon="8.076190">
       <ele>100.65</ele>
       <time>2014-11-03T23:41:00Z</time>
      </trkpt>
      <trkpt lat="43.895590" lon="8.076220">
       <ele>103.14</ele>
       <time>2014-11-03T23:41:02Z</time>
      </trkpt>
      <trkpt lat="43.895760" lon="8.076290">
       <ele>105.83</ele>
       <time>2014-11-03T23:41:06Z</time>
      </trkpt>
      <trkpt lat="43.896070" lon="8.076570">
       <ele>100.02</ele>
       <time>2014-11-03T23:41:14Z</time>
      </trkpt>
      <trkpt lat="43.896160" lon="8.076620">
       <ele>97.94</ele>
       <time>2014-11-03T23:41:16Z</time>
      </trkpt>
      <trkpt lat="43.896250" lon="8.076620">
       <ele>96.36</ele>
       <time>2014-11-03T23:41:18Z</time>
      </trkpt>
      <trkpt lat="43.896350" lon="8.076580">
       <ele>94.96</ele>
       <time>2014-11-03T23:41:20Z</time>
      </trkpt>
      <trkpt lat="43.896420" lon="8.076530">
       <ele>94.1</ele>
       <time>2014-11-03T23:41:22Z</time>
      </trkpt>
      <trkpt lat="43.896500" lon="8.076380">
       <ele>93.6</ele>
       <time>2014-11-03T23:41:24Z</time>
      </trkpt>
      <trkpt lat="43.896570" lon="8.076060">
       <ele>94.08</ele>
       <time>2014-11-03T23:41:29Z</time>
      </trkpt>
      <trkpt lat="43.896600" lon="8.075680">
       <ele>94.67</ele>
       <time>2014-11-03T23:41:35Z</time>
      </trkpt>
      <trkpt lat="43.896560" lon="8.075120">
       <ele>95.87</ele>
       <time>2014-11-03T23:41:43Z</time>
      </trkpt>
      <trkpt lat="43.896570" lon="8.074810">
       <ele>97.07</ele>
       <time>2014-11-03T23:41:48Z</time>
      </trkpt>
      <trkpt lat="43.896600" lon="8.074720">
       <ele>96.98</ele>
       <time>2014-11-03T23:41:50Z</time>
      </trkpt>
      <trkpt lat="43.896650" lon="8.074660">
       <ele>96.28</ele>
       <time>2014-11-03T23:41:51Z</time>
      </trkpt>
      <trkpt lat="43.896690" lon="8.074620">
       <ele>95.92</ele>
       <time>2014-11-03T23:41:52Z</time>
      </trkpt>
      <trkpt lat="43.896760" lon="8.074590">
       <ele>95.4</ele>
       <time>2014-11-03T23:41:53Z</time>
      </trkpt>
      <trkpt lat="43.896850" lon="8.074590">
       <ele>94.35</ele>
       <time>2014-11-03T23:41:55Z</time>
      </trkpt>
      <trkpt lat="43.896960" lon="8.074650">
       <ele>92.67</ele>
       <time>2014-11-03T23:41:58Z</time>
      </trkpt>
      <trkpt lat="43.897280" lon="8.074970">
       <ele>87.27</ele>
       <time>2014-11-03T23:42:06Z</time>
      </trkpt>
      <trkpt lat="43.897590" lon="8.075400">
       <ele>78.6</ele>
       <time>2014-11-03T23:42:15Z</time>
      </trkpt>
      <trkpt lat="43.897940" lon="8.076160">
       <ele>69.89</ele>
       <time>2014-11-03T23:42:28Z</time>
      </trkpt>
      <trkpt lat="43.898020" lon="8.076290">
       <ele>68.77</ele>
       <time>2014-11-03T23:42:31Z</time>
      </trkpt>
      <trkpt lat="43.898330" lon="8.076710">
       <ele>65.22</ele>
       <time>2014-11-03T23:42:40Z</time>
      </trkpt>
      <trkpt lat="43.898420" lon="8.076770">
       <ele>61.87</ele>
       <time>2014-11-03T23:42:42Z</time>
      </trkpt>
      <trkpt lat="43.898530" lon="8.076790">
       <ele>58.59</ele>
       <time>2014-11-03T23:42:44Z</time>
      </trkpt>
      <trkpt lat="43.898580" lon="8.076780">
       <ele>57.42</ele>
       <time>2014-11-03T23:42:45Z</time>
      </trkpt>
      <trkpt lat="43.898680" lon="8.076720">
       <ele>55.58</ele>
       <time>2014-11-03T23:42:48Z</time>
      </trkpt>
      <trkpt lat="43.898760" lon="8.076580">
       <ele>54.53</ele>
       <time>2014-11-03T23:42:50Z</time>
      </trkpt>
      <trkpt lat="43.898790" lon="8.076410">
       <ele>54.47</ele>
       <time>2014-11-03T23:42:53Z</time>
      </trkpt>
      <trkpt lat="43.898790" lon="8.076250">
       <ele>55.12</ele>
       <time>2014-11-03T23:42:55Z</time>
      </trkpt>
      <trkpt lat="43.898740" lon="8.075950">
       <ele>57.85</ele>
       <time>2014-11-03T23:43:00Z</time>
      </trkpt>
      <trkpt lat="43.898460" lon="8.074790">
       <ele>67.49</ele>
       <time>2014-11-03T23:43:18Z</time>
      </trkpt>
      <trkpt lat="43.898470" lon="8.074680">
       <ele>68.23</ele>
       <time>2014-11-03T23:43:20Z</time>
      </trkpt>
      <trkpt lat="43.898530" lon="8.074590">
       <ele>68.53</ele>
       <time>2014-11-03T23:43:22Z</time>
      </trkpt>
      <trkpt lat="43.898590" lon="8.074580">
       <ele>68.19</ele>
       <time>2014-11-03T23:43:23Z</time>
      </trkpt>
      <trkpt lat="43.898660" lon="8.074610">
       <ele>67.33</ele>
       <time>2014-11-03T23:43:25Z</time>
      </trkpt>
      <trkpt lat="43.899100" lon="8.075010">
       <ele>55</ele>
       <time>2014-11-03T23:43:35Z</time>
      </trkpt>
      <trkpt lat="43.899240" lon="8.075110">
       <ele>52.46</ele>
       <time>2014-11-03T23:43:39Z</time>
      </trkpt>
      <trkpt lat="43.899470" lon="8.075210">
       <ele>49.9</ele>
       <time>2014-11-03T23:43:44Z</time>
      </trkpt>
      <trkpt lat="43.899610" lon="8.075290">
       <ele>47.81</ele>
       <time>2014-11-03T23:43:47Z</time>
      </trkpt>
      <trkpt lat="43.899710" lon="8.075380">
       <ele>45.54</ele>
       <time>2014-11-03T23:43:49Z</time>
      </trkpt>
      <trkpt lat="43.899930" lon="8.075630">
       <ele>38.92</ele>
       <time>2014-11-03T23:43:55Z</time>
      </trkpt>
      <trkpt lat="43.900050" lon="8.075710">
       <ele>36.02</ele>
       <time>2014-11-03T23:43:58Z</time>
      </trkpt>
      <trkpt lat="43.900130" lon="8.075720">
       <ele>35.06</ele>
       <time>2014-11-03T23:44:00Z</time>
      </trkpt>
      <trkpt lat="43.900280" lon="8.075660">
       <ele>34.7</ele>
       <time>2014-11-03T23:44:03Z</time>
      </trkpt>
      <trkpt lat="43.900440" lon="8.075540">
       <ele>34.99</ele>
       <time>2014-11-03T23:44:07Z</time>
      </trkpt>
      <trkpt lat="43.900560" lon="8.075490">
       <ele>34.38</ele>
       <time>2014-11-03T23:44:09Z</time>
      </trkpt>
      <trkpt lat="43.901000" lon="8.075410">
       <ele>29.36</ele>
       <time>2014-11-03T23:44:18Z</time>
      </trkpt>
      <trkpt lat="43.901070" lon="8.075370">
       <ele>28.65</ele>
       <time>2014-11-03T23:44:20Z</time>
      </trkpt>
      <trkpt lat="43.901130" lon="8.075310">
       <ele>28.24</ele>
       <time>2014-11-03T23:44:22Z</time>
      </trkpt>
      <trkpt lat="43.901220" lon="8.075160">
       <ele>28.13</ele>
       <time>2014-11-03T23:44:24Z</time>
      </trkpt>
      <trkpt lat="43.901240" lon="8.075060">
       <ele>28.63</ele>
       <time>2014-11-03T23:44:26Z</time>
      </trkpt>
      <trkpt lat="43.901260" lon="8.074510">
       <ele>33.82</ele>
       <time>2014-11-03T23:44:34Z</time>
      </trkpt>
      <trkpt lat="43.901280" lon="8.074470">
       <ele>33.91</ele>
       <time>2014-11-03T23:44:35Z</time>
      </trkpt>
      <trkpt lat="43.901360" lon="8.074390">
       <ele>33.4</ele>
       <time>2014-11-03T23:44:37Z</time>
      </trkpt>
      <trkpt lat="43.901470" lon="8.074380">
       <ele>31.69</ele>
       <time>2014-11-03T23:44:39Z</time>
      </trkpt>
      <trkpt lat="43.901550" lon="8.074400">
       <ele>30.13</ele>
       <time>2014-11-03T23:44:41Z</time>
      </trkpt>
      <trkpt lat="43.901730" lon="8.074480">
       <ele>27.52</ele>
       <time>2014-11-03T23:44:45Z</time>
      </trkpt>
      <trkpt lat="43.901860" lon="8.074560">
       <ele>27.01</ele>
       <time>2014-11-03T23:44:48Z</time>
      </trkpt>
      <trkpt lat="43.902000" lon="8.074730">
       <ele>25.02</ele>
       <time>2014-11-03T23:44:52Z</time>
      </trkpt>
      <trkpt lat="43.902070" lon="8.074850">
       <ele>23.32</ele>
       <time>2014-11-03T23:44:54Z</time>
      </trkpt>
      <trkpt lat="43.902200" lon="8.074970">
       <ele>21.49</ele>
       <time>2014-11-03T23:44:57Z</time>
      </trkpt>
      <trkpt lat="43.902810" lon="8.075330">
       <ele>15.13</ele>
       <time>2014-11-03T23:45:11Z</time>
      </trkpt>
      <trkpt lat="43.903050" lon="8.075520">
       <ele>12.28</ele>
       <time>2014-11-03T23:45:17Z</time>
      </trkpt>
      <trkpt lat="43.903150" lon="8.075670">
       <ele>10.59</ele>
       <time>2014-11-03T23:45:20Z</time>
      </trkpt>
      <trkpt lat="43.903230" lon="8.075860">
       <ele>8.91</ele>
       <time>2014-11-03T23:45:23Z</time>
      </trkpt>
      <trkpt lat="43.903680" lon="8.077210">
       <ele>6.14</ele>
       <time>2014-11-03T23:45:45Z</time>
      </trkpt>
      <trkpt lat="43.903750" lon="8.077350">
       <ele>6.09</ele>
       <time>2014-11-03T23:45:48Z</time>
      </trkpt>
      <trkpt lat="43.903840" lon="8.077480">
       <ele>6.01</ele>
       <time>2014-11-03T23:45:51Z</time>
      </trkpt>
      <trkpt lat="43.904020" lon="8.077660">
       <ele>5.86</ele>
       <time>2014-11-03T23:45:55Z</time>
      </trkpt>
      <trkpt lat="43.904350" lon="8.077910">
       <ele>6.22</ele>
       <time>2014-11-03T23:46:03Z</time>
      </trkpt>
      <trkpt lat="43.905060" lon="8.078590">
       <ele>6.48</ele>
       <time>2014-11-03T23:46:21Z</time>
      </trkpt>
      <trkpt lat="43.905420" lon="8.078970">
       <ele>6.36</ele>
       <time>2014-11-03T23:46:30Z</time>
      </trkpt>
      <trkpt lat="43.906400" lon="8.079940">
       <ele>5.48</ele>
       <time>2014-11-03T23:46:55Z</time>
      </trkpt>
      <trkpt lat="43.907080" lon="8.080640">
       <ele>5.46</ele>
       <time>2014-11-03T23:47:13Z</time>
      </trkpt>
      <trkpt lat="43.908010" lon="8.081630">
       <ele>6.63</ele>
       <time>2014-11-03T23:47:37Z</time>
      </trkpt>
      <trkpt lat="43.908400" lon="8.082120">
       <ele>6.13</ele>
       <time>2014-11-03T23:47:48Z</time>
      </trkpt>
      <trkpt lat="43.908620" lon="8.082460">
       <ele>6.42</ele>
       <time>2014-11-03T23:47:55Z</time>
      </trkpt>
      <trkpt lat="43.909250" lon="8.083480">
       <ele>7.59</ele>
       <time>2014-11-03T23:48:15Z</time>
      </trkpt>
      <trkpt lat="43.910120" lon="8.085020">
       <ele>4.19</ele>
       <time>2014-11-03T23:48:44Z</time>
      </trkpt>
      <trkpt lat="43.910240" lon="8.085180">
       <ele>3.84</ele>
       <time>2014-11-03T23:48:47Z</time>
      </trkpt>
      <trkpt lat="43.910300" lon="8.085230">
       <ele>3.82</ele>
       <time>2014-11-03T23:48:49Z</time>
      </trkpt>
      <trkpt lat="43.910640" lon="8.085330">
       <ele>4.56</ele>
       <time>2014-11-03T23:48:56Z</time>
      </trkpt>
      <trkpt lat="43.910990" lon="8.085560">
       <ele>5.04</ele>
       <time>2014-11-03T23:49:04Z</time>
      </trkpt>
      <trkpt lat="43.911270" lon="8.085790">
       <ele>5.15</ele>
       <time>2014-11-03T23:49:11Z</time>
      </trkpt>
      <trkpt lat="43.911190" lon="8.085980">
       <ele>4.78</ele>
       <time>2014-11-03T23:49:14Z</time>
      </trkpt>
      <trkpt lat="43.911270" lon="8.085790">
       <ele>5.15</ele>
       <time>2014-11-03T23:49:17Z</time>
      </trkpt>
      <trkpt lat="43.912330" lon="8.086530">
       <ele>5.16</ele>
       <time>2014-11-03T23:49:42Z</time>
      </trkpt>
      <trkpt lat="43.913480" lon="8.087380">
       <ele>7.59</ele>
       <time>2014-11-03T23:50:09Z</time>
      </trkpt>
      <trkpt lat="43.914020" lon="8.087750">
       <ele>6.57</ele>
       <time>2014-11-03T23:50:22Z</time>
      </trkpt>
      <trkpt lat="43.916080" lon="8.089270">
       <ele>5.48</ele>
       <time>2014-11-03T23:51:10Z</time>
      </trkpt>
      <trkpt lat="43.917250" lon="8.090110">
       <ele>6.13</ele>
       <time>2014-11-03T23:51:37Z</time>
      </trkpt>
      <trkpt lat="43.917440" lon="8.090260">
       <ele>6.31</ele>
       <time>2014-11-03T23:51:42Z</time>
      </trkpt>
      <trkpt lat="43.917630" lon="8.090460">
       <ele>6.78</ele>
       <time>2014-11-03T23:51:47Z</time>
      </trkpt>
      <trkpt lat="43.917750" lon="8.090640">
       <ele>7.14</ele>
       <time>2014-11-03T23:51:50Z</time>
      </trkpt>
      <trkpt lat="43.917920" lon="8.091030">
       <ele>7.15</ele>
       <time>2014-11-03T23:51:57Z</time>
      </trkpt>
      <trkpt lat="43.918580" lon="8.093120">
       <ele>8.04</ele>
       <time>2014-11-03T23:52:31Z</time>
      </trkpt>
      <trkpt lat="43.919780" lon="8.096770">
       <ele>8.33</ele>
       <time>2014-11-03T23:53:31Z</time>
      </trkpt>
      <trkpt lat="43.920320" lon="8.098500">
       <ele>9.69</ele>
       <time>2014-11-03T23:53:59Z</time>
      </trkpt>
      <trkpt lat="43.920760" lon="8.099810">
       <ele>9.3</ele>
       <time>2014-11-03T23:54:21Z</time>
      </trkpt>
      <trkpt lat="43.920890" lon="8.100250">
       <ele>8.68</ele>
       <time>2014-11-03T23:54:28Z</time>
      </trkpt>
      <trkpt lat="43.921650" lon="8.102580">
       <ele>8.9</ele>
       <time>2014-11-03T23:55:06Z</time>
      </trkpt>
      <trkpt lat="43.922000" lon="8.103750">
       <ele>7.8</ele>
       <time>2014-11-03T23:55:25Z</time>
      </trkpt>
      <trkpt lat="43.922490" lon="8.105160">
       <ele>6.64</ele>
       <time>2014-11-03T23:55:49Z</time>
      </trkpt>
      <trkpt lat="43.923130" lon="8.107100">
       <ele>6.03</ele>
       <time>2014-11-03T23:56:20Z</time>
      </trkpt>
      <trkpt lat="43.923190" lon="8.107300">
       <ele>6.42</ele>
       <time>2014-11-03T23:56:24Z</time>
      </trkpt>
      <trkpt lat="43.923370" lon="8.108320">
       <ele>5.12</ele>
       <time>2014-11-03T23:56:39Z</time>
      </trkpt>
      <trkpt lat="43.923510" lon="8.108560">
       <ele>5.43</ele>
       <time>2014-11-03T23:56:44Z</time>
      </trkpt>
      <trkpt lat="43.923640" lon="8.108690">
       <ele>5.74</ele>
       <time>2014-11-03T23:56:47Z</time>
      </trkpt>
      <trkpt lat="43.923960" lon="8.108950">
       <ele>6.51</ele>
       <time>2014-11-03T23:56:55Z</time>
      </trkpt>
      <trkpt lat="43.924050" lon="8.109060">
       <ele>6.72</ele>
       <time>2014-11-03T23:56:57Z</time>
      </trkpt>
      <trkpt lat="43.924140" lon="8.109290">
       <ele>7.08</ele>
       <time>2014-11-03T23:57:01Z</time>
      </trkpt>
      <trkpt lat="43.924250" lon="8.110370">
       <ele>7.95</ele>
       <time>2014-11-03T23:57:18Z</time>
      </trkpt>
      <trkpt lat="43.924410" lon="8.112490">
       <ele>12.91</ele>
       <time>2014-11-03T23:57:49Z</time>
      </trkpt>
      <trkpt lat="43.924660" lon="8.113760">
       <ele>15.55</ele>
       <time>2014-11-03T23:58:09Z</time>
      </trkpt>
      <trkpt lat="43.924730" lon="8.114510">
       <ele>18.61</ele>
       <time>2014-11-03T23:58:20Z</time>
      </trkpt>
      <trkpt lat="43.924750" lon="8.114930">
       <ele>19.39</ele>
       <time>2014-11-03T23:58:27Z</time>
      </trkpt>
      <trkpt lat="43.924810" lon="8.115160">
       <ele>19.42</ele>
       <time>2014-11-03T23:58:30Z</time>
      </trkpt>
      <trkpt lat="43.925550" lon="8.117140">
       <ele>16.65</ele>
       <time>2014-11-03T23:59:04Z</time>
      </trkpt>
      <trkpt lat="43.925590" lon="8.117300">
       <ele>17.11</ele>
       <time>2014-11-03T23:59:06Z</time>
      </trkpt>
      <trkpt lat="43.925610" lon="8.117480">
       <ele>16.96</ele>
       <time>2014-11-03T23:59:09Z</time>
      </trkpt>
      <trkpt lat="43.925570" lon="8.117710">
       <ele>17.67</ele>
       <time>2014-11-03T23:59:12Z</time>
      </trkpt>
      <trkpt lat="43.925370" lon="8.118310">
       <ele>15.84</ele>
       <time>2014-11-03T23:59:22Z</time>
      </trkpt>
      <trkpt lat="43.925330" lon="8.118480">
       <ele>14.59</ele>
       <time>2014-11-03T23:59:25Z</time>
      </trkpt>
      <trkpt lat="43.925320" lon="8.118710">
       <ele>14.01</ele>
       <time>2014-11-03T23:59:28Z</time>
      </trkpt>
      <trkpt lat="43.925400" lon="8.119220">
       <ele>15.69</ele>
       <time>2014-11-03T23:59:36Z</time>
      </trkpt>
      <trkpt lat="43.925480" lon="8.119490">
       <ele>16.22</ele>
       <time>2014-11-03T23:59:41Z</time>
      </trkpt>
      <trkpt lat="43.925550" lon="8.119650">
       <ele>16.82</ele>
       <time>2014-11-03T23:59:43Z</time>
      </trkpt>
      <trkpt lat="43.925620" lon="8.119780">
       <ele>17.51</ele>
       <time>2014-11-03T23:59:46Z</time>
      </trkpt>
      <trkpt lat="43.925780" lon="8.119990">
       <ele>19.04</ele>
       <time>2014-11-03T23:59:50Z</time>
      </trkpt>
      <trkpt lat="43.925870" lon="8.120160">
       <ele>20.85</ele>
       <time>2014-11-03T23:59:54Z</time>
      </trkpt>
      <trkpt lat="43.925980" lon="8.120420">
       <ele>24.76</ele>
       <time>2014-11-03T23:59:58Z</time>
      </trkpt>
      <trkpt lat="43.926100" lon="8.120790">
       <ele>28.19</ele>
       <time>2014-11-04T00:00:04Z</time>
      </trkpt>
      <trkpt lat="43.926140" lon="8.121400">
       <ele>25.74</ele>
       <time>2014-11-04T00:00:13Z</time>
      </trkpt>
      <trkpt lat="43.926160" lon="8.121480">
       <ele>26.01</ele>
       <time>2014-11-04T00:00:15Z</time>
      </trkpt>
      <trkpt lat="43.926300" lon="8.121780">
       <ele>29.52</ele>
       <time>2014-11-04T00:00:20Z</time>
      </trkpt>
      <trkpt lat="43.926400" lon="8.122420">
       <ele>26.85</ele>
       <time>2014-11-04T00:00:30Z</time>
      </trkpt>
      <trkpt lat="43.926500" lon="8.122800">
       <ele>26.69</ele>
       <time>2014-11-04T00:00:36Z</time>
      </trkpt>
      <trkpt lat="43.926620" lon="8.123070">
       <ele>28.09</ele>
       <time>2014-11-04T00:00:40Z</time>
      </trkpt>
      <trkpt lat="43.926690" lon="8.123300">
       <ele>28.65</ele>
       <time>2014-11-04T00:00:44Z</time>
      </trkpt>
      <trkpt lat="43.926730" lon="8.124030">
       <ele>25.78</ele>
       <time>2014-11-04T00:00:55Z</time>
      </trkpt>
      <trkpt lat="43.926820" lon="8.124780">
       <ele>23.92</ele>
       <time>2014-11-04T00:01:06Z</time>
      </trkpt>
      <trkpt lat="43.926980" lon="8.125240">
       <ele>26.38</ele>
       <time>2014-11-04T00:01:14Z</time>
      </trkpt>
      <trkpt lat="43.927080" lon="8.125460">
       <ele>28.06</ele>
       <time>2014-11-04T00:01:18Z</time>
      </trkpt>
      <trkpt lat="43.927250" lon="8.125930">
       <ele>29.55</ele>
       <time>2014-11-04T00:01:26Z</time>
      </trkpt>
      <trkpt lat="43.927540" lon="8.126390">
       <ele>36.17</ele>
       <time>2014-11-04T00:01:35Z</time>
      </trkpt>
      <trkpt lat="43.928110" lon="8.127360">
       <ele>45.76</ele>
       <time>2014-11-04T00:01:54Z</time>
      </trkpt>
      <trkpt lat="43.928160" lon="8.127510">
       <ele>46.74</ele>
       <time>2014-11-04T00:01:56Z</time>
      </trkpt>
      <trkpt lat="43.928200" lon="8.127860">
       <ele>44.12</ele>
       <time>2014-11-04T00:02:01Z</time>
      </trkpt>
      <trkpt lat="43.928180" lon="8.128160">
       <ele>40.21</ele>
       <time>2014-11-04T00:02:06Z</time>
      </trkpt>
      <trkpt lat="43.928190" lon="8.128270">
       <ele>39.29</ele>
       <time>2014-11-04T00:02:08Z</time>
      </trkpt>
      <trkpt lat="43.928260" lon="8.128440">
       <ele>37.64</ele>
       <time>2014-11-04T00:02:10Z</time>
      </trkpt>
      <trkpt lat="43.928550" lon="8.128760">
       <ele>37.48</ele>
       <time>2014-11-04T00:02:18Z</time>
      </trkpt>
      <trkpt lat="43.928660" lon="8.128860">
       <ele>38.2</ele>
       <time>2014-11-04T00:02:21Z</time>
      </trkpt>
      <trkpt lat="43.928750" lon="8.128910">
       <ele>39.82</ele>
       <time>2014-11-04T00:02:23Z</time>
      </trkpt>
      <trkpt lat="43.928970" lon="8.128970">
       <ele>46.26</ele>
       <time>2014-11-04T00:02:28Z</time>
      </trkpt>
      <trkpt lat="43.929100" lon="8.129090">
       <ele>46.53</ele>
       <time>2014-11-04T00:02:31Z</time>
      </trkpt>
      <trkpt lat="43.929230" lon="8.129280">
       <ele>44.78</ele>
       <time>2014-11-04T00:02:35Z</time>
      </trkpt>
      <trkpt lat="43.929330" lon="8.129480">
       <ele>41.64</ele>
       <time>2014-11-04T00:02:38Z</time>
      </trkpt>
      <trkpt lat="43.929450" lon="8.129630">
       <ele>40.92</ele>
       <time>2014-11-04T00:02:42Z</time>
      </trkpt>
      <trkpt lat="43.929610" lon="8.129680">
       <ele>45.38</ele>
       <time>2014-11-04T00:02:45Z</time>
      </trkpt>
      <trkpt lat="43.929770" lon="8.129700">
       <ele>50.94</ele>
       <time>2014-11-04T00:02:48Z</time>
      </trkpt>
      <trkpt lat="43.929860" lon="8.129730">
       <ele>53.06</ele>
       <time>2014-11-04T00:02:50Z</time>
      </trkpt>
      <trkpt lat="43.929960" lon="8.129830">
       <ele>52.35</ele>
       <time>2014-11-04T00:02:53Z</time>
      </trkpt>
      <trkpt lat="43.930150" lon="8.130130">
       <ele>47.36</ele>
       <time>2014-11-04T00:02:59Z</time>
      </trkpt>
      <trkpt lat="43.930240" lon="8.130240">
       <ele>46.67</ele>
       <time>2014-11-04T00:03:01Z</time>
      </trkpt>
      <trkpt lat="43.930350" lon="8.130320">
       <ele>48.05</ele>
       <time>2014-11-04T00:03:04Z</time>
      </trkpt>
      <trkpt lat="43.930770" lon="8.130560">
       <ele>54.83</ele>
       <time>2014-11-04T00:03:13Z</time>
      </trkpt>
      <trkpt lat="43.931190" lon="8.130920">
       <ele>53.16</ele>
       <time>2014-11-04T00:03:24Z</time>
      </trkpt>
      <trkpt lat="43.931350" lon="8.130990">
       <ele>55.93</ele>
       <time>2014-11-04T00:03:27Z</time>
      </trkpt>
      <trkpt lat="43.931650" lon="8.131090">
       <ele>62.25</ele>
       <time>2014-11-04T00:03:33Z</time>
      </trkpt>
      <trkpt lat="43.931890" lon="8.131410">
       <ele>53.06</ele>
       <time>2014-11-04T00:03:40Z</time>
      </trkpt>
      <trkpt lat="43.932000" lon="8.131500">
       <ele>51.42</ele>
       <time>2014-11-04T00:03:43Z</time>
      </trkpt>
      <trkpt lat="43.932100" lon="8.131530">
       <ele>52.12</ele>
       <time>2014-11-04T00:03:45Z</time>
      </trkpt>
      <trkpt lat="43.932140" lon="8.131520">
       <ele>53.29</ele>
       <time>2014-11-04T00:03:46Z</time>
      </trkpt>
      <trkpt lat="43.932240" lon="8.131470">
       <ele>57.06</ele>
       <time>2014-11-04T00:03:48Z</time>
      </trkpt>
      <trkpt lat="43.932340" lon="8.131390">
       <ele>61.8</ele>
       <time>2014-11-04T00:03:51Z</time>
      </trkpt>
      <trkpt lat="43.932470" lon="8.131350">
       <ele>65.49</ele>
       <time>2014-11-04T00:03:53Z</time>
      </trkpt>
      <trkpt lat="43.932530" lon="8.131350">
       <ele>66.29</ele>
       <time>2014-11-04T00:03:55Z</time>
      </trkpt>
      <trkpt lat="43.932660" lon="8.131400">
       <ele>65.69</ele>
       <time>2014-11-04T00:03:57Z</time>
      </trkpt>
      <trkpt lat="43.932920" lon="8.131610">
       <ele>61.32</ele>
       <time>2014-11-04T00:04:04Z</time>
      </trkpt>
      <trkpt lat="43.933120" lon="8.131710">
       <ele>60.41</ele>
       <time>2014-11-04T00:04:08Z</time>
      </trkpt>
      <trkpt lat="43.933290" lon="8.131710">
       <ele>62.26</ele>
       <time>2014-11-04T00:04:12Z</time>
      </trkpt>
      <trkpt lat="43.933880" lon="8.131630">
       <ele>64.58</ele>
       <time>2014-11-04T00:04:24Z</time>
      </trkpt>
      <trkpt lat="43.934040" lon="8.131630">
       <ele>64.43</ele>
       <time>2014-11-04T00:04:27Z</time>
      </trkpt>
      <trkpt lat="43.934560" lon="8.131690">
       <ele>68.5</ele>
       <time>2014-11-04T00:04:38Z</time>
      </trkpt>
      <trkpt lat="43.934700" lon="8.131740">
       <ele>69.37</ele>
       <time>2014-11-04T00:04:41Z</time>
      </trkpt>
      <trkpt lat="43.934930" lon="8.131890">
       <ele>68.76</ele>
       <time>2014-11-04T00:04:46Z</time>
      </trkpt>
      <trkpt lat="43.935040" lon="8.132000">
       <ele>67.49</ele>
       <time>2014-11-04T00:04:49Z</time>
      </trkpt>
      <trkpt lat="43.935350" lon="8.132450">
       <ele>59.13</ele>
       <time>2014-11-04T00:04:58Z</time>
      </trkpt>
      <trkpt lat="43.935500" lon="8.132570">
       <ele>56.19</ele>
       <time>2014-11-04T00:05:02Z</time>
      </trkpt>
      <trkpt lat="43.935610" lon="8.132610">
       <ele>55.59</ele>
       <time>2014-11-04T00:05:04Z</time>
      </trkpt>
      <trkpt lat="43.935710" lon="8.132620">
       <ele>56.33</ele>
       <time>2014-11-04T00:05:06Z</time>
      </trkpt>
      <trkpt lat="43.936050" lon="8.132550">
       <ele>64.23</ele>
       <time>2014-11-04T00:05:13Z</time>
      </trkpt>
      <trkpt lat="43.936250" lon="8.132450">
       <ele>70.48</ele>
       <time>2014-11-04T00:05:18Z</time>
      </trkpt>
      <trkpt lat="43.936420" lon="8.132450">
       <ele>72.44</ele>
       <time>2014-11-04T00:05:21Z</time>
      </trkpt>
      <trkpt lat="43.936620" lon="8.132620">
       <ele>69.14</ele>
       <time>2014-11-04T00:05:26Z</time>
      </trkpt>
      <trkpt lat="43.936900" lon="8.132980">
       <ele>62.88</ele>
       <time>2014-11-04T00:05:34Z</time>
      </trkpt>
      <trkpt lat="43.937340" lon="8.133400">
       <ele>60.39</ele>
       <time>2014-11-04T00:05:45Z</time>
      </trkpt>
      <trkpt lat="43.937700" lon="8.133710">
       <ele>57.55</ele>
       <time>2014-11-04T00:05:54Z</time>
      </trkpt>
      <trkpt lat="43.937840" lon="8.133790">
       <ele>57.48</ele>
       <time>2014-11-04T00:05:57Z</time>
      </trkpt>
      <trkpt lat="43.938100" lon="8.133790">
       <ele>62.35</ele>
       <time>2014-11-04T00:06:03Z</time>
      </trkpt>
      <trkpt lat="43.938180" lon="8.133810">
       <ele>63.22</ele>
       <time>2014-11-04T00:06:04Z</time>
      </trkpt>
      <trkpt lat="43.938340" lon="8.133910">
       <ele>63.01</ele>
       <time>2014-11-04T00:06:08Z</time>
      </trkpt>
      <trkpt lat="43.938460" lon="8.134040">
       <ele>58.78</ele>
       <time>2014-11-04T00:06:11Z</time>
      </trkpt>
      <trkpt lat="43.938630" lon="8.134190">
       <ele>53.01</ele>
       <time>2014-11-04T00:06:15Z</time>
      </trkpt>
      <trkpt lat="43.938730" lon="8.134220">
       <ele>51.48</ele>
       <time>2014-11-04T00:06:17Z</time>
      </trkpt>
      <trkpt lat="43.938840" lon="8.134230">
       <ele>50.78</ele>
       <time>2014-11-04T00:06:20Z</time>
      </trkpt>
      <trkpt lat="43.938960" lon="8.134200">
       <ele>51.51</ele>
       <time>2014-11-04T00:06:22Z</time>
      </trkpt>
      <trkpt lat="43.939380" lon="8.133930">
       <ele>59.67</ele>
       <time>2014-11-04T00:06:32Z</time>
      </trkpt>
      <trkpt lat="43.939510" lon="8.133830">
       <ele>62.15</ele>
       <time>2014-11-04T00:06:35Z</time>
      </trkpt>
      <trkpt lat="43.939690" lon="8.133730">
       <ele>63.7</ele>
       <time>2014-11-04T00:06:39Z</time>
      </trkpt>
      <trkpt lat="43.939840" lon="8.133680">
       <ele>63.43</ele>
       <time>2014-11-04T00:06:42Z</time>
      </trkpt>
      <trkpt lat="43.939960" lon="8.133680">
       <ele>61.47</ele>
       <time>2014-11-04T00:06:45Z</time>
      </trkpt>
      <trkpt lat="43.940070" lon="8.133660">
       <ele>61.29</ele>
       <time>2014-11-04T00:06:47Z</time>
      </trkpt>
      <trkpt lat="43.940190" lon="8.133600">
       <ele>62.85</ele>
       <time>2014-11-04T00:06:49Z</time>
      </trkpt>
      <trkpt lat="43.940360" lon="8.133470">
       <ele>65.88</ele>
       <time>2014-11-04T00:06:54Z</time>
      </trkpt>
      <trkpt lat="43.940470" lon="8.133440">
       <ele>65.65</ele>
       <time>2014-11-04T00:06:56Z</time>
      </trkpt>
      <trkpt lat="43.940560" lon="8.133450">
       <ele>64.47</ele>
       <time>2014-11-04T00:06:58Z</time>
      </trkpt>
      <trkpt lat="43.940640" lon="8.133500">
       <ele>62.37</ele>
       <time>2014-11-04T00:07:00Z</time>
      </trkpt>
      <trkpt lat="43.940730" lon="8.133600">
       <ele>59.24</ele>
       <time>2014-11-04T00:07:02Z</time>
      </trkpt>
      <trkpt lat="43.940830" lon="8.133810">
       <ele>54.28</ele>
       <time>2014-11-04T00:07:06Z</time>
      </trkpt>
      <trkpt lat="43.940880" lon="8.134040">
       <ele>50.85</ele>
       <time>2014-11-04T00:07:09Z</time>
      </trkpt>
      <trkpt lat="43.940880" lon="8.134180">
       <ele>47.99</ele>
       <time>2014-11-04T00:07:11Z</time>
      </trkpt>
      <trkpt lat="43.940920" lon="8.134520">
       <ele>41.73</ele>
       <time>2014-11-04T00:07:16Z</time>
      </trkpt>
      <trkpt lat="43.940960" lon="8.134620">
       <ele>40.54</ele>
       <time>2014-11-04T00:07:18Z</time>
      </trkpt>
      <trkpt lat="43.941020" lon="8.134690">
       <ele>40.58</ele>
       <time>2014-11-04T00:07:20Z</time>
      </trkpt>
      <trkpt lat="43.941130" lon="8.134760">
       <ele>41.91</ele>
       <time>2014-11-04T00:07:22Z</time>
      </trkpt>
      <trkpt lat="43.941240" lon="8.134790">
       <ele>43.98</ele>
       <time>2014-11-04T00:07:25Z</time>
      </trkpt>
      <trkpt lat="43.941480" lon="8.134900">
       <ele>47.61</ele>
       <time>2014-11-04T00:07:30Z</time>
      </trkpt>
      <trkpt lat="43.941780" lon="8.135240">
       <ele>42.33</ele>
       <time>2014-11-04T00:07:38Z</time>
      </trkpt>
      <trkpt lat="43.941920" lon="8.135350">
       <ele>40.74</ele>
       <time>2014-11-04T00:07:41Z</time>
      </trkpt>
      <trkpt lat="43.942060" lon="8.135410">
       <ele>41.22</ele>
       <time>2014-11-04T00:07:44Z</time>
      </trkpt>
      <trkpt lat="43.942400" lon="8.135490">
       <ele>45.44</ele>
       <time>2014-11-04T00:07:51Z</time>
      </trkpt>
      <trkpt lat="43.942550" lon="8.135580">
       <ele>44.7</ele>
       <time>2014-11-04T00:07:55Z</time>
      </trkpt>
      <trkpt lat="43.942710" lon="8.135760">
       <ele>39.68</ele>
       <time>2014-11-04T00:07:59Z</time>
      </trkpt>
      <trkpt lat="43.942910" lon="8.135920">
       <ele>36.71</ele>
       <time>2014-11-04T00:08:04Z</time>
      </trkpt>
      <trkpt lat="43.943010" lon="8.135940">
       <ele>37.48</ele>
       <time>2014-11-04T00:08:06Z</time>
      </trkpt>
      <trkpt lat="43.943200" lon="8.135930">
       <ele>40.45</ele>
       <time>2014-11-04T00:08:10Z</time>
      </trkpt>
      <trkpt lat="43.943340" lon="8.135970">
       <ele>41.33</ele>
       <time>2014-11-04T00:08:13Z</time>
      </trkpt>
      <trkpt lat="43.943520" lon="8.136150">
       <ele>39.27</ele>
       <time>2014-11-04T00:08:17Z</time>
      </trkpt>
      <trkpt lat="43.943600" lon="8.136310">
       <ele>36.42</ele>
       <time>2014-11-04T00:08:20Z</time>
      </trkpt>
      <trkpt lat="43.943730" lon="8.136640">
       <ele>30.29</ele>
       <time>2014-11-04T00:08:26Z</time>
      </trkpt>
      <trkpt lat="43.943830" lon="8.136760">
       <ele>29.3</ele>
       <time>2014-11-04T00:08:29Z</time>
      </trkpt>
      <trkpt lat="43.943980" lon="8.136860">
       <ele>29.72</ele>
       <time>2014-11-04T00:08:32Z</time>
      </trkpt>
      <trkpt lat="43.944370" lon="8.136970">
       <ele>33.61</ele>
       <time>2014-11-04T00:08:40Z</time>
      </trkpt>
      <trkpt lat="43.944470" lon="8.137070">
       <ele>32.58</ele>
       <time>2014-11-04T00:08:43Z</time>
      </trkpt>
      <trkpt lat="43.944680" lon="8.137350">
       <ele>28.38</ele>
       <time>2014-11-04T00:08:49Z</time>
      </trkpt>
      <trkpt lat="43.945240" lon="8.137610">
       <ele>28.66</ele>
       <time>2014-11-04T00:09:01Z</time>
      </trkpt>
      <trkpt lat="43.945710" lon="8.137920">
       <ele>24.35</ele>
       <time>2014-11-04T00:09:12Z</time>
      </trkpt>
      <trkpt lat="43.945840" lon="8.137970">
       <ele>23.9</ele>
       <time>2014-11-04T00:09:15Z</time>
      </trkpt>
      <trkpt lat="43.946070" lon="8.137980">
       <ele>23.67</ele>
       <time>2014-11-04T00:09:20Z</time>
      </trkpt>
      <trkpt lat="43.946170" lon="8.137960">
       <ele>24.27</ele>
       <time>2014-11-04T00:09:22Z</time>
      </trkpt>
      <trkpt lat="43.946630" lon="8.137730">
       <ele>30.25</ele>
       <time>2014-11-04T00:09:32Z</time>
      </trkpt>
      <trkpt lat="43.946800" lon="8.137690">
       <ele>31.9</ele>
       <time>2014-11-04T00:09:35Z</time>
      </trkpt>
      <trkpt lat="43.946900" lon="8.137710">
       <ele>31.91</ele>
       <time>2014-11-04T00:09:38Z</time>
      </trkpt>
      <trkpt lat="43.947030" lon="8.137790">
       <ele>30.59</ele>
       <time>2014-11-04T00:09:40Z</time>
      </trkpt>
      <trkpt lat="43.947200" lon="8.137940">
       <ele>27.8</ele>
       <time>2014-11-04T00:09:45Z</time>
      </trkpt>
      <trkpt lat="43.947340" lon="8.138100">
       <ele>24.69</ele>
       <time>2014-11-04T00:09:48Z</time>
      </trkpt>
      <trkpt lat="43.947880" lon="8.138620">
       <ele>21.85</ele>
       <time>2014-11-04T00:10:02Z</time>
      </trkpt>
      <trkpt lat="43.948030" lon="8.138680">
       <ele>23.02</ele>
       <time>2014-11-04T00:10:05Z</time>
      </trkpt>
      <trkpt lat="43.948500" lon="8.138810">
       <ele>26.75</ele>
       <time>2014-11-04T00:10:15Z</time>
      </trkpt>
      <trkpt lat="43.948560" lon="8.138840">
       <ele>26.81</ele>
       <time>2014-11-04T00:10:17Z</time>
      </trkpt>
      <trkpt lat="43.948690" lon="8.138940">
       <ele>26.26</ele>
       <time>2014-11-04T00:10:20Z</time>
      </trkpt>
      <trkpt lat="43.948800" lon="8.139100">
       <ele>24.21</ele>
       <time>2014-11-04T00:10:23Z</time>
      </trkpt>
      <trkpt lat="43.948870" lon="8.139280">
       <ele>21.89</ele>
       <time>2014-11-04T00:10:26Z</time>
      </trkpt>
      <trkpt lat="43.948960" lon="8.139930">
       <ele>13.04</ele>
       <time>2014-11-04T00:10:36Z</time>
      </trkpt>
      <trkpt lat="43.949240" lon="8.142550">
       <ele>3.21</ele>
       <time>2014-11-04T00:11:15Z</time>
      </trkpt>
      <trkpt lat="43.950130" lon="8.146260">
       <ele>5.55</ele>
       <time>2014-11-04T00:12:14Z</time>
      </trkpt>
      <trkpt lat="43.951210" lon="8.150640">
       <ele>3.91</ele>
       <time>2014-11-04T00:13:23Z</time>
      </trkpt>
      <trkpt lat="43.951380" lon="8.151250">
       <ele>4.96</ele>
       <time>2014-11-04T00:13:33Z</time>
      </trkpt>
      <trkpt lat="43.951340" lon="8.151290">
       <ele>4.76</ele>
       <time>2014-11-04T00:13:34Z</time>
      </trkpt>
      <trkpt lat="43.951330" lon="8.151390">
       <ele>4.77</ele>
       <time>2014-11-04T00:13:35Z</time>
      </trkpt>
      <trkpt lat="43.951350" lon="8.151440">
       <ele>4.94</ele>
       <time>2014-11-04T00:13:36Z</time>
      </trkpt>
      <trkpt lat="43.951390" lon="8.151480">
       <ele>5.19</ele>
       <time>2014-11-04T00:13:37Z</time>
      </trkpt>
      <trkpt lat="43.951430" lon="8.151480">
       <ele>5.43</ele>
       <time>2014-11-04T00:13:38Z</time>
      </trkpt>
      <trkpt lat="43.951810" lon="8.153080">
       <ele>5.77</ele>
       <time>2014-11-04T00:14:03Z</time>
      </trkpt>
      <trkpt lat="43.952250" lon="8.154830">
       <ele>13.13</ele>
       <time>2014-11-04T00:14:31Z</time>
      </trkpt>
      <trkpt lat="43.952310" lon="8.155110">
       <ele>14.73</ele>
       <time>2014-11-04T00:14:35Z</time>
      </trkpt>
      <trkpt lat="43.952400" lon="8.155850">
       <ele>14.03</ele>
       <time>2014-11-04T00:14:46Z</time>
      </trkpt>
      <trkpt lat="43.952480" lon="8.156340">
       <ele>13.83</ele>
       <time>2014-11-04T00:14:54Z</time>
      </trkpt>
      <trkpt lat="43.952790" lon="8.157590">
       <ele>20.69</ele>
       <time>2014-11-04T00:15:14Z</time>
      </trkpt>
      <trkpt lat="43.952810" lon="8.157960">
       <ele>20.91</ele>
       <time>2014-11-04T00:15:19Z</time>
      </trkpt>
      <trkpt lat="43.952800" lon="8.158700">
       <ele>18.75</ele>
       <time>2014-11-04T00:15:30Z</time>
      </trkpt>
      <trkpt lat="43.952830" lon="8.158910">
       <ele>18.92</ele>
       <time>2014-11-04T00:15:33Z</time>
      </trkpt>
      <trkpt lat="43.952910" lon="8.159240">
       <ele>20.04</ele>
       <time>2014-11-04T00:15:38Z</time>
      </trkpt>
      <trkpt lat="43.953230" lon="8.160100">
       <ele>23.2</ele>
       <time>2014-11-04T00:15:53Z</time>
      </trkpt>
      <trkpt lat="43.953310" lon="8.160410">
       <ele>25.41</ele>
       <time>2014-11-04T00:15:58Z</time>
      </trkpt>
      <trkpt lat="43.953290" lon="8.160850">
       <ele>26</ele>
       <time>2014-11-04T00:16:04Z</time>
      </trkpt>
      <trkpt lat="43.952640" lon="8.164010">
       <ele>32.73</ele>
       <time>2014-11-04T00:16:53Z</time>
      </trkpt>
      <trkpt lat="43.952580" lon="8.164320">
       <ele>32.55</ele>
       <time>2014-11-04T00:16:58Z</time>
      </trkpt>
      <trkpt lat="43.952570" lon="8.164480">
       <ele>32.53</ele>
       <time>2014-11-04T00:17:01Z</time>
      </trkpt>
      <trkpt lat="43.952590" lon="8.165060">
       <ele>34.44</ele>
       <time>2014-11-04T00:17:09Z</time>
      </trkpt>
      <trkpt lat="43.952660" lon="8.165690">
       <ele>37.22</ele>
       <time>2014-11-04T00:17:19Z</time>
      </trkpt>
      <trkpt lat="43.952730" lon="8.165990">
       <ele>39.2</ele>
       <time>2014-11-04T00:17:24Z</time>
      </trkpt>
      <trkpt lat="43.952920" lon="8.166580">
       <ele>44.12</ele>
       <time>2014-11-04T00:17:33Z</time>
      </trkpt>
      <trkpt lat="43.953030" lon="8.167540">
       <ele>48.95</ele>
       <time>2014-11-04T00:17:48Z</time>
      </trkpt>
      <trkpt lat="43.953220" lon="8.168140">
       <ele>52.57</ele>
       <time>2014-11-04T00:17:58Z</time>
      </trkpt>
      <trkpt lat="43.953300" lon="8.168310">
       <ele>54.67</ele>
       <time>2014-11-04T00:18:01Z</time>
      </trkpt>
      <trkpt lat="43.953440" lon="8.168510">
       <ele>55.94</ele>
       <time>2014-11-04T00:18:05Z</time>
      </trkpt>
      <trkpt lat="43.953920" lon="8.168940">
       <ele>61.76</ele>
       <time>2014-11-04T00:18:17Z</time>
      </trkpt>
      <trkpt lat="43.954000" lon="8.169040">
       <ele>61.91</ele>
       <time>2014-11-04T00:18:19Z</time>
      </trkpt>
      <trkpt lat="43.954040" lon="8.169130">
       <ele>61.07</ele>
       <time>2014-11-04T00:18:20Z</time>
      </trkpt>
      <trkpt lat="43.954080" lon="8.169240">
       <ele>60.94</ele>
       <time>2014-11-04T00:18:22Z</time>
      </trkpt>
      <trkpt lat="43.954100" lon="8.169360">
       <ele>60.92</ele>
       <time>2014-11-04T00:18:24Z</time>
      </trkpt>
      <trkpt lat="43.954180" lon="8.170080">
       <ele>59.58</ele>
       <time>2014-11-04T00:18:35Z</time>
      </trkpt>
      <trkpt lat="43.954280" lon="8.170630">
       <ele>63.28</ele>
       <time>2014-11-04T00:18:43Z</time>
      </trkpt>
      <trkpt lat="43.954550" lon="8.171560">
       <ele>61.18</ele>
       <time>2014-11-04T00:18:58Z</time>
      </trkpt>
      <trkpt lat="43.954680" lon="8.171830">
       <ele>60.43</ele>
       <time>2014-11-04T00:19:03Z</time>
      </trkpt>
      <trkpt lat="43.955090" lon="8.172330">
       <ele>61.22</ele>
       <time>2014-11-04T00:19:15Z</time>
      </trkpt>
      <trkpt lat="43.955270" lon="8.172490">
       <ele>61.4</ele>
       <time>2014-11-04T00:19:19Z</time>
      </trkpt>
      <trkpt lat="43.955440" lon="8.172540">
       <ele>64.83</ele>
       <time>2014-11-04T00:19:23Z</time>
      </trkpt>
      <trkpt lat="43.955690" lon="8.172570">
       <ele>71.35</ele>
       <time>2014-11-04T00:19:28Z</time>
      </trkpt>
      <trkpt lat="43.955990" lon="8.172640">
       <ele>75.65</ele>
       <time>2014-11-04T00:19:34Z</time>
      </trkpt>
      <trkpt lat="43.956520" lon="8.172960">
       <ele>65.43</ele>
       <time>2014-11-04T00:19:46Z</time>
      </trkpt>
      <trkpt lat="43.956660" lon="8.172990">
       <ele>65.64</ele>
       <time>2014-11-04T00:19:49Z</time>
      </trkpt>
      <trkpt lat="43.956950" lon="8.173030">
       <ele>62.23</ele>
       <time>2014-11-04T00:19:55Z</time>
      </trkpt>
      <trkpt lat="43.957060" lon="8.173030">
       <ele>61.98</ele>
       <time>2014-11-04T00:19:57Z</time>
      </trkpt>
      <trkpt lat="43.957270" lon="8.173000">
       <ele>63.53</ele>
       <time>2014-11-04T00:20:02Z</time>
      </trkpt>
      <trkpt lat="43.957720" lon="8.172780">
       <ele>73.61</ele>
       <time>2014-11-04T00:20:12Z</time>
      </trkpt>
      <trkpt lat="43.957830" lon="8.172760">
       <ele>73.07</ele>
       <time>2014-11-04T00:20:14Z</time>
      </trkpt>
      <trkpt lat="43.958400" lon="8.172740">
       <ele>62.59</ele>
       <time>2014-11-04T00:20:26Z</time>
      </trkpt>
      <trkpt lat="43.958460" lon="8.172720">
       <ele>61.15</ele>
       <time>2014-11-04T00:20:27Z</time>
      </trkpt>
      <trkpt lat="43.958600" lon="8.172630">
       <ele>60.25</ele>
       <time>2014-11-04T00:20:30Z</time>
      </trkpt>
      <trkpt lat="43.958660" lon="8.172550">
       <ele>61.88</ele>
       <time>2014-11-04T00:20:32Z</time>
      </trkpt>
      <trkpt lat="43.958900" lon="8.172090">
       <ele>71.93</ele>
       <time>2014-11-04T00:20:40Z</time>
      </trkpt>
      <trkpt lat="43.959130" lon="8.171600">
       <ele>84.15</ele>
       <time>2014-11-04T00:20:49Z</time>
      </trkpt>
      <trkpt lat="43.959270" lon="8.171360">
       <ele>87.32</ele>
       <time>2014-11-04T00:20:54Z</time>
      </trkpt>
      <trkpt lat="43.959590" lon="8.171030">
       <ele>82.45</ele>
       <time>2014-11-04T00:21:02Z</time>
      </trkpt>
      <trkpt lat="43.959970" lon="8.170570">
       <ele>79.14</ele>
       <time>2014-11-04T00:21:12Z</time>
      </trkpt>
      <trkpt lat="43.960130" lon="8.170330">
       <ele>78.86</ele>
       <time>2014-11-04T00:21:17Z</time>
      </trkpt>
      <trkpt lat="43.960310" lon="8.169970">
       <ele>81.53</ele>
       <time>2014-11-04T00:21:24Z</time>
      </trkpt>
      <trkpt lat="43.960400" lon="8.169850">
       <ele>81.96</ele>
       <time>2014-11-04T00:21:26Z</time>
      </trkpt>
      <trkpt lat="43.960660" lon="8.169600">
       <ele>78.26</ele>
       <time>2014-11-04T00:21:33Z</time>
      </trkpt>
      <trkpt lat="43.961510" lon="8.168890">
       <ele>62.98</ele>
       <time>2014-11-04T00:21:54Z</time>
      </trkpt>
      <trkpt lat="43.961570" lon="8.168820">
       <ele>63.18</ele>
       <time>2014-11-04T00:21:55Z</time>
      </trkpt>
      <trkpt lat="43.961900" lon="8.168390">
       <ele>65.79</ele>
       <time>2014-11-04T00:22:05Z</time>
      </trkpt>
      <trkpt lat="43.962020" lon="8.168200">
       <ele>65.21</ele>
       <time>2014-11-04T00:22:08Z</time>
      </trkpt>
      <trkpt lat="43.962330" lon="8.167580">
       <ele>68.91</ele>
       <time>2014-11-04T00:22:20Z</time>
      </trkpt>
      <trkpt lat="43.962390" lon="8.167500">
       <ele>67.45</ele>
       <time>2014-11-04T00:22:21Z</time>
      </trkpt>
      <trkpt lat="43.962500" lon="8.167390">
       <ele>65.59</ele>
       <time>2014-11-04T00:22:24Z</time>
      </trkpt>
      <trkpt lat="43.963170" lon="8.166930">
       <ele>64.4</ele>
       <time>2014-11-04T00:22:40Z</time>
      </trkpt>
      <trkpt lat="43.963370" lon="8.166830">
       <ele>61.29</ele>
       <time>2014-11-04T00:22:44Z</time>
      </trkpt>
      <trkpt lat="43.964050" lon="8.166540">
       <ele>52.56</ele>
       <time>2014-11-04T00:22:59Z</time>
      </trkpt>
      <trkpt lat="43.965020" lon="8.165840">
       <ele>51.84</ele>
       <time>2014-11-04T00:23:21Z</time>
      </trkpt>
      <trkpt lat="43.965120" lon="8.165780">
       <ele>50.48</ele>
       <time>2014-11-04T00:23:24Z</time>
      </trkpt>
      <trkpt lat="43.965470" lon="8.165670">
       <ele>40.47</ele>
       <time>2014-11-04T00:23:31Z</time>
      </trkpt>
      <trkpt lat="43.965540" lon="8.165620">
       <ele>39.57</ele>
       <time>2014-11-04T00:23:33Z</time>
      </trkpt>
      <trkpt lat="43.965580" lon="8.165570">
       <ele>40.07</ele>
       <time>2014-11-04T00:23:34Z</time>
      </trkpt>
      <trkpt lat="43.965710" lon="8.165340">
       <ele>44.25</ele>
       <time>2014-11-04T00:23:38Z</time>
      </trkpt>
      <trkpt lat="43.965830" lon="8.165170">
       <ele>45.95</ele>
       <time>2014-11-04T00:23:42Z</time>
      </trkpt>
      <trkpt lat="43.965910" lon="8.165110">
       <ele>45.6</ele>
       <time>2014-11-04T00:23:44Z</time>
      </trkpt>
      <trkpt lat="43.966550" lon="8.164800">
       <ele>30.4</ele>
       <time>2014-11-04T00:23:58Z</time>
      </trkpt>
      <trkpt lat="43.966650" lon="8.164730">
       <ele>28.48</ele>
       <time>2014-11-04T00:24:00Z</time>
      </trkpt>
      <trkpt lat="43.966730" lon="8.164640">
       <ele>28.78</ele>
       <time>2014-11-04T00:24:02Z</time>
      </trkpt>
      <trkpt lat="43.966900" lon="8.164390">
       <ele>31.29</ele>
       <time>2014-11-04T00:24:07Z</time>
      </trkpt>
      <trkpt lat="43.967020" lon="8.164290">
       <ele>31.06</ele>
       <time>2014-11-04T00:24:10Z</time>
      </trkpt>
      <trkpt lat="43.967430" lon="8.164110">
       <ele>26.16</ele>
       <time>2014-11-04T00:24:19Z</time>
      </trkpt>
      <trkpt lat="43.967840" lon="8.163900">
       <ele>23.8</ele>
       <time>2014-11-04T00:24:28Z</time>
      </trkpt>
      <trkpt lat="43.968080" lon="8.163680">
       <ele>24.17</ele>
       <time>2014-11-04T00:24:34Z</time>
      </trkpt>
      <trkpt lat="43.968330" lon="8.163380">
       <ele>25.07</ele>
       <time>2014-11-04T00:24:41Z</time>
      </trkpt>
      <trkpt lat="43.968450" lon="8.163210">
       <ele>24.76</ele>
       <time>2014-11-04T00:24:45Z</time>
      </trkpt>
      <trkpt lat="43.968620" lon="8.162870">
       <ele>24.73</ele>
       <time>2014-11-04T00:24:51Z</time>
      </trkpt>
      <trkpt lat="43.968840" lon="8.162320">
       <ele>25.6</ele>
       <time>2014-11-04T00:25:00Z</time>
      </trkpt>
      <trkpt lat="43.968990" lon="8.162050">
       <ele>25.51</ele>
       <time>2014-11-04T00:25:05Z</time>
      </trkpt>
      <trkpt lat="43.969480" lon="8.161380">
       <ele>24.52</ele>
       <time>2014-11-04T00:25:20Z</time>
      </trkpt>
      <trkpt lat="43.969610" lon="8.161260">
       <ele>22.82</ele>
       <time>2014-11-04T00:25:23Z</time>
      </trkpt>
      <trkpt lat="43.970070" lon="8.160960">
       <ele>13.8</ele>
       <time>2014-11-04T00:25:33Z</time>
      </trkpt>
      <trkpt lat="43.970180" lon="8.160910">
       <ele>13.25</ele>
       <time>2014-11-04T00:25:36Z</time>
      </trkpt>
      <trkpt lat="43.970550" lon="8.160810">
       <ele>10.31</ele>
       <time>2014-11-04T00:25:43Z</time>
      </trkpt>
      <trkpt lat="43.970800" lon="8.160710">
       <ele>8.32</ele>
       <time>2014-11-04T00:25:49Z</time>
      </trkpt>
      <trkpt lat="43.971290" lon="8.160450">
       <ele>6.22</ele>
       <time>2014-11-04T00:26:00Z</time>
      </trkpt>
      <trkpt lat="43.972000" lon="8.160040">
       <ele>4.6</ele>
       <time>2014-11-04T00:26:16Z</time>
      </trkpt>
      <trkpt lat="43.972190" lon="8.159950">
       <ele>4.37</ele>
       <time>2014-11-04T00:26:20Z</time>
      </trkpt>
      <trkpt lat="43.972680" lon="8.159800">
       <ele>3.32</ele>
       <time>2014-11-04T00:26:30Z</time>
      </trkpt>
      <trkpt lat="43.973880" lon="8.159500">
       <ele>3.93</ele>
       <time>2014-11-04T00:26:56Z</time>
      </trkpt>
      <trkpt lat="43.974350" lon="8.159350">
       <ele>4.73</ele>
       <time>2014-11-04T00:27:06Z</time>
      </trkpt>
      <trkpt lat="43.974460" lon="8.159280">
       <ele>5.02</ele>
       <time>2014-11-04T00:27:08Z</time>
      </trkpt>
      <trkpt lat="43.974610" lon="8.159110">
       <ele>5.81</ele>
       <time>2014-11-04T00:27:12Z</time>
      </trkpt>
      <trkpt lat="43.974880" lon="8.158570">
       <ele>8.72</ele>
       <time>2014-11-04T00:27:22Z</time>
      </trkpt>
      <trkpt lat="43.974980" lon="8.158400">
       <ele>9.63</ele>
       <time>2014-11-04T00:27:25Z</time>
      </trkpt>
      <trkpt lat="43.975130" lon="8.158240">
       <ele>10.03</ele>
       <time>2014-11-04T00:27:29Z</time>
      </trkpt>
      <trkpt lat="43.975220" lon="8.158190">
       <ele>9.99</ele>
       <time>2014-11-04T00:27:31Z</time>
      </trkpt>
      <trkpt lat="43.975300" lon="8.158160">
       <ele>9.9</ele>
       <time>2014-11-04T00:27:33Z</time>
      </trkpt>
      <trkpt lat="43.975630" lon="8.158090">
       <ele>9.36</ele>
       <time>2014-11-04T00:27:40Z</time>
      </trkpt>
      <trkpt lat="43.977330" lon="8.157770">
       <ele>10.93</ele>
       <time>2014-11-04T00:28:15Z</time>
      </trkpt>
      <trkpt lat="43.977620" lon="8.157720">
       <ele>10.96</ele>
       <time>2014-11-04T00:28:21Z</time>
      </trkpt>
      <trkpt lat="43.977820" lon="8.157720">
       <ele>10.9</ele>
       <time>2014-11-04T00:28:26Z</time>
      </trkpt>
      <trkpt lat="43.978300" lon="8.157830">
       <ele>10.62</ele>
       <time>2014-11-04T00:28:36Z</time>
      </trkpt>
      <trkpt lat="43.980710" lon="8.158590">
       <ele>8.29</ele>
       <time>2014-11-04T00:29:27Z</time>
      </trkpt>
      <trkpt lat="43.980860" lon="8.158660">
       <ele>7.88</ele>
       <time>2014-11-04T00:29:30Z</time>
      </trkpt>
      <trkpt lat="43.981040" lon="8.158780">
       <ele>8.21</ele>
       <time>2014-11-04T00:29:34Z</time>
      </trkpt>
      <trkpt lat="43.981240" lon="8.158880">
       <ele>8.38</ele>
       <time>2014-11-04T00:29:39Z</time>
      </trkpt>
      <trkpt lat="43.981810" lon="8.159000">
       <ele>9.84</ele>
       <time>2014-11-04T00:29:51Z</time>
      </trkpt>
      <trkpt lat="43.985840" lon="8.159960">
       <ele>8.91</ele>
       <time>2014-11-04T00:31:15Z</time>
      </trkpt>
      <trkpt lat="43.986200" lon="8.160070">
       <ele>9.4</ele>
       <time>2014-11-04T00:31:23Z</time>
      </trkpt>
      <trkpt lat="43.986570" lon="8.160210">
       <ele>9.73</ele>
       <time>2014-11-04T00:31:31Z</time>
      </trkpt>
      <trkpt lat="43.987120" lon="8.160460">
       <ele>9.91</ele>
       <time>2014-11-04T00:31:43Z</time>
      </trkpt>
      <trkpt lat="43.987840" lon="8.160830">
       <ele>8.8</ele>
       <time>2014-11-04T00:31:59Z</time>
      </trkpt>
      <trkpt lat="43.989160" lon="8.161570">
       <ele>15.05</ele>
       <time>2014-11-04T00:32:28Z</time>
      </trkpt>
      <trkpt lat="43.989810" lon="8.161950">
       <ele>16.19</ele>
       <time>2014-11-04T00:32:43Z</time>
      </trkpt>
      <trkpt lat="43.990450" lon="8.162360">
       <ele>14.49</ele>
       <time>2014-11-04T00:32:58Z</time>
      </trkpt>
      <trkpt lat="43.990750" lon="8.162520">
       <ele>10.07</ele>
       <time>2014-11-04T00:33:04Z</time>
      </trkpt>
      <trkpt lat="43.991000" lon="8.162620">
       <ele>11.95</ele>
       <time>2014-11-04T00:33:10Z</time>
      </trkpt>
      <trkpt lat="43.991380" lon="8.162730">
       <ele>14.69</ele>
       <time>2014-11-04T00:33:18Z</time>
      </trkpt>
      <trkpt lat="43.992350" lon="8.162850">
       <ele>17.78</ele>
       <time>2014-11-04T00:33:38Z</time>
      </trkpt>
      <trkpt lat="43.992730" lon="8.162930">
       <ele>16.82</ele>
       <time>2014-11-04T00:33:46Z</time>
      </trkpt>
      <trkpt lat="43.993060" lon="8.163030">
       <ele>15.25</ele>
       <time>2014-11-04T00:33:53Z</time>
      </trkpt>
      <trkpt lat="43.993660" lon="8.163290">
       <ele>10.37</ele>
       <time>2014-11-04T00:34:06Z</time>
      </trkpt>
      <trkpt lat="43.994090" lon="8.163510">
       <ele>8.44</ele>
       <time>2014-11-04T00:34:15Z</time>
      </trkpt>
      <trkpt lat="43.997130" lon="8.165310">
       <ele>8.09</ele>
       <time>2014-11-04T00:35:24Z</time>
      </trkpt>
      <trkpt lat="43.997330" lon="8.165330">
       <ele>9.08</ele>
       <time>2014-11-04T00:35:28Z</time>
      </trkpt>
      <trkpt lat="43.999210" lon="8.165130">
       <ele>12.59</ele>
       <time>2014-11-04T00:36:07Z</time>
      </trkpt>
      <trkpt lat="43.999430" lon="8.165110">
       <ele>12.14</ele>
       <time>2014-11-04T00:36:12Z</time>
      </trkpt>
      <trkpt lat="43.999520" lon="8.165120">
       <ele>11.93</ele>
       <time>2014-11-04T00:36:14Z</time>
      </trkpt>
      <trkpt lat="44.001080" lon="8.165760">
       <ele>12.11</ele>
       <time>2014-11-04T00:36:47Z</time>
      </trkpt>
      <trkpt lat="44.001420" lon="8.165990">
       <ele>11.68</ele>
       <time>2014-11-04T00:36:55Z</time>
      </trkpt>
      <trkpt lat="44.002550" lon="8.166810">
       <ele>11.94</ele>
       <time>2014-11-04T00:37:22Z</time>
      </trkpt>
      <trkpt lat="44.002550" lon="8.166880">
       <ele>11.86</ele>
       <time>2014-11-04T00:37:23Z</time>
      </trkpt>
      <trkpt lat="44.002570" lon="8.166910">
       <ele>11.88</ele>
       <time>2014-11-04T00:37:23Z</time>
      </trkpt>
      <trkpt lat="44.002620" lon="8.166910">
       <ele>12</ele>
       <time>2014-11-04T00:37:24Z</time>
      </trkpt>
      <trkpt lat="44.002640" lon="8.166880">
       <ele>12.08</ele>
       <time>2014-11-04T00:37:25Z</time>
      </trkpt>
      <trkpt lat="44.003380" lon="8.167430">
       <ele>13.04</ele>
       <time>2014-11-04T00:37:42Z</time>
      </trkpt>
      <trkpt lat="44.004220" lon="8.167980">
       <ele>10.85</ele>
       <time>2014-11-04T00:38:02Z</time>
      </trkpt>
      <trkpt lat="44.004400" lon="8.168170">
       <ele>10.39</ele>
       <time>2014-11-04T00:38:06Z</time>
      </trkpt>
      <trkpt lat="44.004710" lon="8.168590">
       <ele>9.8</ele>
       <time>2014-11-04T00:38:15Z</time>
      </trkpt>
      <trkpt lat="44.005640" lon="8.169760">
       <ele>8.51</ele>
       <time>2014-11-04T00:38:41Z</time>
      </trkpt>
      <trkpt lat="44.006030" lon="8.170220">
       <ele>9.7</ele>
       <time>2014-11-04T00:38:52Z</time>
      </trkpt>
      <trkpt lat="44.006400" lon="8.170720">
       <ele>11.46</ele>
       <time>2014-11-04T00:39:03Z</time>
      </trkpt>
      <trkpt lat="44.007070" lon="8.171490">
       <ele>11.42</ele>
       <time>2014-11-04T00:39:21Z</time>
      </trkpt>
      <trkpt lat="44.007970" lon="8.172630">
       <ele>11.74</ele>
       <time>2014-11-04T00:39:46Z</time>
      </trkpt>
      <trkpt lat="44.008650" lon="8.173440">
       <ele>13.46</ele>
       <time>2014-11-04T00:40:04Z</time>
      </trkpt>
      <trkpt lat="44.009020" lon="8.173780">
       <ele>14.85</ele>
       <time>2014-11-04T00:40:14Z</time>
      </trkpt>
      <trkpt lat="44.009970" lon="8.174570">
       <ele>12.57</ele>
       <time>2014-11-04T00:40:37Z</time>
      </trkpt>
      <trkpt lat="44.010580" lon="8.175110">
       <ele>15.31</ele>
       <time>2014-11-04T00:40:52Z</time>
      </trkpt>
      <trkpt lat="44.010680" lon="8.175250">
       <ele>15.25</ele>
       <time>2014-11-04T00:40:54Z</time>
      </trkpt>
      <trkpt lat="44.010900" lon="8.175660">
       <ele>14.03</ele>
       <time>2014-11-04T00:41:02Z</time>
      </trkpt>
      <trkpt lat="44.011250" lon="8.176500">
       <ele>14.09</ele>
       <time>2014-11-04T00:41:17Z</time>
      </trkpt>
      <trkpt lat="44.011530" lon="8.177020">
       <ele>15.41</ele>
       <time>2014-11-04T00:41:26Z</time>
      </trkpt>
      <trkpt lat="44.011950" lon="8.177630">
       <ele>18.65</ele>
       <time>2014-11-04T00:41:39Z</time>
      </trkpt>
      <trkpt lat="44.012110" lon="8.177810">
       <ele>19.41</ele>
       <time>2014-11-04T00:41:43Z</time>
      </trkpt>
      <trkpt lat="44.012830" lon="8.178710">
       <ele>20.11</ele>
       <time>2014-11-04T00:42:03Z</time>
      </trkpt>
      <trkpt lat="44.013230" lon="8.179260">
       <ele>17.74</ele>
       <time>2014-11-04T00:42:15Z</time>
      </trkpt>
      <trkpt lat="44.013590" lon="8.179810">
       <ele>15.83</ele>
       <time>2014-11-04T00:42:26Z</time>
      </trkpt>
      <trkpt lat="44.013680" lon="8.179980">
       <ele>14.96</ele>
       <time>2014-11-04T00:42:29Z</time>
      </trkpt>
      <trkpt lat="44.013910" lon="8.180530">
       <ele>14.38</ele>
       <time>2014-11-04T00:42:39Z</time>
      </trkpt>
      <trkpt lat="44.014160" lon="8.181240">
       <ele>13.95</ele>
       <time>2014-11-04T00:42:50Z</time>
      </trkpt>
      <trkpt lat="44.014730" lon="8.182740">
       <ele>18.71</ele>
       <time>2014-11-04T00:43:16Z</time>
      </trkpt>
      <trkpt lat="44.015250" lon="8.184180">
       <ele>17.15</ele>
       <time>2014-11-04T00:43:40Z</time>
      </trkpt>
      <trkpt lat="44.015530" lon="8.185110">
       <ele>19.31</ele>
       <time>2014-11-04T00:43:55Z</time>
      </trkpt>
      <trkpt lat="44.015700" lon="8.185850">
       <ele>22.08</ele>
       <time>2014-11-04T00:44:06Z</time>
      </trkpt>
      <trkpt lat="44.015950" lon="8.187090">
       <ele>24.23</ele>
       <time>2014-11-04T00:44:26Z</time>
      </trkpt>
      <trkpt lat="44.016140" lon="8.188400">
       <ele>28.42</ele>
       <time>2014-11-04T00:44:45Z</time>
      </trkpt>
      <trkpt lat="44.016180" lon="8.188560">
       <ele>29.51</ele>
       <time>2014-11-04T00:44:48Z</time>
      </trkpt>
      <trkpt lat="44.016260" lon="8.188750">
       <ele>32.38</ele>
       <time>2014-11-04T00:44:51Z</time>
      </trkpt>
      <trkpt lat="44.016360" lon="8.188930">
       <ele>36.29</ele>
       <time>2014-11-04T00:44:55Z</time>
      </trkpt>
      <trkpt lat="44.016410" lon="8.189130">
       <ele>37.53</ele>
       <time>2014-11-04T00:44:58Z</time>
      </trkpt>
      <trkpt lat="44.016410" lon="8.189370">
       <ele>37.82</ele>
       <time>2014-11-04T00:45:01Z</time>
      </trkpt>
      <trkpt lat="44.016220" lon="8.191200">
       <ele>29.08</ele>
       <time>2014-11-04T00:45:29Z</time>
      </trkpt>
      <trkpt lat="44.016250" lon="8.191410">
       <ele>28.36</ele>
       <time>2014-11-04T00:45:32Z</time>
      </trkpt>
      <trkpt lat="44.016330" lon="8.191570">
       <ele>28.78</ele>
       <time>2014-11-04T00:45:35Z</time>
      </trkpt>
      <trkpt lat="44.016440" lon="8.191670">
       <ele>29.84</ele>
       <time>2014-11-04T00:45:38Z</time>
      </trkpt>
      <trkpt lat="44.016510" lon="8.191700">
       <ele>30.21</ele>
       <time>2014-11-04T00:45:39Z</time>
      </trkpt>
      <trkpt lat="44.016580" lon="8.191720">
       <ele>30.78</ele>
       <time>2014-11-04T00:45:41Z</time>
      </trkpt>
      <trkpt lat="44.016690" lon="8.191720">
       <ele>32.01</ele>
       <time>2014-11-04T00:45:43Z</time>
      </trkpt>
      <trkpt lat="44.016760" lon="8.191700">
       <ele>31.8</ele>
       <time>2014-11-04T00:45:45Z</time>
      </trkpt>
      <trkpt lat="44.018350" lon="8.190950">
       <ele>59.48</ele>
       <time>2014-11-04T00:46:19Z</time>
      </trkpt>
      <trkpt lat="44.018500" lon="8.190850">
       <ele>62.76</ele>
       <time>2014-11-04T00:46:23Z</time>
      </trkpt>
      <trkpt lat="44.018700" lon="8.190660">
       <ele>69.41</ele>
       <time>2014-11-04T00:46:28Z</time>
      </trkpt>
      <trkpt lat="44.018780" lon="8.190640">
       <ele>68.53</ele>
       <time>2014-11-04T00:46:30Z</time>
      </trkpt>
      <trkpt lat="44.018900" lon="8.190640">
       <ele>65.17</ele>
       <time>2014-11-04T00:46:32Z</time>
      </trkpt>
      <trkpt lat="44.019520" lon="8.190800">
       <ele>49.01</ele>
       <time>2014-11-04T00:46:45Z</time>
      </trkpt>
      <trkpt lat="44.020300" lon="8.191040">
       <ele>45.2</ele>
       <time>2014-11-04T00:47:02Z</time>
      </trkpt>
      <trkpt lat="44.020920" lon="8.191200">
       <ele>45.68</ele>
       <time>2014-11-04T00:47:15Z</time>
      </trkpt>
      <trkpt lat="44.021510" lon="8.191430">
       <ele>44.59</ele>
       <time>2014-11-04T00:47:27Z</time>
      </trkpt>
      <trkpt lat="44.022160" lon="8.191650">
       <ele>50.13</ele>
       <time>2014-11-04T00:47:41Z</time>
      </trkpt>
      <trkpt lat="44.022320" lon="8.191740">
       <ele>51.75</ele>
       <time>2014-11-04T00:47:45Z</time>
      </trkpt>
      <trkpt lat="44.022480" lon="8.191940">
       <ele>50.21</ele>
       <time>2014-11-04T00:47:49Z</time>
      </trkpt>
      <trkpt lat="44.022800" lon="8.192690">
       <ele>45.31</ele>
       <time>2014-11-04T00:48:02Z</time>
      </trkpt>
      <trkpt lat="44.023020" lon="8.193160">
       <ele>38.16</ele>
       <time>2014-11-04T00:48:11Z</time>
      </trkpt>
      <trkpt lat="44.023130" lon="8.193270">
       <ele>37.93</ele>
       <time>2014-11-04T00:48:14Z</time>
      </trkpt>
      <trkpt lat="44.023350" lon="8.193430">
       <ele>40.42</ele>
       <time>2014-11-04T00:48:19Z</time>
      </trkpt>
      <trkpt lat="44.023580" lon="8.193630">
       <ele>45.75</ele>
       <time>2014-11-04T00:48:24Z</time>
      </trkpt>
      <trkpt lat="44.023980" lon="8.194090">
       <ele>42.64</ele>
       <time>2014-11-04T00:48:35Z</time>
      </trkpt>
      <trkpt lat="44.024330" lon="8.194460">
       <ele>44.53</ele>
       <time>2014-11-04T00:48:44Z</time>
      </trkpt>
      <trkpt lat="44.024510" lon="8.194700">
       <ele>46.25</ele>
       <time>2014-11-04T00:48:49Z</time>
      </trkpt>
      <trkpt lat="44.024590" lon="8.194890">
       <ele>44.7</ele>
       <time>2014-11-04T00:48:53Z</time>
      </trkpt>
      <trkpt lat="44.024630" lon="8.195130">
       <ele>41.38</ele>
       <time>2014-11-04T00:48:56Z</time>
      </trkpt>
      <trkpt lat="44.024670" lon="8.195280">
       <ele>40.57</ele>
       <time>2014-11-04T00:48:59Z</time>
      </trkpt>
      <trkpt lat="44.024730" lon="8.195420">
       <ele>40.63</ele>
       <time>2014-11-04T00:49:01Z</time>
      </trkpt>
      <trkpt lat="44.024910" lon="8.195630">
       <ele>43.19</ele>
       <time>2014-11-04T00:49:06Z</time>
      </trkpt>
      <trkpt lat="44.025000" lon="8.195800">
       <ele>42.01</ele>
       <time>2014-11-04T00:49:09Z</time>
      </trkpt>
      <trkpt lat="44.025040" lon="8.195910">
       <ele>41.59</ele>
       <time>2014-11-04T00:49:11Z</time>
      </trkpt>
      <trkpt lat="44.025170" lon="8.196440">
       <ele>37.56</ele>
       <time>2014-11-04T00:49:19Z</time>
      </trkpt>
      <trkpt lat="44.025240" lon="8.196610">
       <ele>37.5</ele>
       <time>2014-11-04T00:49:22Z</time>
      </trkpt>
      <trkpt lat="44.025450" lon="8.196910">
       <ele>39.23</ele>
       <time>2014-11-04T00:49:28Z</time>
      </trkpt>
      <trkpt lat="44.025560" lon="8.197180">
       <ele>35.3</ele>
       <time>2014-11-04T00:49:33Z</time>
      </trkpt>
      <trkpt lat="44.025660" lon="8.197340">
       <ele>33.57</ele>
       <time>2014-11-04T00:49:36Z</time>
      </trkpt>
      <trkpt lat="44.025790" lon="8.197480">
       <ele>32.55</ele>
       <time>2014-11-04T00:49:40Z</time>
      </trkpt>
      <trkpt lat="44.026090" lon="8.197680">
       <ele>34.3</ele>
       <time>2014-11-04T00:49:47Z</time>
      </trkpt>
      <trkpt lat="44.026190" lon="8.197770">
       <ele>34.03</ele>
       <time>2014-11-04T00:49:49Z</time>
      </trkpt>
      <trkpt lat="44.026780" lon="8.198520">
       <ele>24.45</ele>
       <time>2014-11-04T00:50:06Z</time>
      </trkpt>
      <trkpt lat="44.027280" lon="8.198970">
       <ele>24.83</ele>
       <time>2014-11-04T00:50:18Z</time>
      </trkpt>
      <trkpt lat="44.027680" lon="8.199170">
       <ele>27.88</ele>
       <time>2014-11-04T00:50:27Z</time>
      </trkpt>
      <trkpt lat="44.027770" lon="8.199240">
       <ele>28.99</ele>
       <time>2014-11-04T00:50:29Z</time>
      </trkpt>
      <trkpt lat="44.027860" lon="8.199330">
       <ele>29.51</ele>
       <time>2014-11-04T00:50:31Z</time>
      </trkpt>
      <trkpt lat="44.028090" lon="8.199660">
       <ele>28.58</ele>
       <time>2014-11-04T00:50:38Z</time>
      </trkpt>
      <trkpt lat="44.028270" lon="8.199880">
       <ele>28.21</ele>
       <time>2014-11-04T00:50:43Z</time>
      </trkpt>
      <trkpt lat="44.028570" lon="8.200160">
       <ele>30.46</ele>
       <time>2014-11-04T00:50:51Z</time>
      </trkpt>
      <trkpt lat="44.028970" lon="8.200450">
       <ele>31.63</ele>
       <time>2014-11-04T00:51:00Z</time>
      </trkpt>
      <trkpt lat="44.029050" lon="8.200520">
       <ele>30.71</ele>
       <time>2014-11-04T00:51:02Z</time>
      </trkpt>
      <trkpt lat="44.029490" lon="8.200820">
       <ele>27.75</ele>
       <time>2014-11-04T00:51:12Z</time>
      </trkpt>
      <trkpt lat="44.030120" lon="8.201310">
       <ele>25.76</ele>
       <time>2014-11-04T00:51:27Z</time>
      </trkpt>
      <trkpt lat="44.030780" lon="8.201870">
       <ele>24.05</ele>
       <time>2014-11-04T00:51:43Z</time>
      </trkpt>
      <trkpt lat="44.031110" lon="8.202180">
       <ele>22.27</ele>
       <time>2014-11-04T00:51:51Z</time>
      </trkpt>
      <trkpt lat="44.031870" lon="8.203060">
       <ele>22.03</ele>
       <time>2014-11-04T00:52:12Z</time>
      </trkpt>
      <trkpt lat="44.032260" lon="8.203790">
       <ele>22.22</ele>
       <time>2014-11-04T00:52:25Z</time>
      </trkpt>
      <trkpt lat="44.032360" lon="8.204050">
       <ele>19.59</ele>
       <time>2014-11-04T00:52:30Z</time>
      </trkpt>
      <trkpt lat="44.032380" lon="8.204300">
       <ele>17.53</ele>
       <time>2014-11-04T00:52:33Z</time>
      </trkpt>
      <trkpt lat="44.032370" lon="8.204630">
       <ele>17.38</ele>
       <time>2014-11-04T00:52:38Z</time>
      </trkpt>
      <trkpt lat="44.032340" lon="8.204800">
       <ele>16.76</ele>
       <time>2014-11-04T00:52:41Z</time>
      </trkpt>
      <trkpt lat="44.032260" lon="8.205090">
       <ele>15.14</ele>
       <time>2014-11-04T00:52:46Z</time>
      </trkpt>
      <trkpt lat="44.032240" lon="8.205350">
       <ele>14.76</ele>
       <time>2014-11-04T00:52:50Z</time>
      </trkpt>
      <trkpt lat="44.032260" lon="8.205520">
       <ele>15.21</ele>
       <time>2014-11-04T00:52:52Z</time>
      </trkpt>
      <trkpt lat="44.032320" lon="8.205770">
       <ele>16.61</ele>
       <time>2014-11-04T00:52:56Z</time>
      </trkpt>
      <trkpt lat="44.032370" lon="8.205920">
       <ele>16.58</ele>
       <time>2014-11-04T00:52:58Z</time>
      </trkpt>
      <trkpt lat="44.032460" lon="8.206070">
       <ele>15.96</ele>
       <time>2014-11-04T00:53:01Z</time>
      </trkpt>
      <trkpt lat="44.032600" lon="8.206230">
       <ele>16.1</ele>
       <time>2014-11-04T00:53:05Z</time>
      </trkpt>
      <trkpt lat="44.034560" lon="8.207520">
       <ele>14.28</ele>
       <time>2014-11-04T00:53:50Z</time>
      </trkpt>
      <trkpt lat="44.034780" lon="8.207580">
       <ele>13.37</ele>
       <time>2014-11-04T00:53:55Z</time>
      </trkpt>
      <trkpt lat="44.035030" lon="8.207570">
       <ele>13.12</ele>
       <time>2014-11-04T00:54:00Z</time>
      </trkpt>
      <trkpt lat="44.035740" lon="8.207500">
       <ele>8.67</ele>
       <time>2014-11-04T00:54:15Z</time>
      </trkpt>
      <trkpt lat="44.035980" lon="8.207500">
       <ele>10.29</ele>
       <time>2014-11-04T00:54:20Z</time>
      </trkpt>
      <trkpt lat="44.036170" lon="8.207570">
       <ele>12.57</ele>
       <time>2014-11-04T00:54:24Z</time>
      </trkpt>
      <trkpt lat="44.036430" lon="8.207710">
       <ele>14.21</ele>
       <time>2014-11-04T00:54:30Z</time>
      </trkpt>
      <trkpt lat="44.036550" lon="8.207740">
       <ele>15.08</ele>
       <time>2014-11-04T00:54:32Z</time>
      </trkpt>
      <trkpt lat="44.037200" lon="8.207750">
       <ele>16.26</ele>
       <time>2014-11-04T00:54:46Z</time>
      </trkpt>
      <trkpt lat="44.038760" lon="8.207890">
       <ele>14.51</ele>
       <time>2014-11-04T00:55:18Z</time>
      </trkpt>
      <trkpt lat="44.039020" lon="8.207890">
       <ele>15.8</ele>
       <time>2014-11-04T00:55:23Z</time>
      </trkpt>
      <trkpt lat="44.040940" lon="8.207680">
       <ele>44.56</ele>
       <time>2014-11-04T00:56:03Z</time>
      </trkpt>
      <trkpt lat="44.044140" lon="8.207210">
       <ele>25.6</ele>
       <time>2014-11-04T00:57:10Z</time>
      </trkpt>
      <trkpt lat="44.045140" lon="8.207100">
       <ele>4.83</ele>
       <time>2014-11-04T00:57:31Z</time>
      </trkpt>
      <trkpt lat="44.048320" lon="8.206670">
       <ele>3.99</ele>
       <time>2014-11-04T00:58:37Z</time>
      </trkpt>
      <trkpt lat="44.048540" lon="8.206660">
       <ele>4.5</ele>
       <time>2014-11-04T00:58:42Z</time>
      </trkpt>
      <trkpt lat="44.049030" lon="8.206690">
       <ele>5.65</ele>
       <time>2014-11-04T00:58:52Z</time>
      </trkpt>
      <trkpt lat="44.049360" lon="8.206760">
       <ele>5.66</ele>
       <time>2014-11-04T00:58:59Z</time>
      </trkpt>
      <trkpt lat="44.049570" lon="8.206820">
       <ele>5.33</ele>
       <time>2014-11-04T00:59:03Z</time>
      </trkpt>
      <trkpt lat="44.050320" lon="8.207090">
       <ele>3.54</ele>
       <time>2014-11-04T00:59:19Z</time>
      </trkpt>
      <trkpt lat="44.051610" lon="8.207580">
       <ele>4.81</ele>
       <time>2014-11-04T00:59:47Z</time>
      </trkpt>
      <trkpt lat="44.052120" lon="8.207790">
       <ele>5.9</ele>
       <time>2014-11-04T00:59:58Z</time>
      </trkpt>
      <trkpt lat="44.052390" lon="8.207920">
       <ele>6.3</ele>
       <time>2014-11-04T01:00:04Z</time>
      </trkpt>
      <trkpt lat="44.052850" lon="8.208160">
       <ele>6.03</ele>
       <time>2014-11-04T01:00:14Z</time>
      </trkpt>
      <trkpt lat="44.056260" lon="8.210060">
       <ele>3.96</ele>
       <time>2014-11-04T01:01:30Z</time>
      </trkpt>
      <trkpt lat="44.056330" lon="8.210100">
       <ele>3.93</ele>
       <time>2014-11-04T01:01:32Z</time>
      </trkpt>
      <trkpt lat="44.056400" lon="8.210180">
       <ele>3.85</ele>
       <time>2014-11-04T01:01:34Z</time>
      </trkpt>
      <trkpt lat="44.056870" lon="8.210430">
       <ele>3.73</ele>
       <time>2014-11-04T01:01:44Z</time>
      </trkpt>
      <trkpt lat="44.057280" lon="8.210680">
       <ele>3.92</ele>
       <time>2014-11-04T01:01:53Z</time>
      </trkpt>
      <trkpt lat="44.057540" lon="8.210810">
       <ele>3.98</ele>
       <time>2014-11-04T01:01:59Z</time>
      </trkpt>
      <trkpt lat="44.057840" lon="8.210930">
       <ele>3.57</ele>
       <time>2014-11-04T01:02:06Z</time>
      </trkpt>
      <trkpt lat="44.058430" lon="8.211080">
       <ele>3.41</ele>
       <time>2014-11-04T01:02:18Z</time>
      </trkpt>
      <trkpt lat="44.058470" lon="8.211080">
       <ele>3.46</ele>
       <time>2014-11-04T01:02:19Z</time>
      </trkpt>
      <trkpt lat="44.058500" lon="8.211050">
       <ele>3.46</ele>
       <time>2014-11-04T01:02:20Z</time>
      </trkpt>
      <trkpt lat="44.060500" lon="8.211610">
       <ele>3.56</ele>
       <time>2014-11-04T01:03:02Z</time>
      </trkpt>
      <trkpt lat="44.060930" lon="8.211750">
       <ele>3.89</ele>
       <time>2014-11-04T01:03:11Z</time>
      </trkpt>
      <trkpt lat="44.061790" lon="8.212100">
       <ele>2.93</ele>
       <time>2014-11-04T01:03:30Z</time>
      </trkpt>
      <trkpt lat="44.063320" lon="8.212780">
       <ele>3.33</ele>
       <time>2014-11-04T01:04:03Z</time>
      </trkpt>
      <trkpt lat="44.063710" lon="8.212930">
       <ele>2.98</ele>
       <time>2014-11-04T01:04:11Z</time>
      </trkpt>
      <trkpt lat="44.065840" lon="8.213910">
       <ele>2.98</ele>
       <time>2014-11-04T01:04:58Z</time>
      </trkpt>
      <trkpt lat="44.067210" lon="8.214520">
       <ele>1.57</ele>
       <time>2014-11-04T01:05:28Z</time>
      </trkpt>
      <trkpt lat="44.067710" lon="8.214760">
       <ele>1.96</ele>
       <time>2014-11-04T01:05:39Z</time>
      </trkpt>
      <trkpt lat="44.068550" lon="8.215310">
       <ele>2.9</ele>
       <time>2014-11-04T01:05:58Z</time>
      </trkpt>
      <trkpt lat="44.069400" lon="8.215800">
       <ele>2.31</ele>
       <time>2014-11-04T01:06:17Z</time>
      </trkpt>
      <trkpt lat="44.072100" lon="8.217040">
       <ele>2.52</ele>
       <time>2014-11-04T01:07:16Z</time>
      </trkpt>
      <trkpt lat="44.073890" lon="8.217740">
       <ele>3.47</ele>
       <time>2014-11-04T01:07:54Z</time>
      </trkpt>
      <trkpt lat="44.076440" lon="8.218700">
       <ele>4</ele>
       <time>2014-11-04T01:08:49Z</time>
      </trkpt>
      <trkpt lat="44.076830" lon="8.218860">
       <ele>3.6</ele>
       <time>2014-11-04T01:08:58Z</time>
      </trkpt>
      <trkpt lat="44.077110" lon="8.219000">
       <ele>2.94</ele>
       <time>2014-11-04T01:09:04Z</time>
      </trkpt>
      <trkpt lat="44.077480" lon="8.219250">
       <ele>2.14</ele>
       <time>2014-11-04T01:09:12Z</time>
      </trkpt>
      <trkpt lat="44.078880" lon="8.220340">
       <ele>3</ele>
       <time>2014-11-04T01:09:46Z</time>
      </trkpt>
      <trkpt lat="44.081110" lon="8.221800">
       <ele>3.77</ele>
       <time>2014-11-04T01:10:37Z</time>
      </trkpt>
      <trkpt lat="44.081150" lon="8.221860">
       <ele>3.9</ele>
       <time>2014-11-04T01:10:38Z</time>
      </trkpt>
      <trkpt lat="44.081240" lon="8.221940">
       <ele>4.15</ele>
       <time>2014-11-04T01:10:40Z</time>
      </trkpt>
      <trkpt lat="44.081910" lon="8.222430">
       <ele>5.32</ele>
       <time>2014-11-04T01:10:56Z</time>
      </trkpt>
      <trkpt lat="44.081920" lon="8.222480">
       <ele>5.31</ele>
       <time>2014-11-04T01:10:57Z</time>
      </trkpt>
      <trkpt lat="44.081960" lon="8.222530">
       <ele>5.26</ele>
       <time>2014-11-04T01:10:58Z</time>
      </trkpt>
      <trkpt lat="44.082030" lon="8.222540">
       <ele>5.32</ele>
       <time>2014-11-04T01:10:59Z</time>
      </trkpt>
      <trkpt lat="44.082060" lon="8.222520">
       <ele>5.42</ele>
       <time>2014-11-04T01:11:00Z</time>
      </trkpt>
      <trkpt lat="44.082570" lon="8.222890">
       <ele>4.76</ele>
       <time>2014-11-04T01:11:12Z</time>
      </trkpt>
      <trkpt lat="44.082990" lon="8.223310">
       <ele>4.26</ele>
       <time>2014-11-04T01:11:23Z</time>
      </trkpt>
      <trkpt lat="44.084390" lon="8.224950">
       <ele>4.14</ele>
       <time>2014-11-04T01:12:00Z</time>
      </trkpt>
      <trkpt lat="44.084530" lon="8.225070">
       <ele>3.92</ele>
       <time>2014-11-04T01:12:04Z</time>
      </trkpt>
      <trkpt lat="44.084690" lon="8.225180">
       <ele>3.78</ele>
       <time>2014-11-04T01:12:08Z</time>
      </trkpt>
      <trkpt lat="44.086240" lon="8.225910">
       <ele>3.53</ele>
       <time>2014-11-04T01:12:42Z</time>
      </trkpt>
      <trkpt lat="44.087270" lon="8.226480">
       <ele>4.4</ele>
       <time>2014-11-04T01:13:05Z</time>
      </trkpt>
      <trkpt lat="44.088550" lon="8.227260">
       <ele>6.36</ele>
       <time>2014-11-04T01:13:33Z</time>
      </trkpt>
      <trkpt lat="44.088740" lon="8.227350">
       <ele>6.72</ele>
       <time>2014-11-04T01:13:38Z</time>
      </trkpt>
      <trkpt lat="44.089880" lon="8.228010">
       <ele>6.47</ele>
       <time>2014-11-04T01:14:03Z</time>
      </trkpt>
      <trkpt lat="44.090170" lon="8.228200">
       <ele>6.78</ele>
       <time>2014-11-04T01:14:10Z</time>
      </trkpt>
      <trkpt lat="44.090450" lon="8.228480">
       <ele>7.61</ele>
       <time>2014-11-04T01:14:17Z</time>
      </trkpt>
      <trkpt lat="44.090840" lon="8.228830">
       <ele>8.43</ele>
       <time>2014-11-04T01:14:27Z</time>
      </trkpt>
      <trkpt lat="44.091080" lon="8.229000">
       <ele>8.79</ele>
       <time>2014-11-04T01:14:32Z</time>
      </trkpt>
      <trkpt lat="44.091460" lon="8.229220">
       <ele>8.53</ele>
       <time>2014-11-04T01:14:41Z</time>
      </trkpt>
      <trkpt lat="44.092530" lon="8.229790">
       <ele>8.28</ele>
       <time>2014-11-04T01:15:05Z</time>
      </trkpt>
      <trkpt lat="44.093010" lon="8.230100">
       <ele>7.52</ele>
       <time>2014-11-04T01:15:15Z</time>
      </trkpt>
      <trkpt lat="44.093590" lon="8.230530">
       <ele>7.8</ele>
       <time>2014-11-04T01:15:29Z</time>
      </trkpt>
      <trkpt lat="44.093770" lon="8.230640">
       <ele>7.6</ele>
       <time>2014-11-04T01:15:33Z</time>
      </trkpt>
      <trkpt lat="44.093780" lon="8.230700">
       <ele>7.55</ele>
       <time>2014-11-04T01:15:34Z</time>
      </trkpt>
      <trkpt lat="44.093810" lon="8.230730">
       <ele>7.5</ele>
       <time>2014-11-04T01:15:35Z</time>
      </trkpt>
      <trkpt lat="44.094040" lon="8.230810">
       <ele>7.18</ele>
       <time>2014-11-04T01:15:40Z</time>
      </trkpt>
      <trkpt lat="44.094100" lon="8.230810">
       <ele>7.1</ele>
       <time>2014-11-04T01:15:41Z</time>
      </trkpt>
      <trkpt lat="44.094150" lon="8.230740">
       <ele>7.13</ele>
       <time>2014-11-04T01:15:43Z</time>
      </trkpt>
      <trkpt lat="44.094230" lon="8.230790">
       <ele>7.29</ele>
       <time>2014-11-04T01:15:44Z</time>
      </trkpt>
      <trkpt lat="44.094620" lon="8.230940">
       <ele>8.41</ele>
       <time>2014-11-04T01:15:53Z</time>
      </trkpt>
      <trkpt lat="44.095770" lon="8.231330">
       <ele>9.65</ele>
       <time>2014-11-04T01:16:17Z</time>
      </trkpt>
      <trkpt lat="44.095890" lon="8.231350">
       <ele>9.85</ele>
       <time>2014-11-04T01:16:20Z</time>
      </trkpt>
      <trkpt lat="44.095890" lon="8.231400">
       <ele>9.73</ele>
       <time>2014-11-04T01:16:21Z</time>
      </trkpt>
      <trkpt lat="44.095910" lon="8.231430">
       <ele>9.68</ele>
       <time>2014-11-04T01:16:21Z</time>
      </trkpt>
      <trkpt lat="44.095960" lon="8.231430">
       <ele>9.76</ele>
       <time>2014-11-04T01:16:22Z</time>
      </trkpt>
      <trkpt lat="44.095970" lon="8.231410">
       <ele>9.83</ele>
       <time>2014-11-04T01:16:23Z</time>
      </trkpt>
      <trkpt lat="44.096310" lon="8.231540">
       <ele>9.96</ele>
       <time>2014-11-04T01:16:30Z</time>
      </trkpt>
      <trkpt lat="44.096680" lon="8.231740">
       <ele>10</ele>
       <time>2014-11-04T01:16:38Z</time>
      </trkpt>
      <trkpt lat="44.097070" lon="8.232050">
       <ele>11.55</ele>
       <time>2014-11-04T01:16:47Z</time>
      </trkpt>
      <trkpt lat="44.097620" lon="8.232640">
       <ele>11.82</ele>
       <time>2014-11-04T01:17:02Z</time>
      </trkpt>
      <trkpt lat="44.100380" lon="8.235440">
       <ele>15.71</ele>
       <time>2014-11-04T01:18:13Z</time>
      </trkpt>
      <trkpt lat="44.100940" lon="8.235930">
       <ele>18.17</ele>
       <time>2014-11-04T01:18:26Z</time>
      </trkpt>
      <trkpt lat="44.101180" lon="8.236120">
       <ele>20.34</ele>
       <time>2014-11-04T01:18:32Z</time>
      </trkpt>
      <trkpt lat="44.101160" lon="8.236140">
       <ele>19.47</ele>
       <time>2014-11-04T01:18:33Z</time>
      </trkpt>
      <trkpt lat="44.101160" lon="8.236230">
       <ele>17.81</ele>
       <time>2014-11-04T01:18:34Z</time>
      </trkpt>
      <trkpt lat="44.101190" lon="8.236260">
       <ele>17.84</ele>
       <time>2014-11-04T01:18:35Z</time>
      </trkpt>
      <trkpt lat="44.101240" lon="8.236260">
       <ele>18.81</ele>
       <time>2014-11-04T01:18:36Z</time>
      </trkpt>
      <trkpt lat="44.101260" lon="8.236230">
       <ele>19.87</ele>
       <time>2014-11-04T01:18:36Z</time>
      </trkpt>
      <trkpt lat="44.101740" lon="8.236760">
       <ele>17.73</ele>
       <time>2014-11-04T01:18:49Z</time>
      </trkpt>
      <trkpt lat="44.102060" lon="8.237010">
       <ele>21.41</ele>
       <time>2014-11-04T01:18:57Z</time>
      </trkpt>
      <trkpt lat="44.102560" lon="8.237330">
       <ele>24.67</ele>
       <time>2014-11-04T01:19:08Z</time>
      </trkpt>
      <trkpt lat="44.102660" lon="8.237460">
       <ele>24.59</ele>
       <time>2014-11-04T01:19:11Z</time>
      </trkpt>
      <trkpt lat="44.102770" lon="8.237650">
       <ele>24.06</ele>
       <time>2014-11-04T01:19:14Z</time>
      </trkpt>
      <trkpt lat="44.102860" lon="8.237760">
       <ele>24.37</ele>
       <time>2014-11-04T01:19:17Z</time>
      </trkpt>
      <trkpt lat="44.103350" lon="8.238220">
       <ele>24.45</ele>
       <time>2014-11-04T01:19:29Z</time>
      </trkpt>
      <trkpt lat="44.103690" lon="8.238600">
       <ele>20.14</ele>
       <time>2014-11-04T01:19:38Z</time>
      </trkpt>
      <trkpt lat="44.103820" lon="8.238690">
       <ele>19.63</ele>
       <time>2014-11-04T01:19:41Z</time>
      </trkpt>
      <trkpt lat="44.104450" lon="8.238990">
       <ele>17.38</ele>
       <time>2014-11-04T01:19:55Z</time>
      </trkpt>
      <trkpt lat="44.104590" lon="8.239020">
       <ele>17.7</ele>
       <time>2014-11-04T01:19:58Z</time>
      </trkpt>
      <trkpt lat="44.105400" lon="8.238900">
       <ele>23.4</ele>
       <time>2014-11-04T01:20:15Z</time>
      </trkpt>
      <trkpt lat="44.105520" lon="8.238870">
       <ele>23.46</ele>
       <time>2014-11-04T01:20:17Z</time>
      </trkpt>
      <trkpt lat="44.105660" lon="8.238820">
       <ele>23.88</ele>
       <time>2014-11-04T01:20:20Z</time>
      </trkpt>
      <trkpt lat="44.106110" lon="8.238540">
       <ele>30.24</ele>
       <time>2014-11-04T01:20:31Z</time>
      </trkpt>
      <trkpt lat="44.106270" lon="8.238500">
       <ele>30.94</ele>
       <time>2014-11-04T01:20:34Z</time>
      </trkpt>
      <trkpt lat="44.106460" lon="8.238520">
       <ele>29.54</ele>
       <time>2014-11-04T01:20:38Z</time>
      </trkpt>
      <trkpt lat="44.106630" lon="8.238620">
       <ele>25.53</ele>
       <time>2014-11-04T01:20:42Z</time>
      </trkpt>
      <trkpt lat="44.107330" lon="8.239440">
       <ele>7.82</ele>
       <time>2014-11-04T01:21:01Z</time>
      </trkpt>
      <trkpt lat="44.108060" lon="8.240330">
       <ele>6.34</ele>
       <time>2014-11-04T01:21:21Z</time>
      </trkpt>
      <trkpt lat="44.108410" lon="8.240660">
       <ele>7.22</ele>
       <time>2014-11-04T01:21:30Z</time>
      </trkpt>
      <trkpt lat="44.108710" lon="8.240970">
       <ele>7.76</ele>
       <time>2014-11-04T01:21:37Z</time>
      </trkpt>
      <trkpt lat="44.109330" lon="8.241500">
       <ele>7.17</ele>
       <time>2014-11-04T01:21:52Z</time>
      </trkpt>
      <trkpt lat="44.109510" lon="8.241710">
       <ele>6.64</ele>
       <time>2014-11-04T01:21:57Z</time>
      </trkpt>
      <trkpt lat="44.109710" lon="8.241980">
       <ele>6.72</ele>
       <time>2014-11-04T01:22:03Z</time>
      </trkpt>
      <trkpt lat="44.109830" lon="8.242070">
       <ele>6.69</ele>
       <time>2014-11-04T01:22:06Z</time>
      </trkpt>
      <trkpt lat="44.110200" lon="8.242210">
       <ele>6.5</ele>
       <time>2014-11-04T01:22:14Z</time>
      </trkpt>
      <trkpt lat="44.110420" lon="8.242280">
       <ele>6.36</ele>
       <time>2014-11-04T01:22:19Z</time>
      </trkpt>
      <trkpt lat="44.110530" lon="8.242300">
       <ele>6.28</ele>
       <time>2014-11-04T01:22:21Z</time>
      </trkpt>
      <trkpt lat="44.110600" lon="8.242290">
       <ele>6.21</ele>
       <time>2014-11-04T01:22:22Z</time>
      </trkpt>
      <trkpt lat="44.110600" lon="8.242320">
       <ele>6.22</ele>
       <time>2014-11-04T01:22:23Z</time>
      </trkpt>
      <trkpt lat="44.110630" lon="8.242360">
       <ele>6.2</ele>
       <time>2014-11-04T01:22:24Z</time>
      </trkpt>
      <trkpt lat="44.110680" lon="8.242360">
       <ele>6.15</ele>
       <time>2014-11-04T01:22:25Z</time>
      </trkpt>
      <trkpt lat="44.110710" lon="8.242330">
       <ele>6.12</ele>
       <time>2014-11-04T01:22:25Z</time>
      </trkpt>
      <trkpt lat="44.110710" lon="8.242310">
       <ele>6.11</ele>
       <time>2014-11-04T01:22:26Z</time>
      </trkpt>
      <trkpt lat="44.110810" lon="8.242350">
       <ele>6.02</ele>
       <time>2014-11-04T01:22:28Z</time>
      </trkpt>
      <trkpt lat="44.111030" lon="8.242570">
       <ele>6.88</ele>
       <time>2014-11-04T01:22:33Z</time>
      </trkpt>
      <trkpt lat="44.111420" lon="8.243010">
       <ele>9.33</ele>
       <time>2014-11-04T01:22:44Z</time>
      </trkpt>
      <trkpt lat="44.111720" lon="8.243310">
       <ele>10.88</ele>
       <time>2014-11-04T01:22:52Z</time>
      </trkpt>
      <trkpt lat="44.112100" lon="8.243750">
       <ele>10.22</ele>
       <time>2014-11-04T01:23:02Z</time>
      </trkpt>
      <trkpt lat="44.112770" lon="8.244470">
       <ele>9.53</ele>
       <time>2014-11-04T01:23:19Z</time>
      </trkpt>
      <trkpt lat="44.115190" lon="8.247160">
       <ele>9.67</ele>
       <time>2014-11-04T01:24:24Z</time>
      </trkpt>
      <trkpt lat="44.115910" lon="8.247800">
       <ele>10.48</ele>
       <time>2014-11-04T01:24:41Z</time>
      </trkpt>
      <trkpt lat="44.116240" lon="8.248040">
       <ele>9.38</ele>
       <time>2014-11-04T01:24:49Z</time>
      </trkpt>
      <trkpt lat="44.116510" lon="8.248190">
       <ele>9.08</ele>
       <time>2014-11-04T01:24:55Z</time>
      </trkpt>
      <trkpt lat="44.116940" lon="8.248350">
       <ele>8.25</ele>
       <time>2014-11-04T01:25:04Z</time>
      </trkpt>
      <trkpt lat="44.118720" lon="8.248770">
       <ele>7.55</ele>
       <time>2014-11-04T01:25:42Z</time>
      </trkpt>
      <trkpt lat="44.119020" lon="8.248820">
       <ele>6.77</ele>
       <time>2014-11-04T01:25:48Z</time>
      </trkpt>
      <trkpt lat="44.119310" lon="8.248910">
       <ele>6.78</ele>
       <time>2014-11-04T01:25:54Z</time>
      </trkpt>
      <trkpt lat="44.119510" lon="8.248990">
       <ele>7.51</ele>
       <time>2014-11-04T01:25:58Z</time>
      </trkpt>
      <trkpt lat="44.119630" lon="8.249070">
       <ele>8.08</ele>
       <time>2014-11-04T01:26:01Z</time>
      </trkpt>
      <trkpt lat="44.119770" lon="8.249200">
       <ele>8.88</ele>
       <time>2014-11-04T01:26:05Z</time>
      </trkpt>
      <trkpt lat="44.119750" lon="8.249300">
       <ele>8.74</ele>
       <time>2014-11-04T01:26:06Z</time>
      </trkpt>
      <trkpt lat="44.119790" lon="8.249400">
       <ele>8.85</ele>
       <time>2014-11-04T01:26:08Z</time>
      </trkpt>
      <trkpt lat="44.119850" lon="8.249440">
       <ele>9.07</ele>
       <time>2014-11-04T01:26:09Z</time>
      </trkpt>
      <trkpt lat="44.119890" lon="8.249440">
       <ele>9.22</ele>
       <time>2014-11-04T01:26:10Z</time>
      </trkpt>
      <trkpt lat="44.119930" lon="8.249420">
       <ele>9.41</ele>
       <time>2014-11-04T01:26:11Z</time>
      </trkpt>
      <trkpt lat="44.119960" lon="8.249380">
       <ele>9.58</ele>
       <time>2014-11-04T01:26:12Z</time>
      </trkpt>
      <trkpt lat="44.120130" lon="8.249540">
       <ele>9.48</ele>
       <time>2014-11-04T01:26:16Z</time>
      </trkpt>
      <trkpt lat="44.121060" lon="8.250650">
       <ele>10.07</ele>
       <time>2014-11-04T01:26:41Z</time>
      </trkpt>
      <trkpt lat="44.121780" lon="8.251580">
       <ele>11.83</ele>
       <time>2014-11-04T01:27:02Z</time>
      </trkpt>
      <trkpt lat="44.122170" lon="8.252150">
       <ele>11.17</ele>
       <time>2014-11-04T01:27:14Z</time>
      </trkpt>
      <trkpt lat="44.122380" lon="8.252430">
       <ele>11.01</ele>
       <time>2014-11-04T01:27:20Z</time>
      </trkpt>
      <trkpt lat="44.123120" lon="8.253520">
       <ele>11.3</ele>
       <time>2014-11-04T01:27:42Z</time>
      </trkpt>
      <trkpt lat="44.123420" lon="8.253810">
       <ele>11.17</ele>
       <time>2014-11-04T01:27:49Z</time>
      </trkpt>
      <trkpt lat="44.123410" lon="8.253860">
       <ele>11.01</ele>
       <time>2014-11-04T01:27:50Z</time>
      </trkpt>
      <trkpt lat="44.123430" lon="8.253910">
       <ele>10.96</ele>
       <time>2014-11-04T01:27:51Z</time>
      </trkpt>
      <trkpt lat="44.123480" lon="8.253920">
       <ele>11.13</ele>
       <time>2014-11-04T01:27:52Z</time>
      </trkpt>
      <trkpt lat="44.123500" lon="8.253910">
       <ele>11.22</ele>
       <time>2014-11-04T01:27:53Z</time>
      </trkpt>
      <trkpt lat="44.123510" lon="8.253880">
       <ele>11.32</ele>
       <time>2014-11-04T01:27:53Z</time>
      </trkpt>
      <trkpt lat="44.123560" lon="8.253910">
       <ele>11.44</ele>
       <time>2014-11-04T01:27:54Z</time>
      </trkpt>
      <trkpt lat="44.124370" lon="8.254540">
       <ele>13.38</ele>
       <time>2014-11-04T01:28:13Z</time>
      </trkpt>
      <trkpt lat="44.126000" lon="8.255710">
       <ele>12.78</ele>
       <time>2014-11-04T01:28:51Z</time>
      </trkpt>
      <trkpt lat="44.126060" lon="8.255730">
       <ele>12.61</ele>
       <time>2014-11-04T01:28:53Z</time>
      </trkpt>
      <trkpt lat="44.126070" lon="8.255800">
       <ele>12.49</ele>
       <time>2014-11-04T01:28:54Z</time>
      </trkpt>
      <trkpt lat="44.126100" lon="8.255840">
       <ele>12.35</ele>
       <time>2014-11-04T01:28:55Z</time>
      </trkpt>
      <trkpt lat="44.126130" lon="8.255870">
       <ele>12.22</ele>
       <time>2014-11-04T01:28:55Z</time>
      </trkpt>
      <trkpt lat="44.126220" lon="8.255860">
       <ele>12.03</ele>
       <time>2014-11-04T01:28:57Z</time>
      </trkpt>
      <trkpt lat="44.126700" lon="8.256310">
       <ele>11.53</ele>
       <time>2014-11-04T01:29:09Z</time>
      </trkpt>
      <trkpt lat="44.126980" lon="8.256590">
       <ele>11.53</ele>
       <time>2014-11-04T01:29:16Z</time>
      </trkpt>
      <trkpt lat="44.127620" lon="8.257290">
       <ele>12.17</ele>
       <time>2014-11-04T01:29:33Z</time>
      </trkpt>
      <trkpt lat="44.127910" lon="8.257520">
       <ele>11.51</ele>
       <time>2014-11-04T01:29:40Z</time>
      </trkpt>
      <trkpt lat="44.128160" lon="8.257650">
       <ele>10.59</ele>
       <time>2014-11-04T01:29:46Z</time>
      </trkpt>
      <trkpt lat="44.128180" lon="8.257730">
       <ele>10.5</ele>
       <time>2014-11-04T01:29:47Z</time>
      </trkpt>
      <trkpt lat="44.128220" lon="8.257770">
       <ele>10.37</ele>
       <time>2014-11-04T01:29:48Z</time>
      </trkpt>
      <trkpt lat="44.128280" lon="8.257780">
       <ele>10.17</ele>
       <time>2014-11-04T01:29:49Z</time>
      </trkpt>
      <trkpt lat="44.128310" lon="8.257760">
       <ele>10.07</ele>
       <time>2014-11-04T01:29:50Z</time>
      </trkpt>
      <trkpt lat="44.128520" lon="8.258020">
       <ele>9.86</ele>
       <time>2014-11-04T01:29:56Z</time>
      </trkpt>
      <trkpt lat="44.131560" lon="8.260400">
       <ele>8.93</ele>
       <time>2014-11-04T01:31:08Z</time>
      </trkpt>
      <trkpt lat="44.132470" lon="8.261230">
       <ele>5.13</ele>
       <time>2014-11-04T01:31:31Z</time>
      </trkpt>
      <trkpt lat="44.133410" lon="8.262150">
       <ele>5.31</ele>
       <time>2014-11-04T01:31:55Z</time>
      </trkpt>
      <trkpt lat="44.133470" lon="8.262240">
       <ele>5.09</ele>
       <time>2014-11-04T01:31:56Z</time>
      </trkpt>
      <trkpt lat="44.133440" lon="8.262290">
       <ele>5.06</ele>
       <time>2014-11-04T01:31:57Z</time>
      </trkpt>
      <trkpt lat="44.133440" lon="8.262380">
       <ele>4.93</ele>
       <time>2014-11-04T01:31:59Z</time>
      </trkpt>
      <trkpt lat="44.133480" lon="8.262440">
       <ele>4.75</ele>
       <time>2014-11-04T01:32:00Z</time>
      </trkpt>
      <trkpt lat="44.133550" lon="8.262440">
       <ele>4.59</ele>
       <time>2014-11-04T01:32:01Z</time>
      </trkpt>
      <trkpt lat="44.133590" lon="8.262390">
       <ele>4.6</ele>
       <time>2014-11-04T01:32:02Z</time>
      </trkpt>
      <trkpt lat="44.133590" lon="8.262360">
       <ele>4.65</ele>
       <time>2014-11-04T01:32:03Z</time>
      </trkpt>
      <trkpt lat="44.133790" lon="8.262480">
       <ele>3.96</ele>
       <time>2014-11-04T01:32:07Z</time>
      </trkpt>
      <trkpt lat="44.136590" lon="8.265100">
       <ele>3.19</ele>
       <time>2014-11-04T01:33:17Z</time>
      </trkpt>
      <trkpt lat="44.136880" lon="8.265490">
       <ele>3</ele>
       <time>2014-11-04T01:33:26Z</time>
      </trkpt>
      <trkpt lat="44.137180" lon="8.266110">
       <ele>3</ele>
       <time>2014-11-04T01:33:37Z</time>
      </trkpt>
      <trkpt lat="44.137390" lon="8.266620">
       <ele>3</ele>
       <time>2014-11-04T01:33:46Z</time>
      </trkpt>
      <trkpt lat="44.137690" lon="8.267030">
       <ele>2.79</ele>
       <time>2014-11-04T01:33:54Z</time>
      </trkpt>
      <trkpt lat="44.138090" lon="8.267430">
       <ele>2.79</ele>
       <time>2014-11-04T01:34:04Z</time>
      </trkpt>
      <trkpt lat="44.138620" lon="8.267900">
       <ele>3.19</ele>
       <time>2014-11-04T01:34:18Z</time>
      </trkpt>
      <trkpt lat="44.139250" lon="8.268500">
       <ele>4.58</ele>
       <time>2014-11-04T01:34:33Z</time>
      </trkpt>
      <trkpt lat="44.139940" lon="8.269270">
       <ele>2.92</ele>
       <time>2014-11-04T01:34:52Z</time>
      </trkpt>
      <trkpt lat="44.140630" lon="8.270180">
       <ele>3.7</ele>
       <time>2014-11-04T01:35:11Z</time>
      </trkpt>
      <trkpt lat="44.141270" lon="8.270980">
       <ele>4.18</ele>
       <time>2014-11-04T01:35:29Z</time>
      </trkpt>
      <trkpt lat="44.142370" lon="8.272410">
       <ele>3.02</ele>
       <time>2014-11-04T01:36:00Z</time>
      </trkpt>
      <trkpt lat="44.142580" lon="8.272630">
       <ele>3.33</ele>
       <time>2014-11-04T01:36:06Z</time>
      </trkpt>
      <trkpt lat="44.142720" lon="8.272730">
       <ele>3.73</ele>
       <time>2014-11-04T01:36:09Z</time>
      </trkpt>
      <trkpt lat="44.142710" lon="8.272800">
       <ele>3.78</ele>
       <time>2014-11-04T01:36:10Z</time>
      </trkpt>
      <trkpt lat="44.142740" lon="8.272890">
       <ele>3.91</ele>
       <time>2014-11-04T01:36:12Z</time>
      </trkpt>
      <trkpt lat="44.142820" lon="8.272940">
       <ele>4.09</ele>
       <time>2014-11-04T01:36:13Z</time>
      </trkpt>
      <trkpt lat="44.142880" lon="8.272920">
       <ele>4.19</ele>
       <time>2014-11-04T01:36:15Z</time>
      </trkpt>
      <trkpt lat="44.143010" lon="8.273190">
       <ele>4.54</ele>
       <time>2014-11-04T01:36:20Z</time>
      </trkpt>
      <trkpt lat="44.143330" lon="8.273630">
       <ele>4.99</ele>
       <time>2014-11-04T01:36:29Z</time>
      </trkpt>
      <trkpt lat="44.143630" lon="8.274010">
       <ele>5.07</ele>
       <time>2014-11-04T01:36:37Z</time>
      </trkpt>
      <trkpt lat="44.144050" lon="8.274590">
       <ele>4.7</ele>
       <time>2014-11-04T01:36:50Z</time>
      </trkpt>
      <trkpt lat="44.144200" lon="8.274770">
       <ele>4.35</ele>
       <time>2014-11-04T01:36:54Z</time>
      </trkpt>
      <trkpt lat="44.144380" lon="8.274920">
       <ele>4.6</ele>
       <time>2014-11-04T01:36:58Z</time>
      </trkpt>
      <trkpt lat="44.144370" lon="8.274920">
       <ele>4.59</ele>
       <time>2014-11-04T01:36:58Z</time>
      </trkpt>
      <trkpt lat="44.144380" lon="8.275050">
       <ele>4.6</ele>
       <time>2014-11-04T01:37:00Z</time>
      </trkpt>
      <trkpt lat="44.144400" lon="8.275090">
       <ele>4.72</ele>
       <time>2014-11-04T01:37:01Z</time>
      </trkpt>
      <trkpt lat="44.144430" lon="8.275110">
       <ele>4.81</ele>
       <time>2014-11-04T01:37:02Z</time>
      </trkpt>
      <trkpt lat="44.144500" lon="8.275120">
       <ele>4.97</ele>
       <time>2014-11-04T01:37:03Z</time>
      </trkpt>
      <trkpt lat="44.144540" lon="8.275300">
       <ele>5.29</ele>
       <time>2014-11-04T01:37:06Z</time>
      </trkpt>
      <trkpt lat="44.144590" lon="8.275400">
       <ele>5.49</ele>
       <time>2014-11-04T01:37:08Z</time>
      </trkpt>
      <trkpt lat="44.145000" lon="8.275960">
       <ele>5.7</ele>
       <time>2014-11-04T01:37:20Z</time>
      </trkpt>
      <trkpt lat="44.145660" lon="8.276780">
       <ele>5.34</ele>
       <time>2014-11-04T01:37:38Z</time>
      </trkpt>
      <trkpt lat="44.146030" lon="8.277160">
       <ele>5.62</ele>
       <time>2014-11-04T01:37:47Z</time>
      </trkpt>
      <trkpt lat="44.146500" lon="8.277390">
       <ele>6.77</ele>
       <time>2014-11-04T01:37:58Z</time>
      </trkpt>
      <trkpt lat="44.147160" lon="8.277670">
       <ele>10.04</ele>
       <time>2014-11-04T01:38:12Z</time>
      </trkpt>
      <trkpt lat="44.147510" lon="8.277840">
       <ele>12.18</ele>
       <time>2014-11-04T01:38:20Z</time>
      </trkpt>
      <trkpt lat="44.147730" lon="8.277980">
       <ele>15.57</ele>
       <time>2014-11-04T01:38:25Z</time>
      </trkpt>
      <trkpt lat="44.147870" lon="8.278140">
       <ele>16.91</ele>
       <time>2014-11-04T01:38:28Z</time>
      </trkpt>
      <trkpt lat="44.147960" lon="8.278280">
       <ele>17.29</ele>
       <time>2014-11-04T01:38:31Z</time>
      </trkpt>
      <trkpt lat="44.148490" lon="8.279490">
       <ele>19.15</ele>
       <time>2014-11-04T01:38:52Z</time>
      </trkpt>
      <trkpt lat="44.148840" lon="8.280710">
       <ele>23.1</ele>
       <time>2014-11-04T01:39:12Z</time>
      </trkpt>
      <trkpt lat="44.148900" lon="8.280860">
       <ele>23.21</ele>
       <time>2014-11-04T01:39:14Z</time>
      </trkpt>
      <trkpt lat="44.149110" lon="8.281210">
       <ele>21.82</ele>
       <time>2014-11-04T01:39:21Z</time>
      </trkpt>
      <trkpt lat="44.149700" lon="8.282020">
       <ele>23.02</ele>
       <time>2014-11-04T01:39:38Z</time>
      </trkpt>
      <trkpt lat="44.149830" lon="8.282230">
       <ele>21.94</ele>
       <time>2014-11-04T01:39:43Z</time>
      </trkpt>
      <trkpt lat="44.149860" lon="8.282320">
       <ele>20.82</ele>
       <time>2014-11-04T01:39:44Z</time>
      </trkpt>
      <trkpt lat="44.149820" lon="8.282360">
       <ele>19.6</ele>
       <time>2014-11-04T01:39:45Z</time>
      </trkpt>
      <trkpt lat="44.149820" lon="8.282440">
       <ele>18.26</ele>
       <time>2014-11-04T01:39:46Z</time>
      </trkpt>
      <trkpt lat="44.149880" lon="8.282480">
       <ele>18.2</ele>
       <time>2014-11-04T01:39:48Z</time>
      </trkpt>
      <trkpt lat="44.149970" lon="8.282900">
       <ele>16.41</ele>
       <time>2014-11-04T01:39:54Z</time>
      </trkpt>
      <trkpt lat="44.150020" lon="8.283040">
       <ele>16.13</ele>
       <time>2014-11-04T01:39:56Z</time>
      </trkpt>
      <trkpt lat="44.150350" lon="8.283560">
       <ele>16.68</ele>
       <time>2014-11-04T01:40:07Z</time>
      </trkpt>
      <trkpt lat="44.150550" lon="8.284030">
       <ele>12.51</ele>
       <time>2014-11-04T01:40:15Z</time>
      </trkpt>
      <trkpt lat="44.150630" lon="8.284260">
       <ele>10.39</ele>
       <time>2014-11-04T01:40:19Z</time>
      </trkpt>
      <trkpt lat="44.150790" lon="8.285300">
       <ele>7.14</ele>
       <time>2014-11-04T01:40:35Z</time>
      </trkpt>
      <trkpt lat="44.150820" lon="8.285620">
       <ele>7.05</ele>
       <time>2014-11-04T01:40:39Z</time>
      </trkpt>
      <trkpt lat="44.150790" lon="8.287210">
       <ele>7.59</ele>
       <time>2014-11-04T01:41:03Z</time>
      </trkpt>
      <trkpt lat="44.150750" lon="8.287220">
       <ele>7.47</ele>
       <time>2014-11-04T01:41:04Z</time>
      </trkpt>
      <trkpt lat="44.150710" lon="8.287280">
       <ele>7.23</ele>
       <time>2014-11-04T01:41:05Z</time>
      </trkpt>
      <trkpt lat="44.150710" lon="8.287370">
       <ele>7.02</ele>
       <time>2014-11-04T01:41:06Z</time>
      </trkpt>
      <trkpt lat="44.150760" lon="8.287440">
       <ele>6.97</ele>
       <time>2014-11-04T01:41:08Z</time>
      </trkpt>
      <trkpt lat="44.150820" lon="8.287440">
       <ele>7.12</ele>
       <time>2014-11-04T01:41:09Z</time>
      </trkpt>
      <trkpt lat="44.150840" lon="8.287420">
       <ele>7.21</ele>
       <time>2014-11-04T01:41:10Z</time>
      </trkpt>
      <trkpt lat="44.150910" lon="8.287760">
       <ele>8.06</ele>
       <time>2014-11-04T01:41:15Z</time>
      </trkpt>
      <trkpt lat="44.151030" lon="8.288060">
       <ele>9.17</ele>
       <time>2014-11-04T01:41:20Z</time>
      </trkpt>
      <trkpt lat="44.151480" lon="8.289100">
       <ele>10.1</ele>
       <time>2014-11-04T01:41:38Z</time>
      </trkpt>
      <trkpt lat="44.152500" lon="8.291370">
       <ele>5.71</ele>
       <time>2014-11-04T01:42:18Z</time>
      </trkpt>
      <trkpt lat="44.153110" lon="8.292810">
       <ele>8.25</ele>
       <time>2014-11-04T01:42:43Z</time>
      </trkpt>
      <trkpt lat="44.153510" lon="8.293820">
       <ele>5.58</ele>
       <time>2014-11-04T01:43:00Z</time>
      </trkpt>
      <trkpt lat="44.153710" lon="8.294350">
       <ele>4.47</ele>
       <time>2014-11-04T01:43:09Z</time>
      </trkpt>
      <trkpt lat="44.153760" lon="8.294520">
       <ele>4.41</ele>
       <time>2014-11-04T01:43:12Z</time>
      </trkpt>
      <trkpt lat="44.156210" lon="8.302440">
       <ele>4.82</ele>
       <time>2014-11-04T01:45:20Z</time>
      </trkpt>
      <trkpt lat="44.156350" lon="8.302970">
       <ele>5.05</ele>
       <time>2014-11-04T01:45:28Z</time>
      </trkpt>
      <trkpt lat="44.157970" lon="8.310330">
       <ele>4.52</ele>
       <time>2014-11-04T01:47:23Z</time>
      </trkpt>
      <trkpt lat="44.157960" lon="8.310450">
       <ele>4.41</ele>
       <time>2014-11-04T01:47:25Z</time>
      </trkpt>
      <trkpt lat="44.157990" lon="8.310720">
       <ele>4.41</ele>
       <time>2014-11-04T01:47:29Z</time>
      </trkpt>
      <trkpt lat="44.158120" lon="8.311550">
       <ele>5.39</ele>
       <time>2014-11-04T01:47:41Z</time>
      </trkpt>
      <trkpt lat="44.158380" lon="8.311410">
       <ele>6.97</ele>
       <time>2014-11-04T01:47:47Z</time>
      </trkpt>
      <trkpt lat="44.158480" lon="8.311330">
       <ele>7.45</ele>
       <time>2014-11-04T01:47:50Z</time>
      </trkpt>
      <trkpt lat="44.158480" lon="8.311880">
       <ele>8.34</ele>
       <time>2014-11-04T01:47:58Z</time>
      </trkpt>
      <trkpt lat="44.158500" lon="8.311980">
       <ele>8.66</ele>
       <time>2014-11-04T01:47:59Z</time>
      </trkpt>
      <trkpt lat="44.158650" lon="8.312400">
       <ele>11.28</ele>
       <time>2014-11-04T01:48:06Z</time>
      </trkpt>
      <trkpt lat="44.158730" lon="8.312680">
       <ele>12.67</ele>
       <time>2014-11-04T01:48:11Z</time>
      </trkpt>
      <trkpt lat="44.158970" lon="8.313030">
       <ele>17.17</ele>
       <time>2014-11-04T01:48:18Z</time>
      </trkpt>
      <trkpt lat="44.159020" lon="8.312970">
       <ele>17.98</ele>
       <time>2014-11-04T01:48:19Z</time>
      </trkpt>
      <trkpt lat="44.159440" lon="8.312650">
       <ele>21.79</ele>
       <time>2014-11-04T01:48:29Z</time>
      </trkpt>
      <trkpt lat="44.159930" lon="8.312760">
       <ele>26.88</ele>
       <time>2014-11-04T01:48:39Z</time>
      </trkpt>
      <trkpt lat="44.160010" lon="8.312830">
       <ele>28.28</ele>
       <time>2014-11-04T01:48:41Z</time>
      </trkpt>
      <trkpt lat="44.160040" lon="8.312890">
       <ele>29.17</ele>
       <time>2014-11-04T01:48:43Z</time>
      </trkpt>
      <trkpt lat="44.160050" lon="8.313050">
       <ele>30.82</ele>
       <time>2014-11-04T01:48:45Z</time>
      </trkpt>
      <trkpt lat="44.160020" lon="8.313250">
       <ele>32.42</ele>
       <time>2014-11-04T01:48:48Z</time>
      </trkpt>
      <trkpt lat="44.160020" lon="8.313400">
       <ele>33.64</ele>
       <time>2014-11-04T01:48:50Z</time>
      </trkpt>
      <trkpt lat="44.160060" lon="8.313470">
       <ele>34.63</ele>
       <time>2014-11-04T01:48:52Z</time>
      </trkpt>
      <trkpt lat="44.160090" lon="8.313470">
       <ele>35.04</ele>
       <time>2014-11-04T01:48:52Z</time>
      </trkpt>
    </trkseg>
  </trk>
</gpx>
